[[{"header":{"parameterUnit":"m.s-1","parameterCategory":1,"la1":30.6,"la2":29.2853,"lo1":-89.7004,"lo2":-87.6739,"dy":0.0162,"dx":0.0183,"nx":112,"ny":82,"refTime":"2026-04-03T12:00:00:Z","depth":0,"parameterNumber":2,"parameterNumberName":"U-component_of_WINDS"},"data":[0.0,0.0,0.0,0.0,0.0,0.0,0.0,0.0,0.0,0.0,0.0,0.0,0.0,0.0,0.0,0.0,0.0,0.0,0.0,0.0,0.0,0.0,0.0,0.0,0.0,0.0,0.0,0.0,0.0,0.0,0.0,0.0,0.0,0.0,0.0,0.0,0.0,0.0,0.0,0.0,0.0,0.0,0.0,0.0,0.0,0.0,0.0,0.0,0.0,0.0,0.0,0.0,0.0,0.0,0.0,0.0,0.0,0.0,0.0,0.0,0.0,0.0,0.0,0.0,0.0,0.0,0.0,0.0,0.0,0.0,0.0,0.0,0.0,0.0,0.0,0.0,0.0,0.0,0.0,0.0,0.0,0.0,0.0,0.0,0.0,0.0,0.0,0.0,0.0,0.0,-4.3697,-4.5727,-5.0185,-5.3311,-5.408,-5.2034,-4.8891,-4.4662,0.0,0.0,0.0,0.0,0.0,0.0,0.0,0.0,0.0,0.0,0.0,0.0,0.0,0.0,0.0,0.0,0.0,0.0,0.0,0.0,0.0,0.0,0.0,0.0,0.0,0.0,0.0,0.0,0.0,0.0,0.0,0.0,0.0,0.0,0.0,0.0,0.0,0.0,0.0,0.0,0.0,0.0,0.0,0.0,0.0,0.0,0.0,0.0,0.0,0.0,0.0,0.0,0.0,0.0,0.0,0.0,0.0,0.0,0.0,0.0,0.0,0.0,0.0,0.0,0.0,0.0,0.0,0.0,0.0,0.0,0.0,0.0,0.0,0.0,0.0,0.0,0.0,0.0,0.0,0.0,0.0,0.0,0.0,0.0,0.0,0.0,0.0,0.0,0.0,0.0,0.0,0.0,0.0,0.0,0.0,0.0,0.0,0.0,0.0,0.0,0.0,0.0,0.0,0.0,-4.3544,-4.8784,-5.0718,-5.1864,-5.2564,-5.0048,-4.73,-4.4673,0.0,0.0,0.0,0.0,0.0,0.0,0.0,0.0,0.0,0.0,0.0,0.0,0.0,0.0,0.0,0.0,0.0,0.0,0.0,0.0,0.0,0.0,0.0,0.0,0.0,0.0,0.0,0.0,0.0,0.0,0.0,0.0,0.0,0.0,0.0,0.0,0.0,0.0,0.0,0.0,0.0,0.0,0.0,0.0,0.0,0.0,0.0,0.0,0.0,0.0,0.0,0.0,0.0,0.0,0.0,0.0,0.0,0.0,0.0,0.0,0.0,0.0,0.0,0.0,0.0,0.0,0.0,0.0,0.0,0.0,0.0,0.0,0.0,0.0,0.0,0.0,0.0,0.0,0.0,0.0,0.0,0.0,0.0,0.0,0.0,0.0,0.0,0.0,0.0,0.0,0.0,0.0,0.0,0.0,0.0,0.0,0.0,0.0,0.0,0.0,0.0,0.0,0.0,-4.1506,-4.3753,-4.8824,-5.009,-5.0724,-5.1025,-4.9067,-4.6569,-4.3492,-4.1218,0.0,0.0,0.0,0.0,0.0,0.0,0.0,0.0,0.0,0.0,0.0,0.0,0.0,0.0,0.0,0.0,0.0,0.0,0.0,0.0,0.0,0.0,0.0,0.0,0.0,0.0,0.0,0.0,0.0,0.0,0.0,0.0,0.0,0.0,0.0,0.0,0.0,0.0,0.0,0.0,0.0,0.0,0.0,0.0,0.0,0.0,0.0,0.0,0.0,0.0,0.0,0.0,0.0,0.0,0.0,0.0,0.0,0.0,0.0,0.0,0.0,0.0,0.0,0.0,0.0,0.0,0.0,0.0,0.0,0.0,0.0,0.0,0.0,0.0,0.0,0.0,0.0,0.0,0.0,0.0,0.0,0.0,0.0,0.0,0.0,0.0,0.0,0.0,0.0,0.0,0.0,0.0,0.0,0.0,0.0,0.0,0.0,0.0,0.0,0.0,0.0,0.0,-4.2545,-4.3992,-4.7732,-4.8736,-4.9145,-4.9145,-4.7664,-4.5415,-4.2244,-3.9617,0.0,0.0,0.0,0.0,0.0,0.0,0.0,0.0,0.0,0.0,0.0,0.0,0.0,0.0,0.0,0.0,0.0,0.0,0.0,0.0,0.0,0.0,0.0,0.0,0.0,0.0,0.0,0.0,0.0,0.0,0.0,0.0,0.0,0.0,0.0,0.0,0.0,0.0,0.0,0.0,0.0,0.0,0.0,0.0,0.0,0.0,0.0,0.0,0.0,0.0,0.0,0.0,0.0,0.0,0.0,0.0,0.0,0.0,0.0,0.0,0.0,0.0,0.0,0.0,0.0,0.0,0.0,0.0,0.0,0.0,0.0,0.0,0.0,0.0,0.0,0.0,0.0,0.0,0.0,0.0,0.0,0.0,0.0,0.0,0.0,0.0,0.0,0.0,0.0,0.0,0.0,0.0,0.0,0.0,0.0,0.0,0.0,0.0,0.0,0.0,0.0,0.0,-4.2228,-4.3908,-4.6153,-4.6584,-4.6745,-4.6745,-4.4888,-4.301,-4.1383,-3.7879,0.0,0.0,0.0,0.0,0.0,0.0,0.0,0.0,0.0,0.0,0.0,0.0,0.0,0.0,0.0,0.0,0.0,0.0,0.0,0.0,0.0,0.0,0.0,0.0,0.0,0.0,0.0,0.0,0.0,0.0,0.0,0.0,0.0,0.0,0.0,0.0,0.0,0.0,0.0,0.0,0.0,0.0,0.0,0.0,0.0,0.0,0.0,0.0,0.0,0.0,0.0,0.0,0.0,0.0,0.0,0.0,0.0,0.0,0.0,0.0,0.0,0.0,0.0,0.0,0.0,0.0,0.0,0.0,0.0,0.0,0.0,0.0,0.0,0.0,0.0,0.0,0.0,0.0,0.0,0.0,0.0,0.0,0.0,0.0,0.0,0.0,0.0,0.0,0.0,0.0,0.0,0.0,0.0,0.0,0.0,0.0,0.0,0.0,0.0,0.0,0.0,0.0,-3.985,-4.1832,0.0,-4.5021,-4.5338,-4.4464,-4.3287,-4.1584,-3.9196,0.0,0.0,0.0,0.0,0.0,0.0,0.0,0.0,0.0,0.0,0.0,0.0,0.0,0.0,0.0,0.0,0.0,0.0,0.0,0.0,0.0,0.0,0.0,0.0,0.0,0.0,0.0,0.0,0.0,0.0,0.0,0.0,0.0,0.0,0.0,0.0,0.0,0.0,0.0,0.0,0.0,0.0,0.0,0.0,0.0,0.0,0.0,0.0,0.0,0.0,0.0,0.0,0.0,0.0,0.0,0.0,0.0,0.0,0.0,0.0,0.0,0.0,0.0,0.0,0.0,0.0,0.0,0.0,0.0,0.0,0.0,0.0,0.0,0.0,0.0,0.0,0.0,0.0,0.0,0.0,0.0,0.0,0.0,0.0,0.0,0.0,0.0,0.0,0.0,0.0,0.0,0.0,0.0,0.0,0.0,0.0,0.0,0.0,0.0,0.0,0.0,0.0,-3.6075,-3.8171,-4.0132,0.0,-4.3416,-4.372,-4.2736,-4.1662,-4.0105,-3.7859,0.0,0.0,0.0,0.0,0.0,0.0,0.0,0.0,0.0,0.0,0.0,0.0,0.0,0.0,0.0,0.0,0.0,0.0,0.0,0.0,0.0,0.0,0.0,0.0,0.0,0.0,0.0,0.0,0.0,0.0,0.0,0.0,0.0,0.0,0.0,0.0,0.0,0.0,0.0,0.0,0.0,0.0,0.0,0.0,0.0,0.0,0.0,0.0,0.0,0.0,0.0,0.0,0.0,0.0,0.0,0.0,0.0,0.0,0.0,0.0,0.0,0.0,0.0,0.0,0.0,0.0,0.0,0.0,0.0,0.0,0.0,0.0,0.0,0.0,0.0,0.0,0.0,0.0,0.0,0.0,0.0,0.0,0.0,0.0,0.0,0.0,0.0,0.0,0.0,0.0,0.0,0.0,0.0,0.0,0.0,0.0,0.0,0.0,0.0,0.0,0.0,0.0,-3.6076,-3.7573,-3.9134,-4.1145,-4.1534,-4.1674,-4.1674,-3.9881,-3.8441,0.0,0.0,0.0,0.0,0.0,0.0,0.0,0.0,0.0,0.0,0.0,0.0,0.0,0.0,0.0,0.0,0.0,0.0,0.0,0.0,0.0,0.0,0.0,0.0,0.0,0.0,0.0,0.0,0.0,0.0,0.0,0.0,0.0,0.0,0.0,0.0,0.0,0.0,0.0,0.0,0.0,0.0,0.0,0.0,0.0,0.0,0.0,0.0,0.0,0.0,0.0,0.0,0.0,0.0,0.0,0.0,0.0,0.0,0.0,0.0,0.0,0.0,0.0,0.0,0.0,0.0,0.0,0.0,0.0,0.0,0.0,0.0,0.0,0.0,0.0,0.0,0.0,0.0,0.0,0.0,0.0,0.0,0.0,0.0,0.0,0.0,0.0,0.0,0.0,0.0,0.0,0.0,0.0,0.0,0.0,0.0,0.0,0.0,0.0,0.0,0.0,0.0,0.0,-3.3035,-3.5375,-3.7387,-3.8713,-3.9346,-3.9765,-4.007,-3.8682,-3.7123,-3.5483,0.0,0.0,0.0,0.0,0.0,0.0,0.0,0.0,0.0,0.0,0.0,0.0,0.0,0.0,0.0,0.0,0.0,0.0,0.0,0.0,0.0,0.0,0.0,0.0,0.0,0.0,0.0,0.0,0.0,0.0,0.0,0.0,0.0,0.0,0.0,0.0,0.0,0.0,0.0,0.0,0.0,0.0,0.0,0.0,0.0,0.0,0.0,0.0,0.0,0.0,0.0,0.0,0.0,0.0,0.0,0.0,0.0,0.0,0.0,0.0,0.0,0.0,0.0,0.0,0.0,0.0,0.0,0.0,0.0,0.0,0.0,0.0,0.0,0.0,0.0,0.0,0.0,0.0,0.0,0.0,0.0,0.0,0.0,0.0,0.0,0.0,0.0,0.0,0.0,0.0,0.0,0.0,0.0,0.0,0.0,0.0,0.0,0.0,0.0,0.0,0.0,0.0,-3.1743,-3.422,-3.6198,-3.707,-3.7515,-3.7872,-3.8069,-3.715,-3.5889,-3.4243,0.0,0.0,0.0,0.0,0.0,0.0,0.0,0.0,0.0,0.0,0.0,0.0,0.0,0.0,0.0,0.0,0.0,0.0,0.0,0.0,0.0,0.0,0.0,0.0,0.0,0.0,0.0,0.0,0.0,0.0,0.0,0.0,0.0,0.0,0.0,0.0,0.0,0.0,0.0,0.0,0.0,0.0,0.0,0.0,0.0,0.0,0.0,0.0,0.0,0.0,0.0,0.0,0.0,0.0,0.0,0.0,0.0,0.0,0.0,0.0,0.0,0.0,0.0,0.0,0.0,0.0,0.0,0.0,0.0,0.0,0.0,0.0,0.0,0.0,0.0,0.0,0.0,0.0,0.0,0.0,0.0,0.0,0.0,0.0,0.0,0.0,0.0,0.0,0.0,0.0,0.0,0.0,0.0,0.0,0.0,0.0,0.0,0.0,0.0,0.0,0.0,0.0,-3.1582,-3.3687,-3.5358,-3.5998,-3.6053,-3.6093,-3.6212,-3.5593,-3.4778,-3.3735,0.0,0.0,0.0,0.0,0.0,0.0,0.0,0.0,0.0,0.0,0.0,0.0,0.0,0.0,0.0,0.0,0.0,0.0,0.0,0.0,0.0,0.0,0.0,0.0,0.0,0.0,0.0,0.0,0.0,0.0,0.0,0.0,0.0,0.0,0.0,0.0,0.0,0.0,0.0,0.0,0.0,0.0,0.0,0.0,0.0,0.0,0.0,0.0,0.0,0.0,0.0,0.0,0.0,0.0,0.0,0.0,0.0,0.0,0.0,0.0,-3.4513,0.0,0.0,0.0,0.0,0.0,0.0,0.0,0.0,0.0,0.0,0.0,0.0,0.0,0.0,0.0,0.0,0.0,0.0,0.0,0.0,0.0,0.0,0.0,0.0,0.0,0.0,0.0,0.0,0.0,0.0,0.0,0.0,0.0,0.0,0.0,0.0,0.0,0.0,0.0,0.0,0.0,-3.0464,-3.2369,-3.3923,-3.4938,-3.502,-3.5319,-3.6132,-3.5217,-3.4085,-3.2863,-3.0159,0.0,0.0,0.0,0.0,0.0,0.0,0.0,0.0,0.0,0.0,0.0,0.0,0.0,0.0,0.0,0.0,0.0,0.0,0.0,0.0,0.0,0.0,0.0,0.0,0.0,0.0,0.0,0.0,0.0,0.0,0.0,0.0,0.0,0.0,0.0,0.0,0.0,0.0,0.0,0.0,0.0,0.0,0.0,0.0,0.0,0.0,0.0,0.0,0.0,0.0,0.0,0.0,0.0,0.0,0.0,0.0,0.0,0.0,0.0,0.0,-3.4032,0.0,0.0,0.0,0.0,0.0,0.0,0.0,0.0,0.0,0.0,0.0,0.0,0.0,0.0,0.0,0.0,0.0,0.0,0.0,0.0,0.0,0.0,0.0,0.0,0.0,0.0,0.0,0.0,0.0,0.0,0.0,0.0,0.0,0.0,0.0,0.0,0.0,0.0,0.0,0.0,-2.9917,-3.164,-3.2997,-3.3843,-3.3911,-3.4137,-3.4692,-3.3872,-3.313,-3.2622,-3.0046,0.0,0.0,0.0,0.0,0.0,0.0,0.0,0.0,0.0,0.0,0.0,0.0,0.0,0.0,0.0,0.0,0.0,0.0,0.0,0.0,0.0,0.0,0.0,0.0,0.0,0.0,0.0,0.0,0.0,0.0,0.0,0.0,0.0,0.0,0.0,0.0,0.0,0.0,0.0,0.0,0.0,0.0,0.0,0.0,0.0,0.0,0.0,0.0,0.0,0.0,0.0,0.0,0.0,-3.1033,-3.1219,-3.0457,-3.1745,-3.1989,-3.149,-3.2816,-3.3913,-3.4648,-3.3504,0.0,0.0,0.0,0.0,0.0,0.0,0.0,0.0,0.0,0.0,0.0,0.0,0.0,0.0,0.0,0.0,0.0,0.0,0.0,0.0,0.0,0.0,0.0,0.0,-2.6432,-2.6996,0.0,0.0,0.0,0.0,0.0,0.0,0.0,0.0,0.0,0.0,0.0,0.0,-2.9735,-3.1286,-3.2356,-3.2735,-3.271,-3.2599,-3.2457,-3.1822,-3.1672,-3.2129,-2.9931,-2.8404,0.0,0.0,0.0,0.0,0.0,0.0,0.0,0.0,0.0,0.0,0.0,0.0,0.0,0.0,0.0,0.0,0.0,0.0,0.0,0.0,0.0,0.0,0.0,0.0,0.0,0.0,0.0,0.0,0.0,0.0,0.0,0.0,-3.1124,-3.1129,0.0,0.0,0.0,0.0,0.0,0.0,0.0,0.0,0.0,0.0,0.0,0.0,0.0,-2.9748,-2.9291,-3.0391,-3.0499,-2.9635,-3.0588,-3.0928,-3.0829,-3.1045,-3.171,-3.2672,-3.3372,0.0,-3.1592,-3.0738,0.0,0.0,0.0,0.0,0.0,0.0,0.0,0.0,0.0,0.0,0.0,0.0,0.0,0.0,0.0,0.0,0.0,0.0,0.0,0.0,0.0,0.0,-2.7128,-2.6039,-2.6274,-2.675,0.0,-2.6102,-2.5146,-2.4331,-2.4077,0.0,0.0,0.0,0.0,0.0,0.0,0.0,-2.9839,-3.1286,-3.2035,-3.1484,-3.1037,-3.0505,-2.9965,-2.901,-2.8892,-2.9947,-2.8017,-2.7176,-2.8022,-2.6054,0.0,0.0,0.0,0.0,0.0,0.0,0.0,0.0,0.0,0.0,0.0,0.0,0.0,0.0,0.0,0.0,0.0,0.0,0.0,0.0,0.0,0.0,0.0,0.0,0.0,0.0,0.0,0.0,0.0,-3.1419,-3.1547,-3.1137,-3.0605,-2.9943,0.0,0.0,0.0,0.0,0.0,0.0,0.0,0.0,0.0,-3.0521,-3.013,-3.0023,-3.0209,-3.0974,-3.1106,-3.0684,-3.1543,-3.1836,-3.1621,-3.1855,-3.2176,-3.2512,-3.2752,-3.2258,-3.1333,-3.1736,-3.1273,-3.0182,0.0,0.0,0.0,0.0,-2.9101,-2.9124,-2.9169,-2.9435,0.0,-2.812,0.0,0.0,0.0,0.0,0.0,0.0,0.0,0.0,0.0,0.0,0.0,-2.6133,-2.6328,-2.6448,-2.6187,-2.555,-2.5019,0.0,-2.4679,-2.3897,-2.2648,0.0,0.0,0.0,0.0,-2.6627,-2.7897,-2.9059,-2.9695,-2.9494,-2.9265,-2.9001,-2.87,-2.7983,-2.7906,-2.8694,-2.7529,-2.6932,-2.7207,-2.65,-2.5436,0.0,0.0,0.0,0.0,0.0,0.0,0.0,0.0,0.0,0.0,0.0,0.0,0.0,0.0,0.0,0.0,0.0,0.0,0.0,0.0,0.0,0.0,0.0,0.0,0.0,0.0,0.0,0.0,-3.1617,-3.1632,-3.0905,-3.0749,-3.0161,0.0,0.0,0.0,0.0,0.0,0.0,-3.0098,-2.9766,-3.0084,-3.1218,-3.0611,-3.0605,-3.1367,-3.1797,-3.2012,-3.2012,-3.2656,-3.2793,-3.25,-3.2812,-3.2793,-3.248,-3.248,-3.2187,-3.1761,-3.2316,-3.1889,-3.0751,-2.9728,-2.9149,-2.8807,-2.8807,-2.8807,-2.8919,-2.9332,-2.9424,-2.923,-2.858,0.0,-2.7656,-2.6515,0.0,0.0,0.0,0.0,-2.6194,-2.6927,-2.6592,-2.6064,-2.6328,-2.6387,-2.6269,-2.5791,-2.5391,-2.5232,0.0,-2.5056,-2.3932,-2.249,0.0,0.0,0.0,0.0,-2.5236,-2.6371,-2.7222,-2.7696,-2.7655,-2.7479,-2.7326,-2.7195,-2.678,-2.6867,-2.7524,-2.7128,-2.6795,-2.6643,-2.68,-2.6047,-2.4222,0.0,0.0,0.0,0.0,0.0,0.0,0.0,0.0,0.0,0.0,0.0,0.0,0.0,0.0,0.0,0.0,0.0,0.0,0.0,0.0,0.0,0.0,0.0,0.0,0.0,0.0,0.0,0.0,0.0,-2.9838,-3.059,0.0,0.0,0.0,0.0,-2.9295,-2.9652,-2.979,-2.9652,-2.9956,-3.0526,-3.1446,-3.1876,-3.2246,-3.2695,-3.3125,-3.332,-3.332,-3.3379,-3.3379,-3.3359,-3.3379,-3.3379,-3.3359,-3.3359,-3.2891,-3.2092,-3.0877,-3.0108,-2.9597,-2.8731,-2.8377,-2.8323,-2.8323,-2.8323,-2.8323,-2.8396,-2.814,-2.7865,-2.8219,-2.7511,-2.6507,-2.6428,-2.6519,0.0,0.0,-2.6734,-2.7662,-2.6705,-2.6691,-2.6855,-2.6484,-2.6387,-2.6269,-2.5791,-2.5391,-2.5086,0.0,-2.4126,-2.3361,-2.3639,0.0,-2.2822,-2.3775,-2.4831,-2.5797,-2.6416,-2.6973,-2.7081,-2.6487,-2.5883,-2.5269,-2.4651,-2.4579,-2.5017,-2.6104,-2.6172,-2.6428,-2.705,-2.6601,-2.5842,-2.4776,-2.293,0.0,0.0,0.0,0.0,0.0,0.0,0.0,0.0,0.0,0.0,0.0,0.0,0.0,0.0,0.0,0.0,0.0,0.0,0.0,0.0,0.0,0.0,0.0,0.0,0.0,0.0,0.0,0.0,-3.1354,-3.1645,0.0,-2.9839,-2.9796,-2.987,-2.9879,-3.0542,-3.1128,-3.1661,-3.2305,-3.2949,-3.3555,-3.3457,-3.3457,-3.3613,-3.3496,-3.3418,-3.3418,-3.3418,-3.3418,-3.3418,-3.3418,-3.3418,-3.3418,-3.3418,-3.3105,-3.2519,-3.1777,-3.0879,-2.9941,-2.9629,-2.9355,-2.9121,-2.9121,-2.9121,-2.9121,-2.9121,-2.9023,-2.8828,-2.8418,-2.7617,-2.6738,-2.6465,-2.6646,-2.6764,-2.629,-2.6744,-2.7321,-2.7231,-2.7324,-2.7324,-2.6894,-2.6797,-2.6602,-2.5849,-2.5605,-2.5508,-2.5508,-2.4668,-2.384,-2.3461,-2.3345,-2.3173,-2.2716,-2.3657,-2.4418,-2.4317,-2.4751,-2.4845,-2.4283,-2.4055,-2.3934,-2.403,-2.375,-2.389,-2.4571,-2.4636,-2.4593,-2.452,-2.5315,-2.5124,-2.3862,-2.3141,-2.1786,0.0,0.0,0.0,0.0,0.0,0.0,0.0,0.0,0.0,0.0,0.0,0.0,0.0,0.0,0.0,0.0,0.0,0.0,0.0,0.0,0.0,0.0,0.0,0.0,0.0,-3.13,-3.2133,-3.1799,-3.2416,-3.2305,-3.0996,-3.0859,-3.1055,-3.1465,-3.2051,-3.2695,-3.3398,-3.3984,-3.4414,-3.4687,-3.4297,-3.4082,-3.4082,-3.3633,-3.3418,-3.3418,-3.3418,-3.3418,-3.3418,-3.3418,-3.3418,-3.3418,-3.3418,-3.3105,-3.2559,-3.2285,-3.1484,-3.043,-3.043,-3.0254,-3.0019,-3.0019,-3.0019,-3.0,-2.9844,-2.9687,-2.9453,-2.873,-2.8027,-2.7402,-2.7109,-2.7226,-2.7383,-2.7109,-2.7226,-2.7519,-2.7793,-2.7871,-2.7773,-2.7344,-2.7129,-2.6816,-2.6113,-2.5791,-2.5693,-2.5693,-2.5137,-2.4414,-2.3711,-2.3691,-2.3457,-2.2461,-2.3027,-2.3457,-2.314,-2.3354,-2.3457,-2.312,-2.3101,-2.3218,-2.3555,-2.3437,-2.3477,-2.3769,-2.3789,-2.3594,-2.312,-2.3941,-2.3902,-2.2859,-2.2391,-2.1282,-1.9498,0.0,0.0,0.0,0.0,0.0,0.0,0.0,0.0,0.0,0.0,0.0,0.0,0.0,0.0,0.0,0.0,0.0,0.0,0.0,0.0,0.0,0.0,0.0,-2.9921,-3.0857,-3.1445,-3.1055,-3.2851,-3.3633,-3.2444,-3.2988,-3.3633,-3.4062,-3.4101,-3.4297,-3.4707,-3.4726,-3.4746,-3.4746,-3.4316,-3.4082,-3.4082,-3.3652,-3.3418,-3.3418,-3.3418,-3.3418,-3.3418,-3.3418,-3.3418,-3.3418,-3.3418,-3.2949,-3.2248,-3.2229,-3.166,-3.0918,-3.0898,-3.0898,-3.0898,-3.0898,-3.0898,-3.082,-3.0371,-2.9941,-2.9548,-2.9082,-2.8652,-2.8301,-2.8301,-2.8301,-2.8301,-2.8301,-2.8301,-2.8301,-2.8301,-2.8301,-2.8184,-2.7806,-2.7324,-2.6894,-2.6465,-2.6035,-2.5693,-2.5693,-2.5391,-2.4941,-2.4512,-2.4082,-2.3652,-2.3179,-2.3101,0.0,-2.3101,-2.3101,-2.3101,-2.3101,-2.3101,-2.3101,-2.312,-2.3535,-2.3769,-2.3769,-2.375,-2.3555,-2.3057,-2.2629,-2.222,-2.1812,-2.045,-1.9456,-1.879,0.0,0.0,0.0,0.0,0.0,0.0,0.0,0.0,0.0,0.0,0.0,0.0,0.0,0.0,0.0,0.0,0.0,0.0,0.0,0.0,0.0,-2.8681,-2.9794,-3.0056,-3.1702,-3.3086,-3.3594,-3.4473,-3.4902,-3.4531,-3.4414,-3.4394,-3.4512,-3.4844,-3.5078,-3.5195,-3.5488,-3.5664,-3.5664,-3.4922,-3.4531,-3.4531,-3.3789,-3.3418,-3.3418,-3.3418,-3.3418,-3.3418,-3.3418,-3.3418,-3.3418,-3.3418,-3.3125,-3.2598,-3.2285,-3.1836,-3.1309,-3.1016,-3.0898,-3.0898,-3.0898,-3.0898,-3.0879,-3.0742,-3.0215,-2.9551,-2.9434,-2.8887,-2.8301,-2.8301,-2.8301,-2.8301,-2.8301,-2.8301,-2.8301,-2.8301,-2.8301,-2.8105,-2.7363,-2.7109,-2.6816,-2.6025,-2.5771,-2.5693,-2.5693,-2.5596,-2.541,-2.4961,-2.4531,-2.4102,-2.3672,-2.334,0.0,-2.3101,-2.3101,-2.3101,-2.3101,-2.3101,-2.3218,-2.3574,-2.3437,-2.3276,-2.3276,-2.3027,-2.2404,-2.141,-2.1275,-2.063,-1.9384,-1.7825,-1.6845,0.0,0.0,0.0,0.0,0.0,0.0,0.0,0.0,0.0,0.0,0.0,0.0,0.0,0.0,0.0,0.0,0.0,0.0,0.0,0.0,0.0,0.0,-2.9961,-3.1191,-3.1973,-3.3008,-3.4023,-3.4883,-3.5391,-3.5664,-3.5664,-3.541,-3.5254,-3.5254,-3.5508,-3.5664,-3.5664,-3.5879,-3.6016,-3.6016,-3.5156,-3.4707,-3.4707,-3.3848,-3.3418,-3.3418,-3.3418,-3.3418,-3.3418,-3.3418,-3.3418,0.0,-3.3418,-3.3086,-3.2519,-3.2266,-3.1797,0.0,0.0,0.0,0.0,0.0,-3.0898,-3.0898,-3.0898,-3.0312,-2.9626,-2.9626,-2.8984,-2.8301,-2.8301,-2.8301,-2.8301,-2.8301,-2.8301,-2.8301,-2.8301,-2.8301,-2.8125,-2.7441,-2.7148,-2.6836,-2.6152,-2.581,-2.5528,-2.4971,0.0,0.0,-2.3816,-2.4079,-2.4277,-2.3848,-2.3418,-2.3101,-2.3101,-2.3101,-2.3101,-2.3101,-2.3101,-2.3003,-2.2789,-2.2492,0.0,0.0,0.0,-2.0537,-1.9513,-1.9496,0.0,0.0,0.0,0.0,0.0,0.0,0.0,0.0,-1.7297,-1.6699,0.0,0.0,0.0,0.0,0.0,0.0,0.0,0.0,0.0,0.0,0.0,0.0,0.0,0.0,0.0,0.0,-3.1477,-3.2986,-3.4243,-3.4323,-3.4531,-3.5371,-3.5801,-3.6016,-3.6016,-3.6016,-3.6016,-3.6016,-3.6016,-3.6016,-3.6016,0.0,0.0,0.0,0.0,-3.4668,-3.4629,-3.3828,-3.3418,-3.3418,-3.3418,-3.3418,-3.3418,-3.3418,-3.3418,-3.3418,-3.3379,-3.291,-3.2229,-3.2109,-3.1621,-3.0898,-3.0898,-3.0898,-3.0898,-3.0898,-3.0898,-3.0898,-3.0898,0.0,0.0,-2.9626,-2.8984,-2.8301,-2.8301,-2.8301,-2.8301,-2.8301,-2.8174,-2.8067,-2.8067,-2.7906,-2.7665,-2.7256,-2.6801,-2.6417,-2.5937,-2.5534,-2.4922,-2.3683,-2.3484,-2.3067,-2.1895,-2.2967,-2.3863,-2.3499,-2.3038,-2.2687,-2.2687,-2.2687,-2.2687,-2.2687,0.0,0.0,-2.1212,-2.1105,-2.0594,-1.9476,-1.8954,-1.8365,-1.7732,-1.7588,-1.7546,-1.7546,-1.7498,-1.76,-1.7861,-1.7861,-1.7834,-1.7818,-1.5763,-1.5564,0.0,0.0,0.0,0.0,0.0,0.0,0.0,0.0,0.0,0.0,0.0,0.0,0.0,0.0,0.0,-2.9186,-3.0427,-3.1616,-3.2759,-3.4203,-3.5332,-3.584,-3.5976,-3.6016,-3.6016,-3.6016,-3.6016,-3.6016,-3.6016,-3.6016,-3.6016,-3.6016,-3.5859,-3.5527,-3.498,-3.4531,-3.4199,-3.3672,-3.3418,-3.3418,0.0,0.0,-3.3418,-3.3418,-3.3418,-3.3398,-3.3066,-3.2637,-3.2148,-3.1797,-3.1348,-3.0898,-3.0898,-3.0898,-3.0898,-3.0898,-3.0898,-3.0898,-3.0898,-3.0312,-2.9626,-2.9626,-2.8984,-2.8301,-2.8301,-2.8301,0.0,-2.8301,-2.7438,-2.6554,-2.6554,-2.5608,-2.4484,-2.3817,-2.3595,-2.3356,-2.2723,-2.2518,-2.2416,-2.2165,-2.2114,-2.1996,-2.1744,-2.149,-2.1319,-2.1251,-2.0651,-2.0223,-2.0223,-2.0223,-2.0223,-2.0223,-2.0223,-2.0087,-1.9861,-1.9861,-1.9591,-1.9039,-1.7957,-1.7281,-1.716,-1.6323,-1.5854,-1.5854,-1.5648,-1.555,-1.562,-1.562,-1.5746,-1.5969,-1.611,-1.6377,0.0,0.0,0.0,0.0,0.0,0.0,0.0,0.0,0.0,0.0,0.0,-2.8047,-2.9355,0.0,-3.0073,-3.1765,-3.1818,-3.1944,-3.2755,-3.2863,-3.3642,-3.5772,-3.6016,-3.6016,-3.6016,-3.6016,-3.6016,-3.6016,-3.5158,-3.459,-3.459,-3.3541,-3.2842,-3.2661,-3.2047,-3.1649,-3.145,-3.0988,-3.124,-3.2091,-3.2091,-3.2556,-3.3418,-3.3418,-3.3418,-3.3398,-3.2969,-3.2559,-3.217,-3.1465,-3.1074,-3.0898,-3.0898,-3.0898,-3.0898,-3.0898,-3.0392,-2.9648,-2.9648,-2.8563,-2.7236,-2.7236,-2.6695,-2.6045,-2.6045,-2.6045,-2.6045,-2.6045,-2.5498,-2.4931,-2.4931,-2.4378,-2.3585,-2.286,-2.2695,-2.2551,-2.1859,-2.1693,-2.1491,-2.0794,-2.0641,-2.0436,-1.9767,-1.9074,-1.9082,-2.0377,-1.9959,-1.9497,-1.9497,-1.9497,-1.9497,-1.9497,-1.9497,-1.9268,-1.8642,-1.7994,-1.7548,-1.7338,-1.6739,-1.6345,-1.619,-1.5667,-1.5391,-1.5391,-1.5257,-1.5257,-1.5391,-1.5391,-1.5471,-1.5605,-1.5998,-1.619,0.0,0.0,0.0,0.0,0.0,0.0,0.0,-2.7214,-2.7695,-2.8809,-2.918,-2.9824,-3.1562,-3.1983,-3.2527,-3.4027,-3.3322,-3.2701,-3.3116,-3.2158,-3.249,-3.5559,-3.5325,-3.5021,-3.5451,-3.5089,-3.4883,-3.4883,-3.3517,-3.2629,-3.2558,-3.0854,-2.9854,-2.9705,-2.9141,-2.8726,-2.866,-2.8378,-2.9083,-3.0771,-3.0448,-3.1368,-3.3355,-3.2606,-3.2505,-3.2738,-3.1927,-3.1347,-3.091,-3.0246,-2.9962,-2.9962,-2.9962,-2.9962,-3.002,-3.0645,-2.9844,-2.8426,-2.8426,-2.6887,-2.4895,-2.4895,-2.4416,-2.3822,-2.3822,-2.3822,-2.3822,-2.3822,-2.3599,-2.3375,-2.3375,-2.3151,-2.2768,-2.2069,-2.1894,-2.1703,-2.104,-2.088,-2.059,-1.942,-1.9213,-1.8864,-1.7793,-1.7101,-1.7435,-1.9505,-1.9256,-1.8764,-1.8764,-1.8764,-1.8764,-1.8764,-1.8764,-1.8395,-1.7404,-1.6386,-1.5784,-1.5784,-1.5784,-1.5678,-1.5484,-1.5484,-1.5484,-1.5484,-1.5484,-1.5591,-1.5784,-1.5784,-1.5784,-1.5784,-1.5784,-1.5784,-2.3892,-2.2893,-2.3165,-2.5253,-2.5847,-2.6517,0.0,-3.0087,-3.1094,-3.1621,-3.2324,-3.291,-3.3164,-3.2241,-3.1756,-3.2629,-3.2675,-3.2788,-3.3185,-3.4452,-3.5384,-3.5441,-3.2815,-3.1597,-3.3378,-3.1948,-3.0946,-3.0946,-3.0734,-3.053,-3.0282,-3.0007,-2.9622,-2.8908,-2.8808,-2.861,-2.8296,-2.8196,-2.9083,-3.0771,-2.9213,-3.0207,-3.3272,-2.9899,-2.9229,-3.0609,-2.8276,-2.7064,-2.6709,-2.6564,-2.653,-2.653,-2.653,-2.653,-2.6893,-2.9844,-2.9844,-2.8426,-2.8426,-2.6887,-2.4895,-2.4895,-2.4416,-2.3822,-2.3822,-2.3822,-2.3822,-2.3822,-2.287,-2.187,-2.187,-2.0873,-1.9715,-1.9112,-1.8975,-1.8796,-1.8179,-1.8042,-1.7989,-1.7832,-1.7845,-1.7793,-1.7635,-1.7101,-1.68,-1.71,-1.6628,-1.6197,-1.6197,-1.6197,-1.6197,-1.6197,-1.6197,-1.615,-1.6008,-1.5879,-1.5784,-1.5784,-1.5784,-1.5771,-1.5778,-1.5778,-1.5778,-1.5778,-1.5778,-1.5744,-1.5784,-1.5784,-1.5784,-1.5784,-1.5784,-1.5784,-2.4743,-2.431,-2.431,-2.5679,-2.6981,-2.8307,-2.9546,-3.1033,-3.2461,-3.3144,-3.3555,-3.3965,-3.4473,-3.4096,-3.3937,-3.4456,-3.3692,-3.3041,-3.3221,-3.2677,-3.2687,-3.3582,-3.1253,-3.0306,-3.2348,-3.1853,-3.0943,-2.989,-2.8777,-2.8084,-2.8012,-2.6728,-2.5893,-2.5628,-2.5422,-2.5261,-2.5128,-2.5128,-2.5972,-2.7685,-2.6972,-2.7851,-3.0045,-2.8395,-2.7899,-2.8105,-2.7052,-2.6393,-2.5984,-2.5984,-2.5984,-2.5984,-2.5984,-2.5984,-2.6167,-2.7572,-2.703,-2.5635,-2.5635,-2.4081,-2.2156,-2.2156,-2.173,-2.1274,-2.1274,-2.1274,-2.1274,-2.1274,-2.0816,-2.0314,-2.0314,-1.9866,-1.9269,-1.8624,-1.849,-1.8317,-1.7716,-1.7582,-1.7582,-1.7582,-1.7582,-1.7582,-1.7582,-1.7101,-1.67,-1.67,-1.6206,-1.5784,-1.5784,-1.5784,-1.5784,-1.5784,-1.5784,-1.5784,-1.5784,-1.5784,-1.5784,-1.5784,-1.5784,-1.5784,-1.5784,-1.5784,-1.5784,-1.5784,-1.5784,-1.5784,-1.5784,-1.5784,-1.5784,-1.5784,-1.5784,-1.5784,-2.4924,-2.4916,-2.4485,-2.5391,-2.709,-2.8776,-2.9608,-3.1304,-3.2976,-3.4076,-3.4355,-3.459,-3.5098,-3.5195,-3.5351,-3.5781,-3.4713,-3.3822,-3.3932,-3.2396,-3.1665,-3.2826,-3.1336,-3.0386,-3.0764,-3.0644,-2.9783,-2.8,-2.6574,-2.5775,-2.5688,-2.4191,-2.3287,-2.3207,-2.2979,-2.2928,-2.2928,-2.2928,-2.3788,-2.5517,-2.4891,-2.5713,-2.7683,-2.7035,-2.6168,-2.5093,-2.5093,-2.4952,-2.464,-2.464,-2.464,-2.464,-2.464,-2.464,-2.464,-2.464,-2.4224,-2.3574,-2.3574,-2.2115,-2.0167,-2.0167,-1.984,-1.943,-1.943,-1.943,-1.943,-1.943,-1.943,-1.943,-1.943,-1.943,-1.9269,-1.8624,-1.849,-1.8317,-1.7716,-1.7582,-1.7582,-1.7582,-1.7582,-1.7582,-1.7582,-1.7168,-1.6807,-1.6714,-1.6273,-1.5925,-1.5798,-1.5784,-1.5784,-1.5784,-1.5784,-1.5784,-1.5784,-1.5784,-1.5784,-1.5784,-1.5784,-1.5784,-1.5784,-1.5784,-1.5784,-1.5784,-1.5784,-1.5784,-1.5784,-1.5784,-1.5784,-1.5784,-1.5784,-1.5784,-2.3515,-2.2944,-2.2107,-2.3681,-2.5115,-2.6656,-2.8764,-3.0907,-3.2955,-3.4351,-3.5039,-3.5234,-3.4805,-3.4726,-3.4863,-3.5332,-3.5343,-3.548,-3.5889,-3.551,-3.4926,-3.4154,-3.3583,-3.1787,0.0,-2.7009,-2.5889,-2.411,-2.391,-2.3718,-2.3423,-2.3327,-2.3193,-2.2886,-2.2928,-2.2928,-2.2928,-2.2928,-2.3788,-2.5517,-2.3482,-2.4312,-2.7602,-2.531,-2.3209,-2.1249,-2.1249,-2.1235,-2.1235,-2.1235,-2.1235,-2.1235,-2.1235,-2.1235,-2.1235,-2.1235,-2.2278,-2.3574,-2.3574,-2.2115,-2.0167,-2.0167,-1.984,-1.943,-1.943,-1.943,-1.943,-1.943,-1.943,-1.943,-1.943,-1.943,-1.9269,-1.8624,-1.849,-1.8317,-1.7716,-1.7582,-1.7582,-1.7582,-1.7582,-1.7582,-1.7582,-1.738,-1.7085,-1.6754,-1.6446,-1.6152,-1.5824,-1.5784,-1.5784,-1.5784,-1.5784,-1.5784,-1.5784,-1.5784,-1.5784,-1.5784,-1.5784,-1.5784,-1.5784,-1.5784,-1.5784,-1.5784,-1.5784,-1.5784,-1.5784,-1.5784,-1.5784,-1.5784,-1.5784,-1.5784,-2.2072,-2.2282,-2.2418,-2.3598,-2.5308,-2.722,-2.9444,-3.1254,-3.3015,-3.4776,-3.4824,-3.4473,-3.4316,-3.4277,-3.4434,-3.4863,-3.5195,-3.5547,-3.5957,-3.4524,-3.3248,-3.2497,-3.1127,-2.907,-2.6187,0.0,0.0,-2.5095,-2.4919,-2.4876,-2.4761,-2.3694,-2.2966,-2.2928,-2.2928,-2.2928,-2.2928,-2.2928,-2.3093,-2.3414,-2.2401,-2.2483,-2.3609,-2.2617,-2.176,-2.1109,-2.1109,-2.1109,-2.1109,-2.1109,-2.1109,-2.1109,-2.1109,-2.1109,-2.1109,-2.1109,-2.1475,-2.195,-2.1742,-2.104,-2.0201,-2.0013,-1.9679,-1.943,-1.943,-1.943,-1.943,-1.943,-1.943,-1.943,-1.943,-1.943,-1.9269,-1.8624,-1.849,-1.8317,-1.7716,-1.7582,-1.7582,-1.7582,-1.7582,-1.7582,-1.7582,-1.7393,-1.7032,-1.65,-1.6166,-1.5939,-1.5798,-1.5784,-1.5784,-1.5784,-1.5784,-1.5784,-1.5784,-1.5784,-1.5784,-1.5784,-1.5784,-1.5784,-1.5784,-1.5784,-1.5784,-1.5784,-1.5784,-1.5784,-1.5784,-1.5784,-1.5784,-1.5784,-1.5784,-1.5784,-2.2005,-2.2804,-2.3789,-2.3927,-2.5038,-2.6862,-2.9693,-3.0956,-3.2144,-3.4431,-3.4219,-3.3516,-3.3223,-3.3027,-3.3223,-3.4101,-3.395,-3.3965,-3.4907,-3.2907,-3.1143,-3.0597,-2.9142,-2.7338,-2.5267,-2.7503,0.0,-2.4815,-2.5181,-2.5248,-2.4588,-2.3529,-2.2928,-2.2928,-2.2928,-2.2928,-2.2928,-2.2752,-2.2498,-2.2111,-2.1724,-2.1561,-2.139,-2.1203,-2.1109,-2.1109,-2.1109,-2.1109,-2.1109,-2.1109,-2.1109,-2.1109,-2.1109,-2.1109,-2.1109,-2.1109,-2.1109,-2.1069,-2.0775,-2.0481,-2.0187,-1.9893,-1.9599,-1.943,-1.943,-1.943,-1.943,-1.943,-1.943,-1.943,-1.943,-1.943,-1.9269,-1.8624,-1.849,-1.8317,-1.7716,-1.7582,-1.7582,-1.7582,-1.7582,-1.7582,-1.7582,-1.73,-1.6911,-1.6486,-1.6086,-1.5784,-1.5784,-1.5784,-1.5784,-1.5784,-1.5784,-1.5784,-1.5784,-1.5784,-1.5784,-1.5784,-1.5784,-1.5784,-1.5784,-1.5784,-1.5784,-1.5784,-1.5784,-1.5784,-1.5784,-1.5784,-1.5784,-1.5784,-1.5784,-1.5784,-2.3384,-2.4495,-2.6082,-2.4853,-2.4715,-2.5845,-2.9583,-3.0066,-3.0617,-3.3448,-3.3281,-3.2402,-3.1562,-3.1113,-3.1387,-3.2922,-3.1753,-3.1217,-3.278,-3.0754,-2.8933,-2.8539,-2.7785,-2.6644,-2.4973,-2.6117,0.0,-2.3092,0.0,-2.4762,-2.3133,-2.2928,-2.2928,-2.2928,-2.2846,-2.2846,-2.2846,-2.2525,-2.2098,-2.1614,-2.1601,-2.139,-2.1109,-2.1109,-2.1109,-2.1109,-2.1109,-2.1109,-2.1109,-2.1109,-2.1109,-2.1109,-2.1109,-2.1109,-2.1109,-2.1109,-2.1096,-2.1042,-2.0762,-2.0468,-2.0127,-1.988,-1.9586,-1.943,-1.943,-1.943,-1.943,-1.943,-1.943,-1.943,-1.943,-1.943,-1.9269,-1.8624,-1.849,-1.8317,-1.7716,-1.7582,-1.7582,-1.7582,-1.7582,-1.7582,-1.7582,-1.7101,-1.6727,-1.6714,-1.6219,-1.5798,-1.5784,-1.5784,-1.5784,-1.5784,-1.5784,-1.5784,-1.5784,-1.5784,-1.5784,-1.5784,-1.5784,-1.5784,-1.5784,-1.5784,-1.5784,-1.5784,-1.5784,-1.5784,-1.5784,-1.5784,-1.5784,-1.5784,-1.5784,-1.5784,-2.7272,-2.8141,-2.8922,-2.879,-2.8837,-2.9392,-3.1444,-3.1366,-3.1259,-3.284,-3.1914,-3.0703,-3.0156,-3.0234,-3.0296,-3.0063,-3.0592,-3.0986,-3.077,-2.9097,-2.763,-2.6923,-2.5618,-2.4301,-2.3144,-2.4775,-2.5071,0.0,-2.4305,-2.513,-2.4844,-2.3597,-2.2928,-2.2928,-2.2645,-2.2539,-2.2539,-2.2031,-2.1762,-2.1614,-2.1323,-2.1189,-2.1109,-2.1109,-2.1109,-2.1109,-2.1109,-2.1109,-2.1109,-2.1109,-2.1109,-2.1109,-2.1109,-2.1109,-2.1109,-2.1109,-2.0975,-2.0748,-2.0454,-2.0294,-2.0147,-1.9639,-1.9484,-1.943,-1.943,-1.943,-1.943,-1.943,-1.943,-1.943,-1.943,-1.943,-1.9269,-1.8624,-1.849,-1.8317,-1.7716,-1.7582,-1.7582,-1.7582,-1.7582,-1.7582,-1.7582,-1.7326,-1.7018,-1.674,-1.6393,-1.6086,-1.5811,-1.5784,-1.5784,-1.5784,-1.5784,-1.5784,-1.5784,-1.5784,-1.5784,-1.5784,-1.5784,-1.5784,-1.5784,-1.5784,-1.5784,-1.5784,-1.5784,-1.5784,-1.5784,-1.5784,-1.5784,-1.5784,-1.5784,-1.5784,-2.9598,-3.0342,-3.12,-3.0472,-3.0194,-3.0316,-3.1407,-3.1181,-3.082,-3.1301,-3.0449,-2.9453,-2.8848,-2.9082,-2.9484,-2.9739,-2.9564,-2.9526,-2.9771,-2.7646,-2.5884,-2.5412,-2.4313,-2.338,-2.2873,-2.3581,-2.377,0.0,-2.4362,-2.4989,-2.4385,-2.3461,-2.2928,-2.2928,-2.2579,-2.2298,-2.2044,-2.1775,-2.1547,-2.1363,-2.1189,-2.1109,-2.1109,-2.1109,-2.1109,-2.1109,0.0,-2.1109,-2.1109,-2.1109,-2.1109,-2.1109,-2.1109,-2.1109,-2.1109,-2.1109,-2.0922,-2.0628,-2.0334,-2.0147,-1.9973,-1.9519,-1.943,-1.943,-1.943,-1.943,-1.943,-1.943,-1.943,-1.943,-1.943,-1.943,-1.9269,-1.8624,-1.849,-1.8317,-1.7716,-1.7582,-1.7582,-1.7582,-1.7582,-1.7582,-1.7582,-1.7393,-1.7152,-1.6978,-1.6589,-1.6219,-1.6046,-1.5912,-1.5784,-1.5784,-1.5784,-1.5784,-1.5784,-1.5784,-1.5784,-1.5784,-1.5784,-1.5784,-1.5784,-1.5784,-1.5784,-1.5784,-1.5784,-1.5784,-1.5784,-1.5784,-1.5784,-1.5784,-1.5784,-1.5784,-3.1338,-3.2121,-3.317,-3.1456,-3.0713,-3.0446,-3.084,-3.0474,-2.9898,-2.9445,-2.8887,-2.8281,-2.7539,-2.7754,-2.8579,-3.0122,-2.8659,-2.7736,-2.9086,-2.6555,-2.4485,-2.4209,-2.3714,-2.3367,-2.3327,-2.2806,-2.2579,-2.2914,-2.4317,-2.452,-2.2996,-2.2928,-2.2887,-2.2752,-2.2458,-2.2044,-2.1561,-2.1561,-2.1363,-2.1109,-2.1109,-2.1109,-2.1109,-2.1109,-2.1109,-2.1109,0.0,0.0,-2.1109,-2.1109,-2.1109,-2.1109,-2.1109,-2.1109,-2.1109,-2.1069,-2.0869,-2.0575,-2.0281,-1.9987,-1.9706,-1.9511,-1.943,-1.943,-1.943,-1.943,-1.943,-1.943,-1.943,-1.943,-1.943,-1.943,-1.9283,-1.8677,-1.8517,-1.833,-1.7769,-1.7609,-1.7582,-1.7582,-1.7582,-1.7582,-1.7582,-1.742,-1.7246,-1.7206,-1.6737,-1.6313,-1.6273,-1.6019,-1.5784,-1.5784,-1.5784,-1.5784,-1.5784,-1.5784,-1.5784,-1.5784,-1.5784,-1.5784,-1.5784,-1.5784,-1.5784,-1.5784,-1.5784,-1.5784,-1.5784,-1.5784,-1.5784,-1.5784,-1.5784,-1.5784,-3.4997,-3.5237,-3.5451,-3.5089,-3.4431,-3.3584,-3.2598,-3.1238,-2.9775,-2.8306,-2.709,-2.62,-2.6044,-2.6426,-2.6916,-2.7486,-2.8086,-2.8103,-2.71,-2.6606,-2.5798,-2.434,-2.3901,-2.3594,-2.3354,-2.2993,-2.2806,0.0,-2.3201,-2.3188,-2.2928,-2.2928,-2.2645,-2.2151,-2.1857,-2.1537,-2.1189,-2.1189,-2.1162,-2.1109,-2.1109,-2.1109,-2.1109,-2.1109,-2.1109,-2.1109,-2.1109,0.0,-2.1109,-2.1109,-2.1109,-2.1109,-2.1109,-2.1109,-2.1082,-2.0842,-2.0561,-2.0267,-1.9973,-1.9679,-1.9439,-1.9444,-1.943,-1.943,-1.943,-1.943,-1.943,-1.943,-1.943,-1.943,-1.943,-1.943,-1.9279,-1.8931,-1.8664,-1.8397,-1.7982,-1.7769,-1.7582,-1.7582,-1.7582,-1.7582,-1.7582,-1.7542,-1.7474,-1.7233,-1.686,-1.654,-1.6348,-1.6019,-1.5784,-1.5784,-1.5784,-1.5784,-1.5784,-1.5784,-1.5784,-1.5784,-1.5784,-1.5784,-1.5784,-1.5784,-1.5784,-1.5784,-1.5784,-1.5784,-1.5784,-1.5784,-1.5784,-1.5784,-1.5784,-1.5784,-3.5957,-3.6191,-3.6309,-3.6074,-3.5195,-3.3926,-3.2207,-3.0625,-2.8926,-2.6808,-2.582,-2.5312,-2.5098,-2.5781,-2.6601,-2.7225,-2.7498,-2.7496,-2.6956,-2.6133,-2.5221,-2.413,-2.3714,-2.3487,-2.334,-2.3046,-2.2928,-2.2928,-2.2928,-2.2928,-2.2928,-2.2712,-2.2365,-2.1777,-2.1695,-2.1403,-2.1109,-2.1109,-2.1109,-2.1109,-2.1109,-2.1109,-2.1109,-2.1109,-2.1109,-2.1109,-2.1109,0.0,-2.1096,-2.0949,-2.0975,-2.1096,-2.0949,-2.0975,-2.1069,-2.0788,-2.0494,-2.0187,-1.9907,-1.9613,-1.943,-1.943,-1.943,-1.943,-1.943,-1.943,-1.943,-1.943,-1.943,-1.943,-1.943,-1.943,-1.9292,-1.8998,-1.8584,-1.8183,-1.7876,-1.7689,-1.7582,-1.7582,-1.7582,-1.7582,-1.7582,-1.7582,-1.7542,-1.7447,-1.7128,-1.6887,-1.6804,-1.6339,-1.6005,-1.5798,-1.5784,-1.5784,-1.5784,-1.5784,-1.5784,-1.5784,-1.5784,-1.5784,-1.5784,-1.5784,-1.5784,-1.5784,-1.5784,-1.5784,-1.5784,-1.5784,-1.5784,-1.5784,-1.5784,-1.5784,-3.5976,-3.6269,-3.6445,-3.6094,-3.4961,-3.3398,-3.1348,-2.9648,-2.7832,-2.543,-2.4785,-2.457,-2.4336,-2.5137,-2.6211,-2.7344,-2.721,-2.6941,-2.706,-2.5916,-2.4727,-2.3779,-2.3474,-2.3327,-2.3327,-2.3046,-2.2928,-2.2928,-2.2806,0.0,-2.2766,-2.2485,-2.2084,-2.1641,-2.1561,-2.1349,-2.1109,-2.1109,-2.1109,-2.1109,-2.1109,-2.1109,-2.1109,-2.1109,-2.1109,-2.1109,-2.1109,0.0,0.0,-2.0775,-2.0775,-2.0895,-2.0668,-2.0722,-2.0882,-2.0601,-2.0347,-2.0094,-1.9813,-1.9559,-1.943,-1.943,-1.943,-1.943,-1.943,-1.943,-1.943,-1.943,-1.943,-1.943,-1.943,-1.943,-1.9292,-1.8998,-1.8462,-1.8063,-1.7742,-1.7622,-1.7582,-1.7582,-1.7582,-1.7582,-1.7582,-1.7582,-1.7582,-1.7582,-1.7393,-1.7206,-1.7206,-1.6737,-1.6246,-1.5952,-1.5824,-1.5784,-1.5784,-1.5784,-1.5784,-1.5784,-1.5784,-1.5784,-1.5784,-1.5784,-1.5784,-1.5784,-1.5784,-1.5784,-1.5784,-1.5784,-1.5784,-1.5784,-1.5784,-1.5784,-3.5801,-3.6055,-3.6074,-3.6035,-3.4746,-3.3027,-3.1289,-2.8965,-2.668,-2.4844,-2.3822,-2.3374,-2.3789,-2.3945,-2.4687,-2.6738,-2.7344,-2.7307,-2.6438,-2.676,-2.6141,-2.3635,-2.334,-2.3327,-2.3327,-2.3046,-2.2928,-2.2928,-2.2605,0.0,-2.2458,-2.2191,-2.1884,-2.1628,-2.1296,-2.1136,-2.1109,-2.1109,-2.1109,-2.1109,-2.1109,-2.1109,-2.1109,-2.1109,-2.1109,-2.1109,-2.1109,0.0,0.0,-2.0681,-2.0535,-2.0307,-2.0281,-2.0233,-2.0281,-1.9987,-1.9867,-1.98,-1.9506,-1.9444,-1.943,-1.943,-1.943,-1.943,-1.943,-1.943,-1.943,-1.943,-1.943,-1.943,-1.943,-1.943,-1.9292,-1.8998,-1.8677,-1.837,-1.8009,-1.7782,-1.7582,-1.7582,-1.7582,-1.7582,-1.7582,-1.7582,-1.7582,-1.7582,-1.7393,-1.7206,-1.7206,-1.686,-1.6553,-1.6259,-1.5992,-1.5784,-1.5784,-1.5784,-1.5784,-1.5784,-1.5784,-1.5784,-1.5784,-1.5784,-1.5784,-1.5784,-1.5784,-1.5784,-1.5784,-1.5784,-1.5784,-1.5784,-1.5784,-1.5784,-3.541,-3.6016,-3.6289,-3.5781,-3.4531,-3.291,-3.0937,-2.8691,-2.6523,-2.4766,-2.3686,-2.314,-2.3315,-2.3613,-2.4238,-2.5625,-2.5996,-2.5783,-2.4787,-2.4805,-2.4285,-2.2508,-2.2418,-2.2659,-2.3006,-2.2939,-2.2792,-2.2605,-2.2485,0.0,-2.1924,-2.179,-2.159,-2.1296,-2.1176,-2.1109,-2.1109,-2.1109,-2.1109,-2.1109,-2.1109,-2.1109,-2.1109,-2.1109,-2.1109,-2.1096,-2.0922,0.0,0.0,-2.0294,-2.0187,-2.0153,-2.004,-2.008,-2.0201,-1.9907,-1.98,-1.976,-1.9466,-1.943,-1.943,-1.943,-1.943,-1.943,-1.943,-1.943,-1.943,-1.943,-1.943,-1.943,-1.943,-1.943,-1.9292,-1.8998,-1.8704,-1.841,-1.8049,-1.7809,-1.7582,-1.7582,-1.7582,-1.7582,-1.7582,-1.7582,-1.7582,-1.7582,-1.7488,-1.746,-1.746,-1.7206,-1.686,-1.6567,-1.6273,-1.6019,-1.5798,-1.5784,-1.5784,-1.5784,-1.5784,-1.5784,-1.5784,-1.5784,-1.5784,-1.5784,-1.5784,-1.5912,-1.6099,-1.6099,-1.6179,-1.6353,-1.6179,-1.6192,-3.4687,-3.5527,-3.5937,-3.5332,-3.4101,-3.2559,-3.0606,-2.8457,-2.6406,-2.4922,-2.3783,-2.314,-2.3257,-2.3477,-2.3848,-2.457,-2.4553,-2.4165,-2.3331,-2.3063,-2.2549,-2.133,-2.1496,-2.1924,-2.2499,-2.278,-2.2739,-2.2445,-2.2338,0.0,-2.1641,-2.1534,-2.1323,-2.1122,-2.1109,-2.1109,-2.1109,-2.1109,-2.1109,-2.1109,-2.1109,-2.1109,-2.1109,-2.1109,-2.1069,-2.0962,0.0,0.0,0.0,-1.9973,-1.9867,-1.996,-1.976,-1.98,-1.9947,-1.9746,-1.9679,-1.9639,-1.9497,-1.943,-1.943,-1.943,-1.943,-1.943,-1.943,-1.943,-1.943,-1.943,-1.943,-1.943,-1.943,-1.943,-1.9319,-1.9105,-1.8838,-1.8531,-1.8237,-1.7943,-1.7689,-1.7595,-1.7582,-1.7582,-1.7582,-1.7582,-1.7582,-1.7582,-1.7582,-1.7582,-1.7582,-1.746,-1.7219,-1.6874,-1.671,-1.6339,-1.5824,-1.5912,-1.5925,-1.5784,-1.5912,-1.5925,-1.5784,-1.5784,-1.5872,-1.5965,-1.5965,-1.6099,-1.6393,-1.6393,-1.6513,-1.67,-1.65,-1.6513,-3.3633,-3.4394,-3.4726,-3.4707,-3.3437,-3.1836,-3.0508,-2.8223,-2.6133,-2.5302,-2.4043,-2.3218,-2.3711,-2.3437,-2.3257,-2.373,-2.3355,-2.286,-2.2405,-2.2127,-2.1568,-2.0382,-2.0762,-2.1229,-2.1601,-2.2418,-2.2739,-2.2445,-2.2151,0.0,-2.1628,-2.1269,-2.1109,-2.1109,-2.1109,-2.1109,-2.1109,-2.1109,-2.1109,-2.1109,-2.1109,-2.1109,-2.1109,-2.1109,-2.0949,0.0,0.0,0.0,0.0,-1.98,-1.9639,-1.943,-1.943,-1.943,-1.943,-1.943,-1.943,-1.943,-1.943,-1.943,-1.943,-1.943,-1.943,-1.943,-1.943,-1.943,-1.943,-1.943,-1.943,-1.943,-1.943,-1.943,-1.943,-1.9417,-1.9132,-1.8838,-1.8544,-1.825,-1.7902,-1.7649,-1.7582,-1.7582,-1.7582,-1.7582,-1.7582,-1.7582,-1.7582,-1.7582,-1.7582,-1.7582,-1.7462,-1.7233,-1.7192,-1.6831,-1.5899,-1.6099,-1.6139,-1.5798,-1.6112,-1.6139,-1.5798,-1.5784,-1.5965,-1.6308,-1.6273,-1.6406,-1.67,-1.67,-1.67,-1.67,-1.67,-1.67,-3.166,-3.2637,-3.3105,-3.1914,-3.1465,-3.0801,-2.8906,-2.7383,-2.6055,-2.4863,-2.3828,-2.314,-2.3276,-2.3198,-2.3432,-2.4492,-2.4553,-2.4012,-2.2759,-2.2869,-2.2348,-2.0402,-2.1283,-2.2124,-2.2485,0.0,-2.2659,-2.2164,0.0,0.0,-2.1269,-2.1162,-2.1109,-2.1109,-2.1109,-2.1109,-2.1109,-2.1109,-2.1109,-2.1109,-2.1109,-2.1002,-2.0815,-2.0815,0.0,0.0,0.0,0.0,0.0,-1.9586,-1.9511,-1.943,-1.943,-1.943,-1.943,-1.943,-1.943,-1.943,-1.943,-1.943,-1.943,-1.943,-1.943,-1.943,-1.943,-1.943,-1.943,-1.943,-1.943,-1.943,-1.943,-1.943,-1.943,-1.943,-1.9145,-1.8838,-1.8557,-1.8263,-1.7902,-1.7649,-1.7582,-1.7582,-1.7582,-1.7582,-1.7582,-1.7582,-1.7582,-1.7582,-1.7582,-1.7582,-1.7527,-1.7233,-1.7206,-1.7005,-1.6473,-1.6513,-1.6526,-1.6433,-1.6513,-1.6526,-1.6433,-1.6433,-1.6473,-1.6567,-1.6567,-1.6714,-1.7058,-1.7058,-1.7058,-1.7058,-1.7208,-1.7194,-3.0137,-3.1094,-3.1562,-3.0469,-3.0176,-2.9707,-2.8047,-2.6738,-2.5664,-2.4824,-2.3848,-2.314,-2.3315,-2.3198,-2.3221,-2.3583,-2.3495,-2.2872,-2.1631,-2.1682,-2.1463,-2.0476,-2.1296,-2.2084,0.0,-2.2632,-2.2498,-2.2017,0.0,0.0,-2.1136,-2.1109,-2.1109,-2.1109,-2.1109,-2.1109,-2.1109,-2.1109,-2.1109,-2.1109,-2.1002,-2.0855,-2.0668,-2.0561,0.0,0.0,0.0,0.0,0.0,-1.9439,-1.943,-1.943,-1.943,-1.943,-1.943,-1.943,-1.943,-1.943,-1.943,-1.943,-1.943,-1.943,-1.943,-1.943,-1.943,-1.943,-1.943,-1.943,-1.943,-1.943,-1.943,-1.943,-1.943,-1.943,-1.9145,-1.8838,-1.8557,-1.8263,-1.7902,-1.7649,-1.7582,-1.7582,-1.7582,-1.7582,-1.7582,-1.7582,-1.7582,-1.7582,-1.7582,-1.7582,-1.7515,-1.738,-1.7367,-1.7286,-1.7048,-1.6941,-1.682,-1.6714,-1.6807,-1.682,-1.6714,-1.67,-1.6754,-1.6874,-1.6874,-1.7021,-1.7367,-1.7367,-1.7367,-1.7367,-1.7502,-1.7488,0.0,-2.9668,-3.0,-2.9902,-2.9336,-2.8555,-2.7728,-2.628,0.0,-2.5047,-2.4004,-2.3237,-2.3615,-2.326,-2.2618,-2.1491,-2.0866,-2.0262,-1.9612,-1.9208,-1.9479,-2.0628,-2.1029,-2.143,-2.1991,-2.2271,-2.2298,0.0,0.0,0.0,-2.1122,-2.1109,-2.1109,-2.1109,-2.1109,-2.1109,-2.1109,-2.1109,-2.1109,-2.1109,-2.0815,-2.0668,-2.0641,-2.0334,0.0,0.0,0.0,0.0,0.0,-1.943,-1.943,-1.943,-1.943,-1.943,-1.943,-1.943,-1.943,-1.943,-1.943,-1.943,-1.943,-1.943,-1.943,-1.943,-1.943,-1.943,-1.943,-1.943,-1.943,-1.943,-1.943,-1.943,-1.943,-1.943,-1.9158,-1.8865,-1.8557,-1.8277,-1.7929,-1.7649,-1.7582,-1.7582,-1.7582,-1.7582,-1.7582,-1.7582,-1.7582,-1.7582,-1.7582,-1.7582,-1.7582,-1.7582,-1.7582,-1.7582,-1.7582,-1.7393,-1.7112,-1.678,-1.7072,-1.7112,-1.678,-1.6767,-1.6901,-1.7233,-1.7233,-1.7367,-1.7582,-1.7582,-1.7582,-1.7582,-1.7582,-1.7582,-2.6934,0.0,-2.8027,-2.7031,-2.7078,-2.7148,0.0,-2.5399,-2.493,-2.4219,-2.3574,-2.3005,-2.263,-2.2108,-2.1699,-2.165,-2.1478,-2.1151,-2.0499,-2.0326,-2.0615,-2.1563,-2.1937,-2.2258,-2.2619,-2.2512,-2.2298,0.0,0.0,-2.143,-2.1122,-2.1109,-2.1109,-2.1109,-2.1109,-2.1109,-2.1109,-2.1109,-2.1109,-2.1109,-2.0815,-2.0561,-2.0321,-2.004,0.0,0.0,0.0,0.0,-1.943,-1.943,-1.943,-1.943,-1.943,-1.943,-1.943,-1.943,-1.943,-1.943,-1.943,-1.943,-1.943,-1.943,-1.943,-1.943,-1.943,-1.943,-1.943,-1.943,-1.943,-1.943,-1.943,-1.943,-1.943,-1.943,-1.9319,-1.9118,-1.8597,-1.8437,-1.8223,-1.7689,-1.7582,-1.7582,-1.7582,-1.7582,-1.7582,-1.7582,-1.7582,-1.7582,-1.7582,-1.7582,-1.7582,-1.7582,-1.7582,-1.7582,-1.7582,-1.7515,-1.7448,-1.7382,-1.7435,-1.7448,-1.7382,-1.7382,-1.7408,-1.7475,-1.7527,-1.7515,-1.7582,-1.7582,-1.7582,-1.7582,-1.7582,-1.7582,-2.6035,-2.6719,-2.7207,-2.6504,-2.6523,-2.6484,-2.5586,-2.4902,-2.4355,-2.3887,-2.2974,-2.2162,-2.1833,-2.1186,-2.0556,-2.0259,-2.0487,-2.0588,-2.05,-2.0731,-2.1203,-2.2084,-2.2325,-2.2485,0.0,-2.2392,-2.2098,0.0,0.0,-2.1283,-2.1122,-2.1109,-2.1109,-2.1109,-2.1109,-2.1109,-2.1109,-2.1109,-2.1042,-2.0909,-2.0615,-2.0321,-2.0027,-1.9733,-1.9519,0.0,0.0,0.0,-1.943,-1.943,-1.943,-1.943,-1.943,-1.943,-1.943,-1.943,-1.943,-1.943,-1.943,-1.943,-1.943,-1.943,-1.943,-1.943,-1.943,-1.943,-1.943,-1.943,-1.943,-1.943,-1.943,-1.943,-1.943,-1.943,-1.9265,-1.9038,-1.8584,-1.8384,-1.8143,-1.7675,-1.7582,-1.7582,-1.7582,-1.7582,-1.7582,-1.7582,-1.7582,-1.7582,-1.7582,-1.7582,-1.7582,-1.7582,-1.7582,-1.7582,-1.7582,-1.7582,-1.7582,-1.7582,-1.7582,-1.7582,-1.7582,-1.7582,-1.7582,-1.7582,-1.7582,-1.7582,-1.7582,-1.7582,-1.7582,-1.7582,-1.7582,-1.7582,-2.5849,-2.6303,-2.6743,-2.6773,-2.6602,-2.62,-2.545,-2.4437,-2.3563,-2.3248,-2.2107,-2.1121,-2.101,-2.0352,-1.9509,-1.8646,-1.8993,-1.9633,-2.0241,-2.0842,-2.1483,-2.2325,-2.2458,0.0,-2.2418,-2.2151,0.0,0.0,0.0,-2.1109,-2.1109,-2.1109,-2.1109,-2.1109,-2.1109,-2.1082,-2.1042,-2.1042,-2.0922,-2.0668,-2.0334,-2.004,-1.9786,-1.9506,-1.943,0.0,0.0,0.0,-1.943,-1.943,-1.943,-1.943,-1.943,-1.943,-1.943,-1.943,-1.943,-1.943,-1.943,-1.943,-1.943,-1.943,-1.943,-1.943,-1.943,-1.943,-1.943,-1.943,-1.943,-1.943,-1.943,-1.943,-1.943,-1.943,-1.9172,-1.8905,-1.8624,-1.833,-1.7969,-1.7716,-1.7609,-1.7582,-1.7582,-1.7582,-1.7582,-1.7582,-1.7582,-1.7582,-1.7582,-1.7582,-1.7582,-1.7582,-1.7582,-1.7582,-1.7582,-1.7582,-1.7582,-1.7582,-1.7582,-1.7582,-1.7582,-1.7582,-1.7582,-1.7582,-1.7582,-1.7582,-1.7582,-1.7582,-1.7582,-1.7582,-1.7582,-1.7582,-2.6621,-2.6149,-2.5546,-2.5844,-2.6152,-2.5875,-2.3846,-2.3244,-2.2613,-2.0861,-2.0506,-2.0311,-1.9494,-1.9431,-1.925,-1.8604,-1.8984,-1.9766,-2.0802,-2.1269,-2.1724,-2.2338,0.0,-2.2699,-2.2445,0.0,0.0,0.0,0.0,-2.1109,-2.1109,-2.1109,-2.1109,-2.1109,-2.1109,-2.0989,-2.0748,-2.0735,-2.0722,-2.0668,-2.012,-1.984,-1.9786,-1.9506,-1.943,0.0,0.0,-1.943,-1.943,-1.943,-1.943,-1.943,-1.943,-1.943,-1.943,-1.943,-1.943,-1.943,-1.943,-1.943,-1.943,-1.943,-1.943,-1.943,-1.943,-1.943,-1.943,-1.943,-1.943,-1.943,-1.943,-1.943,-1.943,-1.943,-1.9332,-1.9225,-1.8918,-1.8624,-1.833,-1.7982,-1.7756,-1.7582,-1.7582,-1.7582,-1.7582,-1.7582,-1.7582,-1.7582,-1.7582,-1.7582,-1.7582,-1.7582,-1.7582,-1.7582,-1.7582,-1.7582,-1.7582,-1.7582,-1.7582,-1.7582,-1.7582,-1.7582,-1.7582,-1.7582,-1.7582,-1.7582,-1.7582,-1.7582,-1.7582,-1.7582,-1.7582,-1.7582,-2.5918,-2.5333,-2.4744,-2.4707,-2.463,-2.4244,-2.2997,-2.24,-2.181,-2.0868,-2.0257,-1.9729,-1.9286,-1.9065,-1.9015,-1.9336,-2.0067,-2.0788,-2.1483,-2.183,-2.2178,0.0,0.0,-2.2512,-2.2218,0.0,0.0,0.0,0.0,0.0,-2.1109,-2.1109,-2.1042,-2.0882,-2.0869,-2.0735,-2.0441,-2.0281,-2.0201,-2.0201,-1.9933,-1.972,-1.9559,-1.9484,-1.943,-1.943,0.0,-1.943,-1.943,-1.943,-1.943,-1.943,-1.943,-1.943,-1.943,-1.943,-1.943,-1.943,-1.943,-1.943,-1.943,-1.943,-1.943,-1.943,-1.943,-1.943,-1.943,-1.943,-1.943,-1.943,-1.943,-1.943,-1.943,-1.943,-1.943,-1.9292,-1.8985,-1.8824,-1.8584,-1.8075,-1.7916,-1.7822,-1.7836,-1.7689,-1.7635,-1.7809,-1.7689,-1.7582,-1.7582,-1.7582,-1.7582,-1.7582,-1.7582,-1.7582,-1.7582,-1.7582,-1.7582,-1.7582,-1.7582,-1.7582,-1.7582,-1.7582,-1.7582,-1.7582,-1.7582,-1.7582,-1.7582,-1.7582,-1.7582,-1.7582,-1.7582,-1.7582,-2.5025,-2.4157,-2.3306,-2.3238,-2.3001,-2.2738,-2.2407,-2.1772,-2.1122,-2.0903,-2.0151,-1.9405,-1.9242,-1.8988,-1.9158,-2.0254,-2.1069,-2.1748,-2.2031,-2.2271,-2.2525,-2.2887,-2.2605,-2.2298,0.0,0.0,0.0,0.0,0.0,0.0,-2.1109,-2.1042,-2.0909,-2.0681,-2.0615,-2.0428,-2.0134,-1.9907,-1.98,-1.98,-1.9733,-1.9586,-1.943,-1.943,-1.943,-1.943,-1.943,-1.943,-1.943,-1.943,-1.943,-1.943,-1.943,-1.943,-1.943,-1.943,-1.943,-1.943,-1.943,-1.943,-1.943,-1.943,-1.943,-1.943,-1.943,-1.943,-1.943,-1.943,-1.943,-1.943,-1.943,-1.943,-1.943,-1.943,-1.943,-1.9305,-1.9078,-1.8971,-1.8715,-1.8195,-1.8143,-1.8103,-1.7995,-1.7903,-1.7876,-1.8116,-1.7943,-1.7796,-1.7796,-1.7729,-1.7689,-1.7689,-1.7622,-1.7582,-1.7582,-1.7582,-1.7582,-1.7582,-1.7582,-1.7582,-1.7582,-1.7582,-1.7582,-1.7582,-1.7582,-1.7582,-1.7582,-1.7582,-1.7582,-1.7582,-1.7582,-1.7582,-2.445,-2.2517,-2.0514,-2.1018,-2.1746,-2.2262,-2.1919,-2.1338,-2.0633,-1.9731,-1.9685,-1.9502,-1.8682,-1.9176,-2.0,-2.0895,-2.1336,-2.175,-2.2311,0.0,-2.2525,-2.2887,-2.2605,-2.2298,0.0,0.0,0.0,0.0,0.0,0.0,-2.1109,-2.0855,-2.0695,-2.0681,-2.0414,-2.012,-1.9826,-1.9813,-1.98,-1.98,-1.9533,-1.9444,-1.943,-1.943,-1.943,-1.943,-1.943,-1.943,-1.943,-1.943,-1.943,-1.943,-1.943,-1.943,-1.943,-1.943,-1.943,-1.943,-1.943,-1.943,-1.943,-1.943,-1.943,-1.943,-1.943,-1.943,-1.943,-1.943,-1.943,-1.943,-1.943,-1.943,-1.943,-1.943,-1.943,-1.9417,-1.9345,-1.9118,-1.8824,-1.8517,-1.8464,-1.837,-1.8035,-1.8263,-1.8437,-1.845,-1.8437,-1.8424,-1.8424,-1.8183,-1.7955,-1.7955,-1.7756,-1.7582,-1.7582,-1.7582,-1.7582,-1.7582,-1.7582,-1.7582,-1.7582,-1.7582,-1.7582,-1.7582,-1.7582,-1.7582,-1.7582,-1.7582,-1.7582,-1.7582,-1.7582,-1.7582,-2.3359,-2.1743,-2.0151,-2.0232,-2.02,-2.0267,-2.0522,-2.05,-2.0433,-2.0469,-2.0535,-2.0454,-1.9947,-2.0267,-2.0788,-2.1296,-2.1777,-2.2231,-2.2632,-2.2699,-2.2672,-2.2592,-2.2325,0.0,0.0,0.0,0.0,0.0,0.0,0.0,-2.1109,-2.0842,-2.0588,-2.0401,-2.012,-1.9826,-1.9533,-1.9533,-1.9533,-1.9533,-1.9426,-1.943,-1.943,-1.943,-1.943,-1.943,-1.943,-1.943,-1.943,-1.943,-1.943,-1.943,-1.943,-1.943,-1.943,-1.943,-1.943,-1.943,-1.943,-1.943,-1.943,-1.943,-1.943,-1.943,-1.943,-1.943,-1.943,-1.943,-1.943,-1.943,-1.943,-1.943,-1.943,-1.943,-1.943,-1.943,-1.943,-1.85,-1.793,-1.8585,-1.7943,-1.751,-1.8387,-1.8531,-1.8557,-1.8731,-1.8611,-1.849,-1.849,-1.8397,-1.833,-1.833,-1.805,-1.7796,-1.7595,-1.7582,-1.7582,-1.7582,-1.7582,-1.7582,-1.7582,-1.7582,-1.7582,-1.7582,-1.7582,-1.7582,-1.7582,-1.7582,-1.7582,-1.7582,-1.7582,-1.7582,-2.1634,-2.0316,-1.917,-1.9165,-1.9057,-1.9118,-1.9907,-2.0227,-2.0588,-2.1363,-2.1229,-2.0935,-2.0828,-2.0828,-2.0989,-2.1534,-2.1964,-2.2378,-2.2686,-2.2726,-2.2619,-2.2311,-2.2031,0.0,0.0,0.0,0.0,0.0,0.0,0.0,0.0,-2.0695,-2.0401,-2.0107,-1.9813,-1.9573,-1.943,-1.943,-1.943,-1.943,-1.943,-1.943,-1.943,-1.943,-1.943,-1.943,-1.943,-1.943,-1.943,-1.943,-1.943,-1.943,-1.943,-1.943,-1.943,-1.943,-1.943,-1.943,-1.943,-1.943,-1.943,-1.943,-1.943,-1.943,-1.943,-1.9068,-1.8648,-1.8648,-1.8286,-1.7877,-1.7877,-1.8648,-1.9243,-1.8765,-1.901,-1.9243,-1.8765,-1.7806,-1.7066,-1.7334,-1.7002,-1.6968,-1.7995,-1.8486,-1.8838,-1.9038,-1.8891,-1.8771,-1.8771,-1.8691,-1.8557,-1.837,-1.8115,-1.7862,-1.7609,-1.7582,-1.7582,-1.7582,-1.7582,-1.7582,-1.7582,-1.7582,-1.7582,-1.7582,-1.7582,-1.7582,-1.7582,-1.7582,-1.7582,-1.7582,-1.7689,-1.7729,-1.9265,-1.796,-1.7273,-1.7515,-1.8263,-1.9239,-2.0414,-2.0681,-2.1015,-2.2178,-2.1496,-2.0775,-2.1069,-2.0641,-2.0535,-2.1467,-2.179,-2.2084,-2.2378,-2.2418,-2.2311,-2.2017,-2.1724,0.0,0.0,0.0,0.0,0.0,0.0,0.0,0.0,-2.0388,-2.0094,-1.9813,-1.9519,-1.943,-1.943,-1.943,-1.943,-1.943,-1.943,-1.943,-1.943,-1.943,-1.943,-1.943,-1.943,-1.943,-1.943,-1.943,-1.943,-1.943,-1.943,-1.943,-1.943,-1.943,-1.943,-1.943,-1.943,-1.943,-1.943,-1.943,-1.943,-1.943,-1.943,-1.8286,-1.702,-1.702,-1.5843,-1.4599,-1.4599,-1.6985,-1.901,-1.7384,-1.8227,-1.8939,-1.7325,-1.6962,-1.6412,-1.4586,-1.5726,-1.6879,-1.6563,-1.8096,-1.943,-1.943,-1.943,-1.943,-1.943,-1.9105,-1.8648,-1.8062,-1.7995,-1.7929,-1.7609,-1.7582,-1.7582,-1.7582,-1.7582,-1.7582,-1.7582,-1.7582,-1.7582,-1.7582,-1.7582,-1.7582,-1.7582,-1.7582,-1.7582,-1.7595,-1.7903,-1.7995,-1.8626,-1.7946,-1.7528,-1.7836,-1.8878,-2.0094,-2.1069,-2.136,-2.1628,-2.2539,-2.2285,-2.1804,-2.1483,-2.1283,-2.1176,-2.1229,-2.1483,-2.1777,-2.2071,-2.2111,-2.2004,-2.1775,0.0,0.0,0.0,0.0,0.0,0.0,0.0,0.0,0.0,-2.0201,-1.9893,-1.98,-1.9519,-1.943,-1.943,-1.943,-1.943,-1.943,-1.943,-1.943,-1.943,-1.943,-1.943,-1.943,-1.943,-1.943,-1.943,-1.943,-1.943,-1.943,-1.943,-1.943,-1.943,-1.943,-1.943,-1.943,-1.943,-1.943,-1.943,-1.943,-1.943,-1.943,-1.943,-1.8286,-1.702,-1.702,-1.5843,-1.4361,-1.3228,-1.5311,-1.756,-1.7091,-1.8227,-1.8939,-1.7325,-1.6138,-1.5171,-1.4567,-1.4903,-1.5644,-1.6693,-1.8293,-1.943,-1.943,-1.943,-1.943,-1.943,-1.9292,-1.9092,-1.8704,-1.8477,-1.8237,-1.7916,-1.7702,-1.7582,-1.7582,-1.7582,-1.7582,-1.7582,-1.7582,-1.7582,-1.7582,-1.7582,-1.7582,-1.7582,-1.7582,-1.7702,-1.7862,-1.7955,-1.8102,-1.818,-1.7867,-1.7889,-1.8437,-1.9412,-2.0521,-2.1643,-2.1991,-2.2284,-2.282,-2.2539,-2.2178,-2.1937,-2.1617,-2.139,-2.1443,-2.151,-2.1681,-2.179,-2.1817,-2.1697,-2.1416,0.0,0.0,0.0,0.0,0.0,0.0,0.0,0.0,0.0,-2.0054,-1.9746,-1.9626,-1.9452,-1.943,-1.943,-1.943,-1.943,-1.943,-1.943,-1.943,-1.943,-1.943,-1.943,-1.943,-1.943,-1.943,-1.943,-1.943,-1.943,-1.943,-1.943,-1.943,-1.943,-1.943,-1.943,-1.943,-1.943,-1.943,-1.943,-1.943,-1.943,-1.9301,-1.8648,-1.7325,-1.5902,-1.5241,-1.3944,-1.2449,-1.1495,-1.3168,-1.5063,-1.5063,-1.6797,-1.7806,-1.5596,-1.4361,-1.3467,-1.2808,-1.3228,-1.4183,-1.5784,-1.7384,-1.8648,-1.9301,-1.943,-1.943,-1.943,-1.943,-1.9252,-1.8958,-1.8771,-1.8531,-1.8237,-1.805,-1.7889,-1.7769,-1.7769,-1.7716,-1.7582,-1.7582,-1.7582,-1.7582,-1.7582,-1.7582,-1.7582,-1.7582,-1.7742,-1.7995,-1.8115,-1.8384,-1.7787,-1.7769,-1.8263,-1.9145,-1.988,-2.0748,-2.2138,-2.2672,-2.2928,-2.2928,-2.2432,-2.2124,-2.2338,-2.1724,-2.1349,-2.183,-2.1683,-2.1574,-2.1574,-2.1574,-2.1416,-2.1149,0.0,0.0,0.0,0.0,0.0,0.0,0.0,0.0,0.0,-1.992,-1.9639,-1.943,-1.943,-1.943,-1.943,-1.943,-1.943,0.0,-1.943,-1.943,-1.943,-1.943,-1.943,-1.943,-1.943,-1.943,-1.943,-1.943,-1.943,-1.943,-1.943,-1.943,-1.943,-1.943,-1.943,-1.943,-1.943,-1.943,-1.9372,-1.9243,-1.9185,-1.8881,-1.7267,-1.5666,-1.4063,-1.2637,-1.102,-0.9822,-0.9822,-1.102,-1.2157,-1.2037,-1.4411,-1.5961,-1.2868,-1.2217,-1.1736,-1.0119,-1.108,-1.2689,-1.4302,-1.5902,-1.756,-1.9185,-1.943,-1.943,-1.943,-1.943,-1.9265,-1.8998,-1.8945,-1.8811,-1.8557,-1.8504,-1.837,-1.8049,-1.8035,-1.7956,-1.7675,-1.7609,-1.7582,-1.7582,-1.7582,-1.7582,-1.7582,-1.7582,-1.7756,-1.8035,-1.837,-1.8664,-1.6975,-1.7448,-1.8237,-1.9145,-2.0494,-2.1817,-2.2592,-2.2819,-2.2928,-2.2928,-2.2834,-2.2552,-2.2151,-2.1924,-2.1683,-2.1349,-2.1243,-2.1203,-2.1203,-2.1203,-2.1176,0.0,0.0,0.0,0.0,0.0,0.0,0.0,0.0,0.0,-1.9907,-1.9626,-1.9439,-1.943,-1.943,-1.943,-1.943,-1.943,-1.943,0.0,-1.943,-1.943,-1.943,-1.943,-1.943,-1.943,-1.943,-1.943,-1.943,-1.943,-1.943,-1.943,-1.943,-1.943,-1.943,-1.943,-1.943,-1.943,-1.943,-1.943,-1.9185,-1.7923,-1.7501,-1.7208,-1.5607,-1.4004,-1.2629,-1.2277,-1.102,-0.9822,-0.9822,-1.102,-1.1856,-1.0604,-1.2749,-1.4599,-1.2629,-1.2217,-1.1736,-1.0119,-1.108,-1.2689,-1.4302,-1.5902,-1.756,-1.9185,-1.943,-1.943,-1.943,-1.943,-1.9345,-1.9279,-1.9065,-1.8905,-1.8838,-1.8624,-1.8464,-1.8397,-1.8397,-1.837,-1.8303,-1.7836,-1.7582,-1.7582,-1.7582,-1.7582,-1.7582,-1.7582,-1.7862,-1.8397,-1.8464,-1.8771,-1.7194,-1.7782,-1.8557,-1.988,-2.1096,-2.2098,-2.2552,-2.2645,-2.2645,-2.2645,-2.2645,-2.2552,-2.2245,-2.1964,-2.1683,-2.1376,-2.1203,-2.1109,-2.1109,-2.1109,-2.1109,0.0,0.0,0.0,0.0,0.0,0.0,0.0,0.0,-1.996,-1.9813,-1.9533,-1.943,-1.943,-1.943,-1.943,-1.943,-1.943,-1.943,-1.943,-1.943,-1.943,-1.943,-1.943,-1.943,-1.943,-1.943,-1.943,-1.943,-1.943,-1.8939,-1.8227,-1.8227,-1.7806,-1.7103,-1.7103,-1.7103,-1.7103,-1.7103,-1.7103,-1.6985,-1.6138,-1.5843,-1.5548,-1.3944,-1.2868,-1.2037,-1.1261,-1.0422,-0.9822,-0.9822,-1.0422,-1.0838,-0.9997,-1.1675,-1.2988,-1.1374,-1.108,-1.0778,-0.9943,-1.108,-1.2689,-1.4302,-1.6562,-1.8402,-1.9243,-1.943,-1.943,-1.943,-1.943,-1.943,-1.943,-1.9225,-1.9132,-1.9132,-1.8998,-1.8851,-1.8704,-1.8691,-1.8637,-1.8504,-1.8183,-1.7956,-1.7809,-1.7809,-1.7729,-1.7582,-1.7729,-1.8036,-1.849,-1.8637,-1.8945,-1.7542,-1.8223,-1.9038,-2.0695,-2.151,-2.1991,-2.2271,-2.2338,-2.2338,-2.2338,-2.2338,-2.2325,-2.2271,-2.1884,-2.1601,-2.1547,-2.1269,-2.1109,-2.1109,-2.1109,-2.1109,0.0,0.0,0.0,0.0,0.0,0.0,0.0,0.0,-1.9773,-1.9733,-1.9492,-1.943,-1.943,-1.943,-1.943,-1.943,-1.943,-1.943,-1.943,-1.9127,-1.8997,-1.901,-1.8706,-1.8706,-1.8997,-1.8997,-1.8823,-1.859,-1.859,-1.7806,-1.6609,-1.6609,-1.5784,-1.4599,-1.4599,-1.4599,-1.4599,-1.4599,-1.4599,-1.454,-1.4302,-1.4183,-1.3885,-1.2277,-1.1796,-1.1495,-1.0179,-0.9822,-0.9822,-0.9822,-0.9822,-0.9822,-0.9822,-1.0838,-1.1434,-1.0058,-0.9822,-0.9822,-0.9822,-1.1322,-1.3048,-1.4361,-1.7279,-1.943,-1.943,-1.943,-1.943,-1.943,-1.943,-1.943,-1.943,-1.943,-1.943,-1.943,-1.943,-1.9265,-1.9011,-1.8998,-1.8891,-1.8651,-1.8637,-1.8504,-1.8155,-1.8049,-1.7862,-1.7662,-1.7862,-1.8223,-1.8571,-1.8811,-1.9078,-1.678,-1.805,-1.9546,-2.0802,-2.1363,-2.1748,-2.1977,-2.2044,-2.2044,-2.2044,-2.2044,-2.1964,-2.1775,-2.1668,-2.1534,-2.1203,-2.1136,-2.1109,-2.1109,-2.1109,-2.1109,0.0,0.0,0.0,0.0,0.0,0.0,0.0,-1.984,-1.9693,-1.9497,-1.9444,-1.943,-1.943,-1.943,-1.943,-1.943,-1.943,-1.943,-1.9359,-1.7981,-1.7325,-1.7267,-1.5902,-1.602,-1.7325,-1.7325,-1.655,-1.5262,-1.5262,-1.5133,-1.4896,-1.4896,-1.4777,-1.4599,-1.4599,-1.4599,-1.4599,-1.4599,-1.4599,-1.4361,-1.2988,-1.2517,-1.2217,-1.0604,-1.0119,-1.0058,-0.9883,-0.9822,-0.9822,-0.9822,-0.9822,-0.9822,-0.9822,-0.9943,-1.0058,-0.9822,-0.9822,-0.9822,-0.9822,-1.2217,-1.4361,-1.454,-1.7279,-1.943,-1.943,-1.943,-1.943,-1.943,-1.943,-1.943,-1.943,-1.943,-1.943,-1.943,-1.943,-1.9403,-1.9319,-1.9305,-1.935,-1.931,-1.931,-1.9105,-1.8811,-1.8249,-1.7969,-1.7929,-1.7969,-1.8275,-1.8865,-1.8905,-1.9078,-1.7349,-1.8263,-1.9399,-2.0575,-2.1082,-2.1376,-2.1735,-2.1815,-2.1815,-2.1815,-2.1617,-2.151,-2.1614,-2.148,-2.1256,-2.1136,-2.1109,-2.1109,-2.1109,-2.1109,-2.1109,0.0,0.0,0.0,0.0,0.0,0.0,0.0,-1.9653,-1.9506,-1.943,-1.943,-1.943,-1.943,-1.943,-1.943,-1.943,-1.943,-1.8939,-1.804,-1.7325,-1.655,-1.5607,-1.4896,-1.5015,-1.5666,-1.5666,-1.5252,-1.4599,-1.4599,-1.4063,-1.3228,-1.3228,-1.2689,-1.1916,-1.1916,-1.1916,-1.1916,-1.1916,-1.1916,-1.1796,-1.108,-1.0838,-1.0717,-1.0004,-0.9822,-0.9822,-0.9822,-0.9822,-0.9822,-0.9822,-0.9822,-0.9822,-0.9822,-0.9822,-0.9822,-0.9822,-0.9822,-1.0058,-1.0959,-1.2277,-1.3825,-1.5607,-1.7091,-1.8344,-1.9243,-1.943,-1.943,-1.943,-1.943,-1.943,-1.943,-1.943,-1.943,-1.943,-1.943,-1.943,-1.943,-1.943,-1.943,-1.943,-1.943,-1.9225,-1.8931,-1.8621,-1.845,-1.829,-1.845,-1.8621,-1.8931,-1.9092,-1.9239,-1.789,-1.8131,-1.8664,-1.992,-2.0454,-2.0788,-2.1293,-2.14,-2.1413,-2.1494,-2.1269,-2.1176,-2.1403,-2.1256,-2.1109,-2.1109,-2.1109,-2.1109,-2.1109,-2.1109,-2.1082,0.0,0.0,0.0,0.0,0.0,0.0,0.0,-1.9492,-1.943,-1.943,-1.943,-1.943,-1.943,-1.943,-1.939,-1.9252,-1.9185,-1.841,-1.6868,-1.6459,-1.5483,-1.4004,-1.3586,-1.3407,-1.3407,-1.3825,-1.3765,-1.3407,-1.3407,-1.2689,-1.1615,-1.1615,-1.0838,-0.9822,-0.9822,-0.9822,-0.9822,-0.9822,-0.9822,-0.9822,-0.9822,-0.9822,-0.9822,-0.9822,-0.9822,-0.9822,-0.9822,-0.9822,-0.9822,-0.9822,-0.9822,-0.9822,-0.9822,-0.9822,-0.9822,-0.9822,-0.9822,-1.0179,-1.1374,-1.1916,-1.3108,-1.5902,-1.6727,-1.756,-1.9185,-1.943,-1.943,-1.943,-1.943,-1.943,-1.943,-1.943,-1.943,-1.943,-1.943,-1.943,-1.943,-1.943,-1.943,-1.943,-1.943,-1.9265,-1.9038,-1.9038,-1.8891,-1.8597,-1.8824,-1.8958,-1.9038,-1.9265,-1.943,-1.7666,-1.7358,-1.7181,-1.8651,-1.9239,-1.9738,-2.0521,-2.0722,-2.0802,-2.1082,-2.1122,-2.1109,-2.1122,-2.1122,-2.1109,-2.1109,-2.1109,-2.1109,-2.1109,-2.1109,-2.1002,0.0,0.0,0.0,0.0,0.0,0.0,0.0,-1.943,-1.943,-1.943,-1.943,-1.943,-1.943,-1.943,-1.9225,-1.8945,-1.8677,-1.7866,-1.6483,-1.503,-1.3624,-1.2277,-1.0778,-1.0058,-1.0119,-1.1675,-1.1442,-1.0058,-1.0058,-0.9997,-0.9943,-0.9943,-0.9883,-0.9822,-0.9822,-0.9822,-0.9822,-0.9822,-0.9822,-0.9822,-0.9822,-0.9822,-0.9822,-0.9822,-0.9822,-0.9822,-0.9822,-0.9822,-0.9822,-0.9822,-0.9822,-0.9822,-0.9822,-0.9822,-0.9822,-0.9822,-0.9822,-0.9822,-0.9883,-1.114,-1.2749,-1.4421,-1.5961,-1.756,-1.9185,-1.943,-1.943,-1.943,-1.943,-1.943,-1.943,-1.943,-1.943,-1.943,-1.943,-1.943,-1.943,-1.943,-1.943,-1.943,-1.943,-1.9417,-1.9345,-1.9345,-1.9199,-1.8905,-1.8918,-1.9065,-1.9345,-1.9417,-1.943,-1.7699,-1.7722,-1.7909,-1.8049,-1.8584,-1.8981,-1.8436,-1.8629,-1.8642,-1.7817,-1.761,-1.7667,-1.7761,-1.961,-2.1109,-2.1109,-2.1109,-2.1109,-2.1109,-2.0949,-2.0788,0.0,0.0,0.0,0.0,0.0,0.0,0.0,0.0,-1.943,-1.943,-1.943,-1.943,-1.943,-1.9185,-1.8945,-1.8651,-1.8544,-1.7279,-1.4852,-1.4415,-1.2903,-1.0517,-1.0016,-0.9822,-0.9822,-1.0422,-1.0301,-0.9822,-0.9822,-0.9822,-0.9822,-0.9822,-0.9822,-0.9822,-0.9822,-0.9822,-0.9822,-0.9822,-0.9822,-0.9822,-0.9822,-0.9822,-0.9822,-0.9822,-0.9822,-0.9822,-0.9822,-0.9822,-0.9822,-0.9822,-0.9822,-0.9822,-0.9822,-0.9822,-0.9822,-0.9822,-0.9822,-0.9822,-0.9822,-1.0301,-1.1495,-1.4123,-1.5074,-1.6385,-1.901,-1.943,-1.943,-1.943,-1.943,-1.943,-1.943,-1.943,-1.943,-1.943,-1.943,-1.943,-1.943,-1.943,-1.943,-1.943,-1.943,-1.943,-1.943,-1.943,-1.9319,-1.9212,-1.9212,-1.9265,-1.943,-1.943,-1.943,-1.8326,-1.8041,-1.7949,-1.7965,-1.7994,-1.7867,-1.7203,-1.7292,-1.7081,-1.5794,-1.5606,-1.5835,-1.6435,-1.7989,-1.9273,-1.9318,-1.9333,-1.9271,-1.9271,-1.9562,-1.973,0.0,0.0,0.0,0.0,0.0,0.0,0.0,0.0,0.0,-1.943,-1.943,-1.9319,-1.9225,-1.8931,-1.8637,-1.8343,-1.8237,-1.671,-1.3818,-1.3959,-1.248,-0.9686,-0.9781,-0.9822,-0.9822,-0.9822,-0.9822,-0.9822,-0.9822,-0.9822,-0.9822,-0.9822,-0.9822,-0.9822,-0.9822,-0.9822,-0.9822,-0.9822,-0.9822,-0.9822,-0.9822,-0.9822,-0.9822,-0.9822,-0.9822,-0.9822,-0.9822,-0.9822,-0.9822,-0.9822,-0.9822,-0.9822,-0.9822,-0.9822,-0.9822,-0.9822,-0.9822,-0.9822,-0.9822,-0.9822,-1.0657,-1.3347,-1.4242,-1.5488,-1.8169,-1.9068,-1.943,-1.943,-1.943,-1.943,-1.943,-1.943,-1.943,-1.943,-1.943,-1.943,-1.943,-1.943,-1.943,-1.943,-1.943,-1.943,-1.943,-1.943,-1.943,-1.943,-1.943,-1.943,-1.943,-1.943,-1.943,0.0,0.0,0.0,-1.8439,-1.7541,-1.6478,-1.7017,-1.6703,-1.6148,-1.5343,-1.5258,-1.5845,-1.748,-1.6495,-1.5586,-1.5758,-1.5775,-1.576,-1.576,-1.701,0.0,0.0,0.0,0.0,0.0,0.0,0.0,0.0,-1.943,-1.943,-1.943,-1.9417,-1.9212,-1.8905,-1.8624,-1.833,-1.7982,-1.7729,-1.6277,-1.3685,-1.3685,-1.2302,-0.9815,-0.9822,-0.9822,-0.9822,-0.9822,-0.9822,-0.9822,-0.9822,-0.9822,-0.9822,-0.9822,-0.9822,-0.9822,-0.9822,-0.9822,-0.9822,-0.9822,-0.9822,-0.9822,-0.9822,-0.9822,-0.9822,-0.9822,-0.9822,-0.9822,-0.9822,-0.9822,-0.9822,-0.9883,-0.9883,-0.9883,-0.9883,-0.9883,-0.9883,-0.9822,-0.9822,-0.9883,-0.9822,-0.9822,-1.0301,-1.1976,-1.3586,-1.5133,-1.6844,-1.8402,-1.943,-1.943,-1.943,-1.943,-1.943,-1.943,-1.943,-1.943,-1.943,-1.943,-1.943,-1.943,-1.943,-1.943,-1.943,-1.943,-1.943,-1.943,-1.943,-1.943,-1.943,-1.943,-1.943,-1.943,-1.943,-2.0951,0.0,0.0,0.0,0.0,0.0,-1.5167,-1.4204,-1.3802,-1.4187,-1.3487,-1.3086,-1.3961,-1.4696,-1.4798,-1.3717,-1.569,-1.7275,-1.7275,-1.8422,0.0,0.0,0.0,0.0,0.0,0.0,0.0,0.0,-1.943,-1.943,-1.943,-1.9158,-1.8811,-1.8249,-1.8155,-1.8023,-1.7716,-1.7622,-1.6245,-1.3578,-1.3672,-1.2289,-0.9673,-0.9774,-0.9822,-0.9822,-0.9822,-0.9822,-0.9822,-0.9822,-0.9822,-0.9822,-0.9822,-0.9822,-0.9822,-0.9822,-0.9822,-0.9822,-0.9822,-0.9822,-0.9822,-0.9822,-0.9822,-0.9822,-0.9822,-0.9822,-0.9822,-0.9822,-0.9822,-1.0058,-1.1261,-1.1555,-1.1555,-1.1555,-1.1555,-1.1201,-1.0058,-1.0717,-1.1201,-0.9997,-0.9822,-1.0657,-1.3467,-1.4302,-1.5548,-1.8344,-1.9127,-1.943,-1.943,-1.943,-1.943,-1.943,-1.943,-1.943,-1.943,-1.943,-1.943,-1.943,-1.943,-1.943,-1.943,-1.943,-1.943,-1.943,-1.943,-1.943,-1.943,-1.943,-1.943,-1.943,-1.943,-1.943,-2.3087,-2.2144,-2.1084,-1.9608,0.0,0.0,-1.5194,-1.4066,-1.3362,-1.3502,-1.3041,-1.2885,-1.3954,-1.3876,-1.3569,-1.3387,-1.4548,-1.5807,-1.6514,-1.7781,-1.8644,0.0,0.0,0.0,0.0,-1.943,-1.943,-1.943,-1.943,-1.9319,-1.9185,-1.9011,-1.8595,-1.8009,-1.7995,-1.7903,-1.7582,-1.7582,-1.6258,-1.3572,-1.3635,-1.2307,-0.97,-0.9781,-0.9822,-0.9822,-0.9822,-0.9822,-0.9822,-0.9822,-0.9822,-0.9822,-0.9822,-0.9822,-0.9822,-0.9822,-0.9822,-0.9822,-0.9822,-0.9822,-0.9822,-0.9822,-0.9822,-0.9822,-0.9822,-0.9822,-0.9822,-0.9822,-0.9822,-1.0179,-1.1796,-1.2217,-1.2397,-1.3048,-1.3228,-1.2928,-1.2037,-1.2517,-1.2749,-1.114,-1.1314,-1.2397,-1.4302,-1.5133,-1.6267,-1.811,-1.8952,-1.943,-1.943,-1.943,-1.943,-1.943,-1.943,-1.943,-1.943,-1.943,-1.943,-1.943,-1.943,-1.943,-1.943,-1.943,-1.943,-1.943,-1.943,-1.943,-1.943,-1.943,-1.943,-1.943,-1.943,-1.943,-2.5519,-2.4183,-2.2802,-2.264,-1.9974,0.0,-1.6587,-1.5481,-1.4371,-1.3689,-1.3785,-1.442,-1.5758,-1.408,-1.2825,-1.3914,-1.3419,-1.3356,-1.461,-1.6034,-1.7079,0.0,0.0,0.0,-1.943,-1.943,-1.943,-1.943,-1.943,-1.9225,-1.8891,-1.8878,-1.8611,-1.7955,-1.7942,-1.7862,-1.7582,-1.7582,-1.6277,-1.3695,-1.3695,-1.2311,-0.9822,-0.9822,-0.9822,-0.9822,-0.9822,-0.9822,-0.9822,-0.9822,-0.9822,-0.9822,-0.9822,-0.9822,-0.9822,-0.9822,-0.9822,-0.9822,-0.9822,-0.9822,-0.9822,-0.9822,-0.9822,-0.9822,-0.9822,-0.9822,-0.9822,-0.9822,-0.9822,-1.0179,-1.1976,-1.2449,-1.2868,-1.448,-1.4896,-1.4837,-1.4658,-1.4718,-1.4421,-1.2988,-1.3765,-1.4658,-1.4837,-1.602,-1.7079,-1.7267,-1.846,-1.943,-1.943,-1.943,-1.943,-1.943,-1.943,-1.943,-1.943,-1.943,-1.943,-1.943,-1.943,-1.943,-1.943,-1.943,-1.943,-1.943,-1.943,-1.943,-1.943,-1.943,-1.943,-1.943,-1.943,-1.943,-2.6909,-2.6029,-2.4729,-2.2948,-2.1694,0.0,-1.8414,-1.716,-1.6493,-1.687,-1.6378,-1.5745,-1.5458,-1.5947,-1.5808,-1.3785,-1.5601,-1.6641,-1.4906,-1.5983,-1.7501,0.0,0.0,0.0,-1.943,-1.943,-1.943,-1.943,-1.943,-1.9132,-1.8597,-1.8571,-1.8303,-1.7689,-1.7675,-1.7649,-1.7582,-1.7582,-1.6277,-1.3695,-1.3695,-1.2311,-0.9822,-0.9822,-0.9822,-0.9822,-0.9822,-0.9822,-0.9822,-0.9822,-0.9822,-0.9822,-0.9822,-0.9822,-0.9822,-0.9822,-0.9822,-0.9822,-0.9822,-0.9822,-0.9822,-0.9822,-0.9822,-0.9822,-0.9822,-0.9822,-0.9822,-0.9822,-0.9822,-1.0482,-1.3347,-1.4123,-1.454,-1.6138,-1.655,-1.6197,-1.4896,-1.5607,-1.6433,-1.6138,-1.5252,-1.5015,-1.6315,-1.6786,-1.7443,-1.8765,-1.9185,-1.943,-1.943,-1.943,-1.943,-1.943,-1.943,-1.943,-1.943,-1.943,-1.943,-1.943,-1.943,-1.943,-1.943,-1.943,-1.943,-1.943,-1.943,-1.943,-1.943,-1.943,-1.943,-1.943,-1.943,-1.943,-2.8451,-2.7767,-2.6617,-2.5319,0.0,0.0,0.0,-1.9099,-1.8087,-1.8769,-1.8282,-1.7533,-1.6767,-1.6739,-1.6163,-1.4137,-1.4982,-1.5702,-1.5216,-1.6912,-1.8519,0.0,0.0,0.0,-1.943,-1.943,-1.943,-1.943,-1.9225,-1.8958,-1.8517,-1.8343,-1.8063,-1.7595,-1.7582,-1.7582,-1.7582,-1.697,-1.5635,-1.3695,-1.3059,-1.1703,-0.9822,-0.9822,-0.9822,-0.9822,-0.9822,-0.9822,-0.9822,-0.9822,-0.9822,-0.9822,-0.9822,-0.9822,-0.9822,-0.9822,-0.9822,-0.9822,-0.9822,-0.9822,-0.9822,-0.9822,-0.9822,-0.9822,-0.9822,-0.9822,-0.9822,-0.9822,-0.9822,-1.0536,-1.3765,-1.4004,-1.4004,-1.6433,-1.6374,-1.5607,-1.4777,-1.5252,-1.602,-1.6844,-1.6374,-1.6315,-1.7923,-1.8227,-1.846,-1.9301,-1.943,-1.943,-1.943,-1.943,-1.943,-1.943,-1.943,-1.943,-1.943,-1.943,-1.943,-1.943,-1.943,-1.943,-1.943,-1.943,-1.943,-1.943,-1.943,-1.943,-1.943,-1.943,-1.943,-1.943,-1.943,-1.943,-2.9548,-2.9083,-2.825,-2.775,0.0,-2.3348,0.0,0.0,0.0,0.0,0.0,0.0,0.0,0.0,0.0,0.0,0.0,0.0,0.0,-1.7588,0.0,0.0,0.0,0.0,0.0,-1.9239,-1.9225,-1.9279,-1.8958,-1.8651,-1.8424,-1.8183,-1.7903,-1.7595,-1.7582,-1.7609,-1.7675,-1.6651,-1.5343,-1.3754,-1.2727,-1.1387,-0.9822,-0.9822,-0.9822,-0.9822,-0.9822,-0.9822,-0.9822,-0.9822,-0.9822,-0.9822,-0.9822,-0.9822,-0.9822,-0.9822,-0.9822,-0.9822,-0.9822,-0.9822,-0.9822,-0.9822,-0.9822,-0.9822,-0.9822,-0.9822,-0.9822,-0.9822,-0.9822,-1.0536,-1.3765,-1.3646,-1.3407,-1.6315,-1.602,-1.4955,-1.4658,-1.4599,-1.4955,-1.6315,-1.6786,-1.7501,-1.9127,-1.943,-1.943,-1.943,-1.943,-1.943,-1.943,-1.943,-1.943,-1.943,-1.943,-1.943,-1.943,-1.943,-1.943,-1.943,-1.943,-1.943,-1.943,-1.943,-1.943,-1.943,-1.943,-1.943,-1.943,-1.943,-1.943,-1.943,-1.943,-1.943,0.0,0.0,0.0,0.0,-2.7749,0.0,0.0,0.0,-2.2267,-2.0377,0.0,0.0,0.0,0.0,0.0,0.0,0.0,0.0,-1.5149,-1.6585,-1.7983,0.0,0.0,0.0,0.0,-1.8744,-1.8691,-1.8958,-1.8408,-1.8075,-1.8049,-1.8009,-1.7903,-1.7595,-1.7582,-1.7716,-1.7942,-1.7793,-1.6544,-1.4157,-1.4013,-1.2495,-0.9822,-0.9822,-0.9822,-0.9822,-0.9822,-0.9822,-0.9822,-0.9822,-0.9822,-0.9822,-0.9822,-0.9822,-0.9822,-0.9822,-0.9822,-0.9822,-0.9822,-0.9822,-0.9822,-0.9822,-0.9822,-0.9822,-0.9822,-0.9822,-0.9822,-0.9822,-0.9822,-1.0536,-1.3765,-1.448,-1.4777,-1.655,-1.6844,-1.6315,-1.4896,-1.4599,-1.4658,-1.4837,-1.602,-1.7501,-1.9127,-1.943,-1.943,-1.943,-1.943,-1.943,-1.943,-1.943,-1.943,-1.943,-1.943,-1.943,-1.943,-1.943,-1.943,-1.943,-1.943,-1.943,-1.943,-1.943,-1.943,-1.943,-1.943,-1.943,-1.943,-1.943,-1.943,-1.943,-1.943,-1.943,0.0,0.0,0.0,0.0,0.0,0.0,-2.378,0.0,-2.2961,0.0,0.0,0.0,0.0,0.0,0.0,0.0,-1.7851,0.0,0.0,0.0,-1.7101,0.0,0.0,0.0,0.0,0.0,0.0,0.0,-1.8116,-1.7862,-1.7982,-1.7876,-1.7716,-1.7582,-1.7756,-1.7916,-1.7995,-1.7406,-1.6589,-1.5528,-1.3859,-1.2371,-1.114,-1.024,-0.9822,-0.9822,-0.9822,-0.9822,-0.9822,-0.9822,-0.9822,-0.9822,-0.9822,-0.9822,-0.9822,-0.9822,-0.9822,-0.9822,-0.9822,-0.9822,-0.9822,-0.9822,-0.9822,-0.9822,-0.9822,-0.9822,-0.9822,-0.9822,-0.9822,-1.0536,-1.3765,-1.3885,-1.3586,-1.5192,-1.4886,-1.3756,-1.2157,-1.1796,-1.2097,-1.3048,-1.454,-1.6138,-1.7747,-1.8765,-1.943,-1.943,-1.943,-1.943,-1.943,-1.943,-1.943,-1.943,-1.943,-1.943,-1.943,-1.943,-1.943,-1.943,-1.943,-1.943,-1.943,-1.943,-1.943,-1.943,-1.943,-1.943,-1.943,-1.943,-1.943,-1.943,-1.943,-1.943,-2.7041,0.0,0.0,0.0,0.0,0.0,0.0,0.0,0.0,0.0,0.0,0.0,0.0,0.0,0.0,0.0,0.0,-1.8675,0.0,0.0,0.0,0.0,0.0,0.0,0.0,0.0,0.0,0.0,0.0,-1.7515,-1.7849,-1.7702,-1.7582,-1.7582,-1.7889,-1.8035,-1.8115,-1.7516,-1.6966,-1.6622,-1.4508,-1.3048,-1.2157,-1.102,-1.024,-0.9822,-0.9822,-0.9822,-0.9822,-0.9822,-0.9822,-0.9822,-0.9822,-0.9822,-0.9822,-0.9822,-0.9822,-0.9822,-0.9822,-0.9822,-0.9822,-0.9822,-0.9822,-0.9822,-0.9822,-0.9822,-0.9822,-0.9822,-0.9822,-1.0422,-1.3228,-1.3048,-1.2517,-1.3646,-1.3048,-1.1736,-1.0179,-0.9822,-1.0179,-1.1322,-1.3228,-1.4955,-1.6138,-1.8052,-1.943,-1.943,-1.943,-1.943,-1.943,-1.943,-1.943,-1.943,-1.943,-1.943,-1.943,-1.943,-1.943,-1.943,-1.943,-1.943,-1.943,-1.943,-1.943,-1.943,-1.943,-1.943,-1.943,-1.943,-1.943,-1.943,-1.943,-1.943,0.0,0.0,0.0,-2.6568,0.0,0.0,0.0,0.0,-2.3144,0.0,0.0,0.0,0.0,0.0,0.0,0.0,0.0,0.0,0.0,0.0,0.0,0.0,0.0,0.0,0.0,0.0,0.0,0.0,0.0,0.0,-1.7569,-1.7582,-1.7582,-1.7582,-1.7889,-1.8183,-1.8477,-1.8715,-1.818,-1.695,-1.6903,-1.5182,-1.2217,-1.2157,-1.1261,-0.9822,-0.9822,-0.9822,-0.9822,-0.9822,-0.9822,-0.9822,-0.9822,-0.9822,-0.9822,-0.9822,-0.9822,-0.9822,-0.9822,-0.9822,-0.9822,-0.9822,-0.9822,-0.9822,-0.9822,-0.9822,-0.9822,-0.9822,-0.9822,-1.0179,-1.1856,-1.2217,-1.2217,-1.2277,-1.2217,-1.1736,-1.0179,-0.9822,-0.9822,-0.9883,-1.2457,-1.4609,-1.4658,-1.7279,-1.943,-1.943,-1.943,-1.943,-1.943,-1.943,-1.943,-1.943,-1.943,-1.943,-1.943,-1.943,-1.943,-1.943,-1.943,-1.943,-1.943,-1.943,-1.943,-1.943,-1.943,-1.943,-1.943,-1.943,-1.943,-1.943,-1.943,-1.943,0.0,0.0,-2.547,-2.4472,0.0,0.0,0.0,0.0,0.0,0.0,0.0,0.0,0.0,0.0,0.0,0.0,0.0,0.0,0.0,0.0,0.0,0.0,0.0,0.0,0.0,0.0,0.0,0.0,-1.6633,0.0,0.0,-1.7353,-1.7475,-1.7822,-1.8183,-1.8477,-1.8771,-1.9065,-1.9021,-1.859,-1.7501,-1.5843,-1.3765,-1.2689,-1.1322,-0.9822,-0.9822,-0.9822,-0.9822,-0.9822,-0.9822,-0.9822,-0.9822,-0.9822,-0.9822,-0.9822,-0.9822,-0.9822,-0.9822,-0.9822,-0.9822,-0.9822,-0.9822,-0.9842,-0.9883,-0.9909,-0.993,-1.0093,-1.0127,-1.0496,-1.2093,-1.3215,-1.3663,-1.2586,-1.3087,-1.3347,-1.1736,-1.1374,-1.1675,-1.2749,-1.4718,-1.6197,-1.6197,-1.7981,-1.943,-1.943,-1.943,-1.943,-1.943,-1.943,-1.943,-1.943,-1.943,-1.943,-1.943,-1.943,-1.943,-1.943,-1.943,-1.943,-1.943,-1.943,-1.943,-1.943,-1.943,-1.943,-1.943,-1.943,-1.943,-1.943,-1.943,-1.943,-2.5312,-2.5195,0.0,-2.3848,-2.4162,0.0,-2.2926,0.0,0.0,0.0,0.0,0.0,0.0,0.0,0.0,0.0,0.0,0.0,0.0,-1.8659,0.0,0.0,0.0,0.0,0.0,0.0,-1.6067,-1.6513,-1.6179,-1.6259,0.0,0.0,-1.7382,-1.7862,-1.8277,-1.8637,-1.8918,-1.9225,-1.943,-1.9372,-1.8344,-1.7032,-1.5429,-1.4351,-1.2749,-1.0657,-1.0657,-1.0301,-0.9822,-0.9822,-0.9822,-0.9822,-0.9822,-0.9822,-0.9822,-0.9822,-0.9822,-0.9822,-0.9822,-0.9822,-0.9829,-0.9883,-0.9903,-0.993,-1.0086,-1.0134,-1.0154,-1.0249,-1.0283,-1.0531,-1.1586,-1.2994,-1.3877,-1.2837,-1.3667,-1.448,-1.3398,-1.3102,-1.3347,-1.4421,-1.5902,-1.702,-1.702,-1.8344,-1.943,-1.943,-1.943,-1.943,-1.943,-1.943,-1.943,-1.943,-1.943,-1.943,-1.943,-1.943,-1.943,-1.943,-1.943,-1.943,-1.943,-1.943,-1.943,-1.943,-1.943,-1.943,-1.943,-1.943,-1.943,-1.943,-1.943,-1.943]},{"header":{"parameterUnit":"m.s-1","parameterCategory":1,"la1":30.6,"la2":29.2853,"lo1":-89.7004,"lo2":-87.6739,"dy":0.0162,"dx":0.0183,"nx":112,"ny":82,"refTime":"2026-04-03T12:00:00:Z","depth":0,"parameterNumber":3,"parameterNumberName":"V-component_of_WINDS"},"data":[0.0,0.0,0.0,0.0,0.0,0.0,0.0,0.0,0.0,0.0,0.0,0.0,0.0,0.0,0.0,0.0,0.0,0.0,0.0,0.0,0.0,0.0,0.0,0.0,0.0,0.0,0.0,0.0,0.0,0.0,0.0,0.0,0.0,0.0,0.0,0.0,0.0,0.0,0.0,0.0,0.0,0.0,0.0,0.0,0.0,0.0,0.0,0.0,0.0,0.0,0.0,0.0,0.0,0.0,0.0,0.0,0.0,0.0,0.0,0.0,0.0,0.0,0.0,0.0,0.0,0.0,0.0,0.0,0.0,0.0,0.0,0.0,0.0,0.0,0.0,0.0,0.0,0.0,0.0,0.0,0.0,0.0,0.0,0.0,0.0,0.0,0.0,0.0,0.0,0.0,2.2566,2.1995,2.2409,2.2767,2.2955,2.344,2.2798,2.059,0.0,0.0,0.0,0.0,0.0,0.0,0.0,0.0,0.0,0.0,0.0,0.0,0.0,0.0,0.0,0.0,0.0,0.0,0.0,0.0,0.0,0.0,0.0,0.0,0.0,0.0,0.0,0.0,0.0,0.0,0.0,0.0,0.0,0.0,0.0,0.0,0.0,0.0,0.0,0.0,0.0,0.0,0.0,0.0,0.0,0.0,0.0,0.0,0.0,0.0,0.0,0.0,0.0,0.0,0.0,0.0,0.0,0.0,0.0,0.0,0.0,0.0,0.0,0.0,0.0,0.0,0.0,0.0,0.0,0.0,0.0,0.0,0.0,0.0,0.0,0.0,0.0,0.0,0.0,0.0,0.0,0.0,0.0,0.0,0.0,0.0,0.0,0.0,0.0,0.0,0.0,0.0,0.0,0.0,0.0,0.0,0.0,0.0,0.0,0.0,0.0,0.0,0.0,0.0,2.4013,2.5058,2.5564,2.5366,2.4163,2.4275,2.3841,2.2456,0.0,0.0,0.0,0.0,0.0,0.0,0.0,0.0,0.0,0.0,0.0,0.0,0.0,0.0,0.0,0.0,0.0,0.0,0.0,0.0,0.0,0.0,0.0,0.0,0.0,0.0,0.0,0.0,0.0,0.0,0.0,0.0,0.0,0.0,0.0,0.0,0.0,0.0,0.0,0.0,0.0,0.0,0.0,0.0,0.0,0.0,0.0,0.0,0.0,0.0,0.0,0.0,0.0,0.0,0.0,0.0,0.0,0.0,0.0,0.0,0.0,0.0,0.0,0.0,0.0,0.0,0.0,0.0,0.0,0.0,0.0,0.0,0.0,0.0,0.0,0.0,0.0,0.0,0.0,0.0,0.0,0.0,0.0,0.0,0.0,0.0,0.0,0.0,0.0,0.0,0.0,0.0,0.0,0.0,0.0,0.0,0.0,0.0,0.0,0.0,0.0,0.0,0.0,2.4816,2.6159,2.8402,2.7268,2.5985,2.5301,2.4934,2.3985,2.228,2.273,0.0,0.0,0.0,0.0,0.0,0.0,0.0,0.0,0.0,0.0,0.0,0.0,0.0,0.0,0.0,0.0,0.0,0.0,0.0,0.0,0.0,0.0,0.0,0.0,0.0,0.0,0.0,0.0,0.0,0.0,0.0,0.0,0.0,0.0,0.0,0.0,0.0,0.0,0.0,0.0,0.0,0.0,0.0,0.0,0.0,0.0,0.0,0.0,0.0,0.0,0.0,0.0,0.0,0.0,0.0,0.0,0.0,0.0,0.0,0.0,0.0,0.0,0.0,0.0,0.0,0.0,0.0,0.0,0.0,0.0,0.0,0.0,0.0,0.0,0.0,0.0,0.0,0.0,0.0,0.0,0.0,0.0,0.0,0.0,0.0,0.0,0.0,0.0,0.0,0.0,0.0,0.0,0.0,0.0,0.0,0.0,0.0,0.0,0.0,0.0,0.0,0.0,2.7366,2.8365,3.0998,2.8708,2.6962,2.6962,2.5678,2.4084,2.2226,2.2073,0.0,0.0,0.0,0.0,0.0,0.0,0.0,0.0,0.0,0.0,0.0,0.0,0.0,0.0,0.0,0.0,0.0,0.0,0.0,0.0,0.0,0.0,0.0,0.0,0.0,0.0,0.0,0.0,0.0,0.0,0.0,0.0,0.0,0.0,0.0,0.0,0.0,0.0,0.0,0.0,0.0,0.0,0.0,0.0,0.0,0.0,0.0,0.0,0.0,0.0,0.0,0.0,0.0,0.0,0.0,0.0,0.0,0.0,0.0,0.0,0.0,0.0,0.0,0.0,0.0,0.0,0.0,0.0,0.0,0.0,0.0,0.0,0.0,0.0,0.0,0.0,0.0,0.0,0.0,0.0,0.0,0.0,0.0,0.0,0.0,0.0,0.0,0.0,0.0,0.0,0.0,0.0,0.0,0.0,0.0,0.0,0.0,0.0,0.0,0.0,0.0,0.0,2.8416,3.0389,3.2018,3.0542,2.9423,2.9423,2.6772,2.4644,2.3712,2.1814,0.0,0.0,0.0,0.0,0.0,0.0,0.0,0.0,0.0,0.0,0.0,0.0,0.0,0.0,0.0,0.0,0.0,0.0,0.0,0.0,0.0,0.0,0.0,0.0,0.0,0.0,0.0,0.0,0.0,0.0,0.0,0.0,0.0,0.0,0.0,0.0,0.0,0.0,0.0,0.0,0.0,0.0,0.0,0.0,0.0,0.0,0.0,0.0,0.0,0.0,0.0,0.0,0.0,0.0,0.0,0.0,0.0,0.0,0.0,0.0,0.0,0.0,0.0,0.0,0.0,0.0,0.0,0.0,0.0,0.0,0.0,0.0,0.0,0.0,0.0,0.0,0.0,0.0,0.0,0.0,0.0,0.0,0.0,0.0,0.0,0.0,0.0,0.0,0.0,0.0,0.0,0.0,0.0,0.0,0.0,0.0,0.0,0.0,0.0,0.0,0.0,0.0,2.9086,3.0743,0.0,3.1524,3.0581,2.9921,2.8516,2.662,2.4255,0.0,0.0,0.0,0.0,0.0,0.0,0.0,0.0,0.0,0.0,0.0,0.0,0.0,0.0,0.0,0.0,0.0,0.0,0.0,0.0,0.0,0.0,0.0,0.0,0.0,0.0,0.0,0.0,0.0,0.0,0.0,0.0,0.0,0.0,0.0,0.0,0.0,0.0,0.0,0.0,0.0,0.0,0.0,0.0,0.0,0.0,0.0,0.0,0.0,0.0,0.0,0.0,0.0,0.0,0.0,0.0,0.0,0.0,0.0,0.0,0.0,0.0,0.0,0.0,0.0,0.0,0.0,0.0,0.0,0.0,0.0,0.0,0.0,0.0,0.0,0.0,0.0,0.0,0.0,0.0,0.0,0.0,0.0,0.0,0.0,0.0,0.0,0.0,0.0,0.0,0.0,0.0,0.0,0.0,0.0,0.0,0.0,0.0,0.0,0.0,0.0,0.0,2.7996,2.9755,3.1496,0.0,3.2346,3.1401,3.0695,2.9375,2.7371,2.4469,0.0,0.0,0.0,0.0,0.0,0.0,0.0,0.0,0.0,0.0,0.0,0.0,0.0,0.0,0.0,0.0,0.0,0.0,0.0,0.0,0.0,0.0,0.0,0.0,0.0,0.0,0.0,0.0,0.0,0.0,0.0,0.0,0.0,0.0,0.0,0.0,0.0,0.0,0.0,0.0,0.0,0.0,0.0,0.0,0.0,0.0,0.0,0.0,0.0,0.0,0.0,0.0,0.0,0.0,0.0,0.0,0.0,0.0,0.0,0.0,0.0,0.0,0.0,0.0,0.0,0.0,0.0,0.0,0.0,0.0,0.0,0.0,0.0,0.0,0.0,0.0,0.0,0.0,0.0,0.0,0.0,0.0,0.0,0.0,0.0,0.0,0.0,0.0,0.0,0.0,0.0,0.0,0.0,0.0,0.0,0.0,0.0,0.0,0.0,0.0,0.0,0.0,2.8059,3.063,3.291,3.4525,3.3186,3.2122,3.2122,2.9175,2.6482,0.0,0.0,0.0,0.0,0.0,0.0,0.0,0.0,0.0,0.0,0.0,0.0,0.0,0.0,0.0,0.0,0.0,0.0,0.0,0.0,0.0,0.0,0.0,0.0,0.0,0.0,0.0,0.0,0.0,0.0,0.0,0.0,0.0,0.0,0.0,0.0,0.0,0.0,0.0,0.0,0.0,0.0,0.0,0.0,0.0,0.0,0.0,0.0,0.0,0.0,0.0,0.0,0.0,0.0,0.0,0.0,0.0,0.0,0.0,0.0,0.0,0.0,0.0,0.0,0.0,0.0,0.0,0.0,0.0,0.0,0.0,0.0,0.0,0.0,0.0,0.0,0.0,0.0,0.0,0.0,0.0,0.0,0.0,0.0,0.0,0.0,0.0,0.0,0.0,0.0,0.0,0.0,0.0,0.0,0.0,0.0,0.0,0.0,0.0,0.0,0.0,0.0,0.0,2.9099,3.2629,3.494,3.4705,3.4581,3.4038,3.2884,3.1185,2.9003,2.6256,0.0,0.0,0.0,0.0,0.0,0.0,0.0,0.0,0.0,0.0,0.0,0.0,0.0,0.0,0.0,0.0,0.0,0.0,0.0,0.0,0.0,0.0,0.0,0.0,0.0,0.0,0.0,0.0,0.0,0.0,0.0,0.0,0.0,0.0,0.0,0.0,0.0,0.0,0.0,0.0,0.0,0.0,0.0,0.0,0.0,0.0,0.0,0.0,0.0,0.0,0.0,0.0,0.0,0.0,0.0,0.0,0.0,0.0,0.0,0.0,0.0,0.0,0.0,0.0,0.0,0.0,0.0,0.0,0.0,0.0,0.0,0.0,0.0,0.0,0.0,0.0,0.0,0.0,0.0,0.0,0.0,0.0,0.0,0.0,0.0,0.0,0.0,0.0,0.0,0.0,0.0,0.0,0.0,0.0,0.0,0.0,0.0,0.0,0.0,0.0,0.0,0.0,2.9536,3.3336,3.5727,3.5332,3.5601,3.5393,3.4428,3.3523,3.1473,2.7977,0.0,0.0,0.0,0.0,0.0,0.0,0.0,0.0,0.0,0.0,0.0,0.0,0.0,0.0,0.0,0.0,0.0,0.0,0.0,0.0,0.0,0.0,0.0,0.0,0.0,0.0,0.0,0.0,0.0,0.0,0.0,0.0,0.0,0.0,0.0,0.0,0.0,0.0,0.0,0.0,0.0,0.0,0.0,0.0,0.0,0.0,0.0,0.0,0.0,0.0,0.0,0.0,0.0,0.0,0.0,0.0,0.0,0.0,0.0,0.0,0.0,0.0,0.0,0.0,0.0,0.0,0.0,0.0,0.0,0.0,0.0,0.0,0.0,0.0,0.0,0.0,0.0,0.0,0.0,0.0,0.0,0.0,0.0,0.0,0.0,0.0,0.0,0.0,0.0,0.0,0.0,0.0,0.0,0.0,0.0,0.0,0.0,0.0,0.0,0.0,0.0,0.0,2.9709,3.3321,3.5903,3.6314,3.6369,3.633,3.6212,3.567,3.3658,2.9781,0.0,0.0,0.0,0.0,0.0,0.0,0.0,0.0,0.0,0.0,0.0,0.0,0.0,0.0,0.0,0.0,0.0,0.0,0.0,0.0,0.0,0.0,0.0,0.0,0.0,0.0,0.0,0.0,0.0,0.0,0.0,0.0,0.0,0.0,0.0,0.0,0.0,0.0,0.0,0.0,0.0,0.0,0.0,0.0,0.0,0.0,0.0,0.0,0.0,0.0,0.0,0.0,0.0,0.0,0.0,0.0,0.0,0.0,0.0,0.0,3.4816,0.0,0.0,0.0,0.0,0.0,0.0,0.0,0.0,0.0,0.0,0.0,0.0,0.0,0.0,0.0,0.0,0.0,0.0,0.0,0.0,0.0,0.0,0.0,0.0,0.0,0.0,0.0,0.0,0.0,0.0,0.0,0.0,0.0,0.0,0.0,0.0,0.0,0.0,0.0,0.0,0.0,3.0799,3.5402,3.8259,3.7548,3.7472,3.7137,3.629,3.5217,3.3863,3.2154,2.9444,0.0,0.0,0.0,0.0,0.0,0.0,0.0,0.0,0.0,0.0,0.0,0.0,0.0,0.0,0.0,0.0,0.0,0.0,0.0,0.0,0.0,0.0,0.0,0.0,0.0,0.0,0.0,0.0,0.0,0.0,0.0,0.0,0.0,0.0,0.0,0.0,0.0,0.0,0.0,0.0,0.0,0.0,0.0,0.0,0.0,0.0,0.0,0.0,0.0,0.0,0.0,0.0,0.0,0.0,0.0,0.0,0.0,0.0,0.0,0.0,3.6897,0.0,0.0,0.0,0.0,0.0,0.0,0.0,0.0,0.0,0.0,0.0,0.0,0.0,0.0,0.0,0.0,0.0,0.0,0.0,0.0,0.0,0.0,0.0,0.0,0.0,0.0,0.0,0.0,0.0,0.0,0.0,0.0,0.0,0.0,0.0,0.0,0.0,0.0,0.0,0.0,3.2082,3.6158,3.8805,3.859,3.8583,3.8331,3.7776,3.6884,3.5762,3.4526,3.1801,0.0,0.0,0.0,0.0,0.0,0.0,0.0,0.0,0.0,0.0,0.0,0.0,0.0,0.0,0.0,0.0,0.0,0.0,0.0,0.0,0.0,0.0,0.0,0.0,0.0,0.0,0.0,0.0,0.0,0.0,0.0,0.0,0.0,0.0,0.0,0.0,0.0,0.0,0.0,0.0,0.0,0.0,0.0,0.0,0.0,0.0,0.0,0.0,0.0,0.0,0.0,0.0,0.0,4.6774,4.7167,4.6125,4.7849,4.7874,4.6468,4.3747,4.16,3.9858,3.8627,0.0,0.0,0.0,0.0,0.0,0.0,0.0,0.0,0.0,0.0,0.0,0.0,0.0,0.0,0.0,0.0,0.0,0.0,0.0,0.0,0.0,0.0,0.0,0.0,3.9372,3.8464,0.0,0.0,0.0,0.0,0.0,0.0,0.0,0.0,0.0,0.0,0.0,0.0,3.3097,3.631,3.8732,3.9535,3.9505,3.9546,3.9814,3.9122,3.8082,3.6717,3.428,3.1824,0.0,0.0,0.0,0.0,0.0,0.0,0.0,0.0,0.0,0.0,0.0,0.0,0.0,0.0,0.0,0.0,0.0,0.0,0.0,0.0,0.0,0.0,0.0,0.0,0.0,0.0,0.0,0.0,0.0,0.0,0.0,0.0,3.9927,4.0023,0.0,0.0,0.0,0.0,0.0,0.0,0.0,0.0,0.0,0.0,0.0,0.0,0.0,4.4626,4.6089,4.8167,4.9526,5.0184,5.1799,5.2505,5.2337,5.2573,5.2128,5.1161,5.1267,0.0,4.4495,4.2994,0.0,0.0,0.0,0.0,0.0,0.0,0.0,0.0,0.0,0.0,0.0,0.0,0.0,0.0,0.0,0.0,0.0,0.0,0.0,0.0,0.0,0.0,4.2789,4.3551,4.277,4.1687,0.0,3.6848,3.2994,3.2289,3.0611,0.0,0.0,0.0,0.0,0.0,0.0,0.0,3.3213,3.631,3.8948,4.0389,3.9995,4.0206,4.1529,4.0483,3.9314,3.8417,3.5861,3.3936,3.2882,3.0505,0.0,0.0,0.0,0.0,0.0,0.0,0.0,0.0,0.0,0.0,0.0,0.0,0.0,0.0,0.0,0.0,0.0,0.0,0.0,0.0,0.0,0.0,0.0,0.0,0.0,0.0,0.0,0.0,0.0,3.9944,4.1769,4.0854,4.174,4.1785,0.0,0.0,0.0,0.0,0.0,0.0,0.0,0.0,0.0,4.711,4.7869,4.8993,5.0525,5.1933,5.2808,5.3145,5.4634,5.5141,5.4769,5.5175,5.4898,5.4109,5.4374,5.3029,5.0388,4.7385,4.5291,4.3813,0.0,0.0,0.0,0.0,4.061,4.0642,4.0706,4.0514,0.0,4.0252,0.0,0.0,0.0,0.0,0.0,0.0,0.0,0.0,0.0,0.0,0.0,4.5037,4.4697,4.4126,4.369,4.1288,3.8526,0.0,3.436,3.2369,2.9986,0.0,0.0,0.0,0.0,3.4467,3.5707,3.787,3.9496,4.0132,3.9913,4.0008,4.0704,3.9871,3.9304,3.9314,3.7891,3.6731,3.5942,3.4072,3.1977,0.0,0.0,0.0,0.0,0.0,0.0,0.0,0.0,0.0,0.0,0.0,0.0,0.0,0.0,0.0,0.0,0.0,0.0,0.0,0.0,0.0,0.0,0.0,0.0,0.0,0.0,0.0,0.0,4.1863,4.3939,4.2343,4.4324,4.482,0.0,0.0,0.0,0.0,0.0,0.0,4.6127,4.7406,4.9093,5.1193,5.1967,5.301,5.4329,5.5074,5.5446,5.5446,5.6562,5.6799,5.6292,5.6833,5.6799,5.6258,5.6258,5.575,5.4598,5.097,4.8409,4.668,4.5342,4.446,4.3938,4.3938,4.3938,4.4004,4.4527,4.456,4.4267,4.3385,0.0,4.1983,4.0442,0.0,0.0,0.0,0.0,4.1716,4.3514,4.4586,4.5258,4.5602,4.5703,4.55,4.4784,4.3978,4.2623,0.0,3.8036,3.6157,3.3738,0.0,0.0,0.0,0.0,3.6548,3.7662,3.8878,3.9738,4.0051,3.9983,4.004,4.0413,3.9985,3.9833,4.0142,3.975,3.9079,3.8139,3.6972,3.52,3.2809,0.0,0.0,0.0,0.0,0.0,0.0,0.0,0.0,0.0,0.0,0.0,0.0,0.0,0.0,0.0,0.0,0.0,0.0,0.0,0.0,0.0,0.0,0.0,0.0,0.0,0.0,0.0,0.0,0.0,4.6388,4.8365,0.0,0.0,0.0,0.0,4.6318,4.7109,4.8495,5.0718,5.1626,5.274,5.4329,5.5073,5.5852,5.663,5.7374,5.7712,5.7712,5.7814,5.7814,5.778,5.7814,5.7814,5.778,5.778,5.6968,5.5445,5.3078,5.1628,5.075,4.9266,4.8658,4.8689,4.8689,4.8689,4.8689,4.8692,4.8253,4.7781,4.8388,4.7173,4.5452,4.5318,4.381,0.0,0.0,4.4273,4.4483,4.5336,4.6114,4.6515,4.5872,4.5703,4.55,4.4784,4.3978,4.3341,0.0,4.137,3.9463,3.8015,0.0,3.5481,3.4755,3.5878,3.7014,3.7726,3.8432,3.9403,4.0787,4.0433,4.0636,4.2058,4.2146,4.1841,4.1172,4.1082,4.0406,3.8902,3.8168,3.7078,3.5631,3.2823,0.0,0.0,0.0,0.0,0.0,0.0,0.0,0.0,0.0,0.0,0.0,0.0,0.0,0.0,0.0,0.0,0.0,0.0,0.0,0.0,0.0,0.0,0.0,0.0,0.0,0.0,0.0,0.0,4.9453,5.1894,0.0,5.0154,4.9223,4.9224,5.0221,5.1463,5.2977,5.4701,5.5953,5.707,5.8118,5.7949,5.7949,5.822,5.8017,5.7881,5.7881,5.7881,5.7881,5.7881,5.7881,5.7881,5.7881,5.7881,5.734,5.6325,5.504,5.3484,5.186,5.1319,5.0845,5.0439,5.0439,5.0439,5.0439,5.0439,5.027,4.9932,4.9221,4.7834,4.6312,4.5838,4.5462,4.5211,4.5307,4.563,4.6152,4.6929,4.7327,4.7327,4.6583,4.6413,4.6075,4.4886,4.435,4.4181,4.4181,4.2726,4.1084,3.9631,3.9337,3.8757,3.707,3.8417,3.9555,3.9295,3.99,4.0346,4.0414,4.0232,4.0531,4.1516,4.1136,4.0965,4.1198,4.1204,4.0729,3.9721,3.9451,3.8412,3.6483,3.4147,3.1477,0.0,0.0,0.0,0.0,0.0,0.0,0.0,0.0,0.0,0.0,0.0,0.0,0.0,0.0,0.0,0.0,0.0,0.0,0.0,0.0,0.0,0.0,0.0,0.0,0.0,4.9487,5.2694,5.1891,5.4757,5.5953,5.3687,5.345,5.3788,5.4499,5.5513,5.663,5.7848,5.8863,5.9607,6.008,5.9404,5.9032,5.9032,5.8254,5.7881,5.7881,5.7881,5.7881,5.7881,5.7881,5.7881,5.7881,5.7881,5.734,5.6393,5.5919,5.4532,5.2706,5.2706,5.2401,5.1995,5.1995,5.1995,5.1961,5.1691,5.142,5.1014,4.9763,4.8545,4.7462,4.6955,4.7158,4.7428,4.6955,4.7158,4.7665,4.8139,4.8274,4.8105,4.7361,4.6989,4.6447,4.5229,4.4784,4.4615,4.4615,4.3538,4.2286,4.1068,4.1035,4.0629,3.8903,3.9884,4.0629,4.018,4.0553,4.0629,4.0146,4.0113,4.0316,4.0798,4.0595,4.0663,4.117,4.1204,4.0865,4.0146,3.9845,3.8909,3.7211,3.5062,3.2383,2.9113,0.0,0.0,0.0,0.0,0.0,0.0,0.0,0.0,0.0,0.0,0.0,0.0,0.0,0.0,0.0,0.0,0.0,0.0,0.0,0.0,0.0,0.0,0.0,4.8,5.1866,5.4465,5.3788,5.69,5.8254,5.6053,5.7137,5.8254,5.8998,5.9066,5.9404,6.0114,6.0148,6.0182,6.0182,5.9438,5.9032,5.9032,5.8287,5.7881,5.7881,5.7881,5.7881,5.7881,5.7881,5.7881,5.7881,5.7881,5.707,5.5715,5.5681,5.4837,5.3551,5.3518,5.3518,5.3518,5.3518,5.3518,5.3382,5.2604,5.186,5.105,5.0371,4.9627,4.9018,4.9018,4.9018,4.9018,4.9018,4.9018,4.9018,4.9018,4.9018,4.8815,4.8041,4.7327,4.6583,4.5838,4.5094,4.4615,4.4615,4.3978,4.32,4.2455,4.1711,4.0967,4.0248,4.0113,0.0,4.0113,4.0113,4.0113,4.0113,4.0113,4.0113,4.0146,4.0764,4.117,4.117,4.1136,4.0798,4.0138,3.9393,3.8681,3.797,3.5689,3.3195,3.0588,0.0,0.0,0.0,0.0,0.0,0.0,0.0,0.0,0.0,0.0,0.0,0.0,0.0,0.0,0.0,0.0,0.0,0.0,0.0,0.0,0.0,4.857,5.0453,5.1024,5.4497,5.7306,5.8186,5.9708,6.0452,5.981,5.9607,5.9573,5.9776,6.0351,6.0757,6.096,6.1467,6.1772,6.1772,6.0486,5.981,5.981,5.8524,5.7881,5.7881,5.7881,5.7881,5.7881,5.7881,5.7881,5.7881,5.7881,5.7374,5.6461,5.5919,5.5141,5.4228,5.3721,5.3518,5.3518,5.3518,5.3518,5.3484,5.3247,5.2334,5.1183,5.098,5.0033,4.9018,4.9018,4.9018,4.9018,4.9018,4.9018,4.9018,4.9018,4.9018,4.868,4.7394,4.6955,4.6447,4.519,4.475,4.4615,4.4615,4.4445,4.4012,4.3234,4.2489,4.1745,4.1001,4.0426,0.0,4.0113,4.0113,4.0113,4.0113,4.0113,4.0316,4.0832,4.0595,4.0417,4.0417,3.9884,3.97,3.9846,3.9698,3.942,3.9091,3.6245,3.4158,0.0,0.0,0.0,0.0,0.0,0.0,0.0,0.0,0.0,0.0,0.0,0.0,0.0,0.0,0.0,0.0,0.0,0.0,0.0,0.0,0.0,0.0,5.1894,5.4025,5.5378,5.7171,5.893,6.0419,6.1298,6.1772,6.1772,6.1332,6.1061,6.1061,6.1501,6.1772,6.1772,6.2144,6.2381,6.2381,6.0892,6.0114,6.0114,5.8626,5.7881,5.7881,5.7881,5.7881,5.7881,5.7881,5.7881,0.0,5.7881,5.7306,5.6325,5.5886,5.5074,0.0,0.0,0.0,0.0,0.0,5.3518,5.3518,5.3518,5.2503,5.1185,5.1185,5.0202,4.9018,4.9018,4.9018,4.9018,4.9018,4.9018,4.9018,4.9018,4.9018,4.8714,4.753,4.7022,4.6481,4.5297,4.4818,4.4665,4.4934,0.0,0.0,4.4673,4.3329,4.2049,4.1305,4.0561,4.0113,4.0113,4.0113,4.0113,4.0113,4.0113,4.0349,4.1007,4.0681,0.0,0.0,0.0,3.9557,3.9245,3.921,0.0,0.0,0.0,0.0,0.0,0.0,0.0,0.0,3.3316,3.3402,0.0,0.0,0.0,0.0,0.0,0.0,0.0,0.0,0.0,0.0,0.0,0.0,0.0,0.0,0.0,0.0,5.5212,5.7859,6.0065,5.9749,5.981,6.1264,6.2009,6.2381,6.2381,6.2381,6.2381,6.2381,6.2381,6.2381,6.2381,0.0,0.0,0.0,0.0,6.0047,5.9979,5.8592,5.7881,5.7881,5.7881,5.7881,5.7881,5.7881,5.7881,5.7881,5.7814,5.7002,5.5681,5.5615,5.4769,5.3518,5.3518,5.3518,5.3518,5.3518,5.3518,5.3518,5.3518,0.0,0.0,5.1185,5.0202,4.9018,4.9018,4.9018,4.9018,4.9018,4.9046,4.9107,4.9107,4.9199,4.9022,4.8175,4.7491,4.681,4.596,4.5245,4.4961,4.5494,4.5597,4.5765,4.6294,4.4237,4.2286,4.1639,4.0823,4.0303,4.0303,4.0303,4.0303,4.0303,0.0,0.0,4.0967,4.0978,4.1193,4.1648,4.1115,4.0182,3.8796,3.8818,3.8838,3.8838,3.8731,3.907,3.9767,3.9767,3.9822,3.9786,3.5613,3.506,0.0,0.0,0.0,0.0,0.0,0.0,0.0,0.0,0.0,0.0,0.0,0.0,0.0,0.0,0.0,5.562,5.7527,5.9461,6.1773,6.1388,6.1197,6.2076,6.2313,6.2381,6.2381,6.2381,6.2381,6.2381,6.2381,6.2381,6.2381,6.2381,6.211,6.1535,6.0588,5.981,5.9235,5.8321,5.7881,5.7881,0.0,0.0,5.7881,5.7881,5.7881,5.7848,5.7273,5.6528,5.5683,5.5074,5.4296,5.3518,5.3518,5.3518,5.3518,5.3518,5.3518,5.3518,5.3518,5.2503,5.1185,5.1185,5.0202,4.9018,4.9018,4.9018,0.0,4.9018,4.9372,4.9809,4.9809,5.0258,5.0338,4.8968,4.8511,4.802,4.659,4.6168,4.6088,4.6209,4.6233,4.6246,4.6365,4.4929,4.3711,4.357,4.2342,4.1464,4.1464,4.1464,4.1464,4.1464,4.1464,4.153,4.1639,4.1639,4.1421,4.0946,4.1176,4.1211,4.0923,4.1306,4.1572,4.1572,4.0898,4.0642,4.0825,4.0825,4.1153,4.1737,3.975,3.9175,0.0,0.0,0.0,0.0,0.0,0.0,0.0,0.0,0.0,0.0,0.0,4.8578,5.0845,0.0,5.5101,5.8049,5.984,6.1363,6.2922,6.313,6.294,6.243,6.2381,6.2381,6.2381,6.2381,6.2381,6.2381,6.2779,6.3049,6.3049,6.3082,6.2921,6.2575,6.1397,6.0636,6.0255,5.9527,5.8909,5.8494,5.8494,5.8281,5.7881,5.7881,5.7881,5.7848,5.7103,5.6393,5.558,5.4499,5.3822,5.3518,5.3518,5.3518,5.3518,5.3518,5.3717,5.4042,5.4042,5.3297,5.232,5.232,5.128,5.0033,5.0033,5.0033,5.0033,5.0033,5.0314,5.0554,5.0554,5.0823,5.0722,4.9164,4.881,4.836,4.6743,4.6389,4.6483,4.6842,4.691,4.6999,4.7284,4.605,4.4818,4.4201,4.2802,4.181,4.181,4.181,4.181,4.181,4.181,4.1916,4.2241,4.2521,4.2496,4.2118,4.2359,4.2304,4.1903,4.2184,4.2286,4.2286,4.1919,4.1919,4.2286,4.2286,4.2506,4.2873,4.2227,4.1903,0.0,0.0,0.0,0.0,0.0,0.0,0.0,4.7615,4.797,4.9898,5.0541,5.1657,5.4668,5.5958,5.7491,6.0143,6.1693,6.2818,6.3615,6.4148,6.3937,6.2373,6.2595,6.2855,6.2659,6.2817,6.2931,6.2931,6.3537,6.3866,6.3727,6.3789,6.366,6.3341,6.2139,6.1428,6.1286,6.0684,5.996,5.9111,5.9278,5.884,5.7918,5.8074,5.8041,5.7865,5.7156,5.6406,5.5621,5.4426,5.3913,5.3913,5.3913,5.3913,5.3881,5.3618,5.3979,5.4606,5.4606,5.4075,5.3387,5.3387,5.236,5.1086,5.1086,5.1086,5.1086,5.1086,5.1189,5.1292,5.1292,5.1393,5.1137,4.9567,4.9174,4.8746,4.7117,4.6761,4.6932,4.747,4.7554,4.7736,4.8229,4.6985,4.5567,4.4592,4.3123,4.2144,4.2144,4.2144,4.2144,4.2144,4.2144,4.2306,4.2808,4.325,4.3515,4.3515,4.3515,4.3221,4.2543,4.2543,4.2543,4.2543,4.2543,4.2837,4.3515,4.3515,4.3515,4.3515,4.3515,4.3515,5.0232,4.9235,4.8978,4.9562,4.9652,5.0668,0.0,5.4559,5.3856,5.4769,5.5987,5.7002,5.7442,5.8768,6.0359,6.2018,6.2435,6.2817,6.3579,6.3124,6.2382,6.154,6.3375,6.4427,6.361,6.4253,6.4698,6.4698,6.4799,6.455,6.3846,6.3804,6.3165,6.1817,6.1604,6.118,6.0508,6.0468,5.996,5.9111,5.9896,5.9445,5.792,5.8681,5.8625,5.7872,5.718,5.6423,5.5683,5.5536,5.5466,5.5466,5.5466,5.5466,5.5291,5.3979,5.3979,5.4606,5.4606,5.4075,5.3387,5.3387,5.236,5.1086,5.1086,5.1086,5.1086,5.1086,5.1519,5.1994,5.1994,5.2486,5.2556,5.0947,5.0581,5.0106,4.846,4.8094,4.8114,4.8173,4.8209,4.8229,4.8287,4.6985,4.5847,4.5736,4.4327,4.3321,4.3321,4.3321,4.3321,4.3321,4.3321,4.3339,4.3391,4.348,4.3515,4.3515,4.3515,4.3478,4.3351,4.3351,4.3351,4.3351,4.3351,4.3404,4.3515,4.3515,4.3515,4.3515,4.3515,4.3515,5.3673,5.2883,5.2582,5.3838,5.4115,5.4668,5.7062,5.6713,5.6224,5.7408,5.8118,5.8829,5.9708,6.0418,6.1223,6.232,6.2869,6.3302,6.3648,6.3447,6.2958,6.2174,6.3028,6.3359,6.2473,6.2684,6.3094,6.3556,6.4068,6.4205,6.3852,6.3935,6.3687,6.3036,6.2529,6.2131,6.1806,6.1806,6.1371,6.0575,6.0938,6.024,5.865,5.9034,5.8492,5.7307,5.7035,5.6438,5.5724,5.5724,5.5724,5.5724,5.5724,5.5724,5.5638,5.4999,5.5267,5.5928,5.5928,5.5382,5.4665,5.4665,5.3615,5.2325,5.2325,5.2325,5.2325,5.2325,5.2509,5.2747,5.2747,5.2959,5.2763,5.1169,5.0802,5.0325,4.8673,4.8306,4.8306,4.8306,4.8306,4.8306,4.8306,4.6985,4.5883,4.5883,4.4525,4.3515,4.3515,4.3515,4.3515,4.3515,4.3515,4.3515,4.3515,4.3515,4.3515,4.3515,4.3515,4.3515,4.3515,4.3515,4.3515,4.3515,4.3515,4.3515,4.3515,4.3515,4.3515,4.3515,4.3515,4.3515,5.5008,5.5311,5.6143,5.7366,5.8096,5.8675,5.9222,5.8875,5.8583,5.917,5.9505,5.9911,6.0791,6.096,6.1231,6.1975,6.2624,6.311,6.3317,6.324,6.2822,6.1737,6.15,6.1278,6.087,6.163,6.244,6.326,6.3957,6.4199,6.3981,6.4061,6.398,6.3759,6.3135,6.278,6.278,6.278,6.2376,6.1604,6.1607,6.076,5.9198,5.8982,5.826,5.7198,5.7198,5.6877,5.6331,5.6331,5.6331,5.6331,5.6331,5.6331,5.6331,5.6331,5.6554,5.6912,5.6912,5.6322,5.5596,5.5596,5.4509,5.3203,5.3203,5.3203,5.3203,5.3203,5.3203,5.3203,5.3203,5.3203,5.2763,5.1169,5.0802,5.0325,4.8673,4.8306,4.8306,4.8306,4.8306,4.8306,4.8306,4.7168,4.6177,4.592,4.4709,4.3754,4.3551,4.3515,4.3515,4.3515,4.3515,4.3515,4.3515,4.3515,4.3515,4.3515,4.3515,4.3515,4.3515,4.3515,4.3515,4.3515,4.3515,4.3515,4.3515,4.3515,4.3515,4.3515,4.3515,4.3515,5.3284,5.5735,5.9127,5.9357,6.1009,6.2608,6.2573,6.2502,6.1979,6.0408,6.0689,6.1028,6.0283,6.0148,6.0385,6.1197,6.1371,6.1608,6.2318,6.1816,6.0799,5.9306,5.8462,5.8393,0.0,6.2116,6.4279,6.5134,6.5249,6.4945,6.4138,6.409,6.3723,6.2879,6.278,6.278,6.278,6.278,6.2376,6.1604,6.1573,6.0745,5.9193,5.8383,5.7989,5.7987,5.7987,5.795,5.795,5.795,5.795,5.795,5.795,5.795,5.795,5.795,5.7474,5.6912,5.6912,5.6322,5.5596,5.5596,5.4509,5.3203,5.3203,5.3203,5.3203,5.3203,5.3203,5.3203,5.3203,5.3203,5.2763,5.1169,5.0802,5.0325,4.8673,4.8306,4.8306,4.8306,4.8306,4.8306,4.8306,4.759,4.6782,4.603,4.5186,4.4378,4.3625,4.3515,4.3515,4.3515,4.3515,4.3515,4.3515,4.3515,4.3515,4.3515,4.3515,4.3515,4.3515,4.3515,4.3515,4.3515,4.3515,4.3515,4.3515,4.3515,4.3515,4.3515,4.3515,4.3515,5.6758,5.8811,6.1178,6.2907,6.3838,6.4321,6.4237,6.3377,6.2256,6.1155,6.0317,5.9708,5.9438,5.937,5.9641,6.0385,6.096,6.1569,6.2279,6.2282,6.1555,6.0008,6.0114,6.0269,6.0046,0.0,0.0,6.2703,6.2858,6.2749,6.2458,6.2954,6.3099,6.278,6.278,6.278,6.278,6.278,6.2386,6.1598,6.0518,5.9737,5.9175,5.8348,5.8006,5.7997,5.7997,5.7997,5.7997,5.7997,5.7997,5.7997,5.7997,5.7997,5.7997,5.7997,5.7821,5.7558,5.701,5.6273,5.55,5.4987,5.4069,5.3203,5.3203,5.3203,5.3203,5.3203,5.3203,5.3203,5.3203,5.3203,5.2763,5.1169,5.0802,5.0325,4.8673,4.8306,4.8306,4.8306,4.8306,4.8306,4.8306,4.7626,4.6636,4.5333,4.4415,4.3791,4.3551,4.3515,4.3515,4.3515,4.3515,4.3515,4.3515,4.3515,4.3515,4.3515,4.3515,4.3515,4.3515,4.3515,4.3515,4.3515,4.3515,4.3515,4.3515,4.3515,4.3515,4.3515,4.3515,4.3515,5.9249,6.0993,6.2584,6.5076,6.587,6.5865,6.5155,6.4,6.2579,6.0857,5.9268,5.8051,5.7543,5.7205,5.7543,5.9066,6.0007,6.1118,6.265,6.2711,6.2123,6.0867,6.0755,6.0689,6.0439,5.8981,0.0,6.1806,6.1742,6.1715,6.2023,6.2515,6.278,6.278,6.278,6.278,6.278,6.2511,6.1814,6.075,5.9685,5.9038,5.8767,5.8253,5.7997,5.7997,5.7997,5.7997,5.7997,5.7997,5.7997,5.7997,5.7997,5.7997,5.7997,5.7997,5.7997,5.7886,5.7079,5.6271,5.5464,5.4656,5.3849,5.3203,5.3203,5.3203,5.3203,5.3203,5.3203,5.3203,5.3203,5.3203,5.2763,5.1169,5.0802,5.0325,4.8673,4.8306,4.8306,4.8306,4.8306,4.8306,4.8306,4.7369,4.6305,4.5296,4.4195,4.3515,4.3515,4.3515,4.3515,4.3515,4.3515,4.3515,4.3515,4.3515,4.3515,4.3515,4.3515,4.3515,4.3515,4.3515,4.3515,4.3515,4.3515,4.3515,4.3515,4.3515,4.3515,4.3515,4.3515,4.3515,6.0522,6.2185,6.3357,6.5815,6.6993,6.7109,6.529,6.4294,6.2775,5.9573,5.7645,5.6122,5.4668,5.389,5.4363,5.7311,5.8634,6.0288,6.3306,6.323,6.2581,6.173,6.0443,5.9844,6.0476,5.9181,0.0,6.2595,0.0,6.1869,6.2705,6.278,6.278,6.278,6.2768,6.2768,6.2768,6.1887,6.0713,5.9184,5.9148,5.8767,5.7997,5.7997,5.7997,5.7997,5.7997,5.7997,5.7997,5.7997,5.7997,5.7997,5.7997,5.7997,5.7997,5.7997,5.796,5.7813,5.7042,5.6235,5.5486,5.462,5.3812,5.3203,5.3203,5.3203,5.3203,5.3203,5.3203,5.3203,5.3203,5.3203,5.2763,5.1169,5.0802,5.0325,4.8673,4.8306,4.8306,4.8306,4.8306,4.8306,4.8306,4.6985,4.5957,4.592,4.4562,4.3551,4.3515,4.3515,4.3515,4.3515,4.3515,4.3515,4.3515,4.3515,4.3515,4.3515,4.3515,4.3515,4.3515,4.3515,4.3515,4.3515,4.3515,4.3515,4.3515,4.3515,4.3515,4.3515,4.3515,4.3515,6.0719,6.247,6.3831,6.5046,6.5538,6.5248,6.3587,6.2229,6.053,5.7897,5.5277,5.3179,5.2232,5.2367,5.3412,5.595,5.8455,6.0977,6.3439,6.4781,6.4699,6.2664,6.3209,6.3099,6.1492,6.0937,6.1281,0.0,6.1505,6.1045,6.1879,6.249,6.278,6.278,6.2218,6.1924,6.1924,6.0529,5.9588,5.9184,5.8584,5.8217,5.7997,5.7997,5.7997,5.7997,5.7997,5.7997,5.7997,5.7997,5.7997,5.7997,5.7997,5.7997,5.7997,5.7997,5.7629,5.7005,5.6198,5.5757,5.5354,5.3959,5.335,5.3203,5.3203,5.3203,5.3203,5.3203,5.3203,5.3203,5.3203,5.3203,5.2763,5.1169,5.0802,5.0325,4.8673,4.8306,4.8306,4.8306,4.8306,4.8306,4.8306,4.7443,4.6599,4.5993,4.5039,4.4195,4.3588,4.3515,4.3515,4.3515,4.3515,4.3515,4.3515,4.3515,4.3515,4.3515,4.3515,4.3515,4.3515,4.3515,4.3515,4.3515,4.3515,4.3515,4.3515,4.3515,4.3515,4.3515,4.3515,4.3515,6.1706,6.3082,6.3969,6.4794,6.4751,6.3917,6.1639,6.0218,5.8424,5.5043,5.2739,5.1014,4.9965,5.0371,5.1717,5.4348,5.7712,6.0873,6.3483,6.5328,6.5921,6.4511,6.4599,6.4237,6.2842,6.2036,6.1922,0.0,6.165,6.1272,6.2103,6.2541,6.278,6.278,6.2034,6.1263,6.0566,5.9625,5.9001,5.8694,5.8217,5.7997,5.7997,5.7997,5.7997,5.7997,0.0,5.7997,5.7997,5.7997,5.7997,5.7997,5.7997,5.7997,5.7997,5.7997,5.7483,5.6675,5.5868,5.5354,5.4876,5.3628,5.3203,5.3203,5.3203,5.3203,5.3203,5.3203,5.3203,5.3203,5.3203,5.3203,5.2763,5.1169,5.0802,5.0325,4.8673,4.8306,4.8306,4.8306,4.8306,4.8306,4.8306,4.7626,4.6966,4.6489,4.5425,4.4562,4.4085,4.3718,4.3515,4.3515,4.3515,4.3515,4.3515,4.3515,4.3515,4.3515,4.3515,4.3515,4.3515,4.3515,4.3515,4.3515,4.3515,4.3515,4.3515,4.3515,4.3515,4.3515,4.3515,4.3515,6.2855,6.3555,6.3719,6.4495,6.4031,6.2598,5.9559,5.8076,5.6083,5.1649,5.0033,4.8984,4.7699,4.8071,4.9625,5.2837,5.6551,6.0164,6.3456,6.5316,6.637,6.6512,6.5154,6.42,6.409,6.2658,6.2034,6.2743,6.2129,6.2049,6.2755,6.278,6.267,6.2511,6.1704,6.0566,5.9038,5.9038,5.8694,5.7997,5.7997,5.7997,5.7997,5.7997,5.7997,5.7997,0.0,0.0,5.7997,5.7997,5.7997,5.7997,5.7997,5.7997,5.7997,5.7886,5.7336,5.6528,5.5721,5.4913,5.4142,5.3424,5.3203,5.3203,5.3203,5.3203,5.3203,5.3203,5.3203,5.3203,5.3203,5.3203,5.28,5.1316,5.0875,5.0362,4.882,4.8379,4.8306,4.8306,4.8306,4.8306,4.8306,4.77,4.7223,4.7113,4.5828,4.4819,4.4709,4.4011,4.3515,4.3515,4.3515,4.3515,4.3515,4.3515,4.3515,4.3515,4.3515,4.3515,4.3515,4.3515,4.3515,4.3515,4.3515,4.3515,4.3515,4.3515,4.3515,4.3515,4.3515,4.3515,6.2332,6.26,6.2659,6.2817,6.1797,6.0123,5.7765,5.5213,5.236,4.9151,4.6921,4.5495,4.5224,4.5771,4.7695,5.1968,5.4826,5.8264,6.3268,6.4831,6.5702,6.6423,6.5668,6.4824,6.4163,6.3172,6.2658,0.0,6.2679,6.2643,6.278,6.278,6.2218,6.086,6.0052,5.9171,5.8217,5.8217,5.8143,5.7997,5.7997,5.7997,5.7997,5.7997,5.7997,5.7997,5.7997,0.0,5.7997,5.7997,5.7997,5.7997,5.7997,5.7997,5.7923,5.7262,5.6492,5.5684,5.4876,5.4069,5.3408,5.324,5.3203,5.3203,5.3203,5.3203,5.3203,5.3203,5.3203,5.3203,5.3203,5.3203,5.2968,5.2013,5.1279,5.0545,4.9574,4.882,4.8306,4.8306,4.8306,4.8306,4.8306,4.8196,4.7846,4.7186,4.6324,4.5443,4.4764,4.4011,4.3515,4.3515,4.3515,4.3515,4.3515,4.3515,4.3515,4.3515,4.3515,4.3515,4.3515,4.3515,4.3515,4.3515,4.3515,4.3515,4.3515,4.3515,4.3515,4.3515,4.3515,4.3515,6.2279,6.2685,6.2888,6.2482,6.096,5.8761,5.5784,5.3044,5.0101,4.6317,4.4722,4.3842,4.347,4.4654,4.6661,4.9624,5.2403,5.5909,6.0902,6.232,6.362,6.5626,6.5154,6.453,6.4127,6.3319,6.278,6.278,6.278,6.278,6.278,6.2401,6.1447,5.9832,5.9404,5.8804,5.7997,5.7997,5.7997,5.7997,5.7997,5.7997,5.7997,5.7997,5.7997,5.7997,5.7997,0.0,5.796,5.7556,5.7629,5.796,5.7556,5.7629,5.7886,5.7116,5.6308,5.5464,5.4693,5.3885,5.3203,5.3203,5.3203,5.3203,5.3203,5.3203,5.3203,5.3203,5.3203,5.3203,5.3203,5.3203,5.3004,5.2197,5.1059,4.9958,4.9114,4.86,4.8306,4.8306,4.8306,4.8306,4.8306,4.8306,4.8196,4.7773,4.7058,4.6397,4.6012,4.4892,4.3975,4.3551,4.3515,4.3515,4.3515,4.3515,4.3515,4.3515,4.3515,4.3515,4.3515,4.3515,4.3515,4.3515,4.3515,4.3515,4.3515,4.3515,4.3515,4.3515,4.3515,4.3515,6.2313,6.2821,6.3125,6.2516,6.0554,5.7848,5.4296,5.1352,4.8206,4.4045,4.2929,4.2557,4.2151,4.3538,4.5399,4.7361,4.9855,5.3305,5.8196,5.978,6.1589,6.4673,6.4494,6.409,6.409,6.3319,6.278,6.278,6.2658,0.0,6.2548,6.1777,6.0676,5.9258,5.9038,5.8657,5.7997,5.7997,5.7997,5.7997,5.7997,5.7997,5.7997,5.7997,5.7997,5.7997,5.7997,0.0,0.0,5.7079,5.7079,5.7409,5.6785,5.6932,5.7373,5.6602,5.5904,5.5207,5.4436,5.3739,5.3203,5.3203,5.3203,5.3203,5.3203,5.3203,5.3203,5.3203,5.3203,5.3203,5.3203,5.3203,5.3004,5.2197,5.0896,4.9627,4.8746,4.8416,4.8306,4.8306,4.8306,4.8306,4.8306,4.8306,4.8306,4.8306,4.7626,4.7113,4.7113,4.5828,4.4635,4.3828,4.3625,4.3515,4.3515,4.3515,4.3515,4.3515,4.3515,4.3515,4.3515,4.3515,4.3515,4.3515,4.3515,4.3515,4.3515,4.3515,4.3515,4.3515,4.3515,4.3515,6.2009,6.2448,6.2482,6.2415,6.0182,5.7205,5.4194,5.0168,4.621,4.3031,4.1365,4.0587,4.1204,4.1474,4.276,4.6312,4.7721,5.0424,5.6374,5.8549,6.0662,6.3852,6.4127,6.409,6.409,6.3319,6.278,6.278,6.2108,0.0,6.1704,6.097,6.0126,5.9221,5.851,5.807,5.7997,5.7997,5.7997,5.7997,5.7997,5.7997,5.7997,5.7997,5.7997,5.7997,5.7997,0.0,0.0,5.6822,5.6418,5.5794,5.5721,5.578,5.5721,5.4913,5.4583,5.4399,5.3592,5.324,5.3203,5.3203,5.3203,5.3203,5.3203,5.3203,5.3203,5.3203,5.3203,5.3203,5.3203,5.3203,5.3004,5.2197,5.1316,5.0472,4.9647,4.8857,4.8306,4.8306,4.8306,4.8306,4.8306,4.8306,4.8306,4.8306,4.7626,4.7113,4.7113,4.6324,4.548,4.4672,4.3938,4.3515,4.3515,4.3515,4.3515,4.3515,4.3515,4.3515,4.3515,4.3515,4.3515,4.3515,4.3515,4.3515,4.3515,4.3515,4.3515,4.3515,4.3515,4.3515,6.1332,6.2381,6.2854,6.1975,5.981,5.7002,5.3585,4.9695,4.594,4.2895,4.1128,4.018,4.0485,4.0899,4.1982,4.4384,4.5026,4.7118,5.2704,5.4117,5.6187,6.0604,6.1594,6.2254,6.3209,6.3025,6.2622,6.2108,6.1777,0.0,6.0236,5.9869,5.9318,5.851,5.818,5.7997,5.7997,5.7997,5.7997,5.7997,5.7997,5.7997,5.7997,5.7997,5.7997,5.796,5.7483,0.0,0.0,5.5757,5.5464,5.5559,5.506,5.517,5.55,5.4693,5.4399,5.4289,5.3482,5.3203,5.3203,5.3203,5.3203,5.3203,5.3203,5.3203,5.3203,5.3203,5.3203,5.3203,5.3203,5.3203,5.3004,5.2197,5.1389,5.0582,4.9757,4.893,4.8306,4.8306,4.8306,4.8306,4.8306,4.8306,4.8306,4.8306,4.8049,4.781,4.781,4.7113,4.6324,4.5516,4.4709,4.4011,4.3551,4.3515,4.3515,4.3515,4.3515,4.3515,4.3515,4.3515,4.3515,4.3515,4.3515,4.3718,4.4232,4.4232,4.4452,4.4929,4.4452,4.4488,6.008,6.1535,6.2245,6.1197,5.9066,5.6393,5.3145,4.9289,4.5737,4.3166,4.1297,4.018,4.0383,4.0663,4.1305,4.2557,4.3287,4.5328,4.9892,5.1347,5.3446,5.7624,5.9061,6.0236,6.1606,6.2377,6.2475,6.1667,6.1374,0.0,5.9258,5.8964,5.8584,5.8033,5.7997,5.7997,5.7997,5.7997,5.7997,5.7997,5.7997,5.7997,5.7997,5.7997,5.7886,5.7593,0.0,0.0,0.0,5.4876,5.4583,5.484,5.4289,5.4399,5.4803,5.4252,5.4069,5.3959,5.3387,5.3203,5.3203,5.3203,5.3203,5.3203,5.3203,5.3203,5.3203,5.3203,5.3203,5.3203,5.3203,5.3203,5.3078,5.2491,5.1756,5.0912,5.0105,4.9297,4.86,4.8343,4.8306,4.8306,4.8306,4.8306,4.8306,4.8306,4.8306,4.8306,4.8306,4.781,4.7149,4.6361,4.5755,4.4892,4.3625,4.3718,4.3754,4.3515,4.3718,4.3754,4.3515,4.3515,4.3608,4.3864,4.3864,4.4232,4.5039,4.5039,4.5369,4.5883,4.5333,4.5369,5.8254,5.9573,6.0148,6.0114,5.7915,5.5141,5.2841,4.8883,4.5263,4.3713,4.1644,4.0316,4.1068,4.0595,4.0383,4.1102,4.3014,4.5476,4.86,5.1502,5.3891,5.5434,5.7042,5.8327,5.9148,6.1386,6.2475,6.1667,6.086,0.0,5.9221,5.8437,5.7997,5.7997,5.7997,5.7997,5.7997,5.7997,5.7997,5.7997,5.7997,5.7997,5.7997,5.7997,5.7556,0.0,0.0,0.0,0.0,5.4399,5.3959,5.3203,5.3203,5.3203,5.3203,5.3203,5.3203,5.3203,5.3203,5.3203,5.3203,5.3203,5.3203,5.3203,5.3203,5.3203,5.3203,5.3203,5.3203,5.3203,5.3203,5.3203,5.3203,5.3167,5.2564,5.1756,5.0949,5.0141,4.9353,4.8489,4.8306,4.8306,4.8306,4.8306,4.8306,4.8306,4.8306,4.8306,4.8306,4.8306,4.7976,4.7186,4.7076,4.6085,4.3681,4.4232,4.4342,4.3551,4.4268,4.4342,4.3551,4.3515,4.3864,4.4654,4.4709,4.5076,4.5883,4.5883,4.5883,4.5883,4.5883,4.5883,5.4837,5.6528,5.734,5.5277,5.4499,5.3348,5.0067,4.7428,4.5128,4.3064,4.1271,4.018,4.0417,4.0282,4.0688,4.2422,4.3287,4.4923,4.8392,5.062,5.2809,5.5302,5.8474,6.0786,6.1569,0.0,6.2254,6.0896,0.0,0.0,5.8437,5.8143,5.7997,5.7997,5.7997,5.7997,5.7997,5.7997,5.7997,5.7997,5.7997,5.7703,5.7189,5.7189,0.0,0.0,0.0,0.0,0.0,5.3812,5.3424,5.3203,5.3203,5.3203,5.3203,5.3203,5.3203,5.3203,5.3203,5.3203,5.3203,5.3203,5.3203,5.3203,5.3203,5.3203,5.3203,5.3203,5.3203,5.3203,5.3203,5.3203,5.3203,5.3203,5.2601,5.1756,5.0986,5.0178,4.9353,4.8489,4.8306,4.8306,4.8306,4.8306,4.8306,4.8306,4.8306,4.8306,4.8306,4.8306,4.7993,4.7186,4.7113,4.6562,4.5259,4.5369,4.5406,4.5149,4.5369,4.5406,4.5149,4.5149,4.5259,4.5516,4.5516,4.592,4.6709,4.6709,4.6709,4.6709,4.7278,4.7241,5.2198,5.3856,5.4668,5.2773,5.2266,5.1454,4.8578,4.6312,4.4451,4.2997,4.1305,4.018,4.0485,4.0282,4.0629,4.2219,4.316,4.4769,4.7879,5.0163,5.2627,5.5691,5.851,6.0676,0.0,6.2181,6.1814,6.0493,0.0,0.0,5.807,5.7997,5.7997,5.7997,5.7997,5.7997,5.7997,5.7997,5.7997,5.7997,5.7703,5.7299,5.6785,5.6492,0.0,0.0,0.0,0.0,0.0,5.3408,5.3203,5.3203,5.3203,5.3203,5.3203,5.3203,5.3203,5.3203,5.3203,5.3203,5.3203,5.3203,5.3203,5.3203,5.3203,5.3203,5.3203,5.3203,5.3203,5.3203,5.3203,5.3203,5.3203,5.3203,5.2601,5.1756,5.0986,5.0178,4.9353,4.8489,4.8306,4.8306,4.8306,4.8306,4.8306,4.8306,4.8306,4.8306,4.8306,4.8306,4.8122,4.759,4.7553,4.7333,4.6838,4.6544,4.6214,4.592,4.6177,4.6214,4.592,4.5883,4.603,4.6361,4.6361,4.6764,4.7553,4.7553,4.7553,4.7553,4.8086,4.8049,0.0,5.1386,5.1961,5.1792,5.0811,4.9458,4.7906,4.5404,0.0,4.3274,4.1576,4.035,4.1214,4.0697,4.0387,4.1174,4.3019,4.5112,4.7349,5.0368,5.3518,5.6675,5.7776,5.8877,6.0419,6.119,6.1263,0.0,0.0,0.0,5.8033,5.7997,5.7997,5.7997,5.7997,5.7997,5.7997,5.7997,5.7997,5.7997,5.7189,5.6785,5.6712,5.5868,0.0,0.0,0.0,0.0,0.0,5.3203,5.3203,5.3203,5.3203,5.3203,5.3203,5.3203,5.3203,5.3203,5.3203,5.3203,5.3203,5.3203,5.3203,5.3203,5.3203,5.3203,5.3203,5.3203,5.3203,5.3203,5.3203,5.3203,5.3203,5.3203,5.2637,5.183,5.0986,5.0215,4.9427,4.8489,4.8306,4.8306,4.8306,4.8306,4.8306,4.8306,4.8306,4.8306,4.8306,4.8306,4.8306,4.8306,4.8306,4.8306,4.8306,4.7626,4.6856,4.6104,4.6746,4.6856,4.6104,4.6067,4.6434,4.7186,4.7186,4.7553,4.8306,4.8306,4.8306,4.8306,4.8306,4.8306,4.665,0.0,4.8545,4.6819,4.7018,4.7022,0.0,4.3882,4.3071,4.1948,4.0832,4.0662,4.2561,4.1688,4.1682,4.4636,4.5541,4.6682,4.8884,5.2951,5.6638,5.9245,6.0272,6.1153,6.2144,6.1851,6.1263,0.0,0.0,5.8877,5.8033,5.7997,5.7997,5.7997,5.7997,5.7997,5.7997,5.7997,5.7997,5.7997,5.7189,5.6492,5.5831,5.506,0.0,0.0,0.0,0.0,5.3203,5.3203,5.3203,5.3203,5.3203,5.3203,5.3203,5.3203,5.3203,5.3203,5.3203,5.3203,5.3203,5.3203,5.3203,5.3203,5.3203,5.3203,5.3203,5.3203,5.3203,5.3203,5.3203,5.3203,5.3203,5.3203,5.3078,5.2527,5.1096,5.0655,5.0068,4.86,4.8306,4.8306,4.8306,4.8306,4.8306,4.8306,4.8306,4.8306,4.8306,4.8306,4.8306,4.8306,4.8306,4.8306,4.8306,4.8122,4.7939,4.7755,4.7902,4.7939,4.7755,4.7755,4.7829,4.8012,4.7993,4.8122,4.8306,4.8306,4.8306,4.8306,4.8306,4.8306,4.5094,4.6278,4.7124,4.5906,4.594,4.5872,4.4316,4.3132,4.2185,4.1373,4.0814,4.0817,4.2053,4.2033,4.2735,4.537,4.6422,4.821,5.1877,5.5263,5.8253,6.0676,6.1337,6.1777,0.0,6.152,6.0713,0.0,0.0,5.8474,5.8033,5.7997,5.7997,5.7997,5.7997,5.7997,5.7997,5.7997,5.7813,5.7446,5.6638,5.5831,5.5023,5.4216,5.3628,0.0,0.0,0.0,5.3203,5.3203,5.3203,5.3203,5.3203,5.3203,5.3203,5.3203,5.3203,5.3203,5.3203,5.3203,5.3203,5.3203,5.3203,5.3203,5.3203,5.3203,5.3203,5.3203,5.3203,5.3203,5.3203,5.3203,5.3203,5.3203,5.2931,5.2307,5.1059,5.0508,4.9848,4.8563,4.8306,4.8306,4.8306,4.8306,4.8306,4.8306,4.8306,4.8306,4.8306,4.8306,4.8306,4.8306,4.8306,4.8306,4.8306,4.8306,4.8306,4.8306,4.8306,4.8306,4.8306,4.8306,4.8306,4.8306,4.8306,4.8306,4.8306,4.8306,4.8306,4.8306,4.8306,4.8306,4.4886,4.6021,4.7029,4.6607,4.6075,4.5495,4.4754,4.3083,4.1648,4.1512,4.1467,4.1453,4.1684,4.2789,4.4207,4.5719,4.7306,5.0162,5.5236,5.7262,5.9024,6.1337,6.1704,0.0,6.1594,6.086,0.0,0.0,0.0,5.7997,5.7997,5.7997,5.7997,5.7997,5.7997,5.7923,5.7813,5.7813,5.7483,5.6785,5.5868,5.506,5.4363,5.3592,5.3203,0.0,0.0,0.0,5.3203,5.3203,5.3203,5.3203,5.3203,5.3203,5.3203,5.3203,5.3203,5.3203,5.3203,5.3203,5.3203,5.3203,5.3203,5.3203,5.3203,5.3203,5.3203,5.3203,5.3203,5.3203,5.3203,5.3203,5.3203,5.3203,5.2674,5.194,5.1169,5.0362,4.9537,4.8673,4.8379,4.8306,4.8306,4.8306,4.8306,4.8306,4.8306,4.8306,4.8306,4.8306,4.8306,4.8306,4.8306,4.8306,4.8306,4.8306,4.8306,4.8306,4.8306,4.8306,4.8306,4.8306,4.8306,4.8306,4.8306,4.8306,4.8306,4.8306,4.8306,4.8306,4.8306,4.8306,4.6109,4.7541,4.8045,4.5563,4.5297,4.5501,4.4613,4.418,4.3672,4.2891,4.3235,4.4059,4.5236,4.6197,4.7497,4.9594,5.1287,5.3579,5.7152,5.8437,5.9685,6.1374,0.0,6.2365,6.1667,0.0,0.0,0.0,0.0,5.7997,5.7997,5.7997,5.7997,5.7997,5.7997,5.7666,5.7005,5.6969,5.6932,5.6785,5.528,5.4509,5.4363,5.3592,5.3203,0.0,0.0,5.3203,5.3203,5.3203,5.3203,5.3203,5.3203,5.3203,5.3203,5.3203,5.3203,5.3203,5.3203,5.3203,5.3203,5.3203,5.3203,5.3203,5.3203,5.3203,5.3203,5.3203,5.3203,5.3203,5.3203,5.3203,5.3203,5.3203,5.3115,5.2821,5.1977,5.1169,5.0362,4.9574,4.8783,4.8306,4.8306,4.8306,4.8306,4.8306,4.8306,4.8306,4.8306,4.8306,4.8306,4.8306,4.8306,4.8306,4.8306,4.8306,4.8306,4.8306,4.8306,4.8306,4.8306,4.8306,4.8306,4.8306,4.8306,4.8306,4.8306,4.8306,4.8306,4.8306,4.8306,4.8306,4.4891,4.6295,4.7407,4.6102,4.6938,4.784,4.7021,4.6182,4.547,4.5007,4.5499,4.6198,4.685,4.8245,5.019,5.2947,5.5133,5.7116,5.9024,5.9979,6.0933,0.0,0.0,6.1851,6.1043,0.0,0.0,0.0,0.0,0.0,5.7997,5.7997,5.7813,5.7373,5.7336,5.6969,5.6161,5.5721,5.55,5.55,5.4766,5.4179,5.3739,5.335,5.3203,5.3203,0.0,5.3203,5.3203,5.3203,5.3203,5.3203,5.3203,5.3203,5.3203,5.3203,5.3203,5.3203,5.3203,5.3203,5.3203,5.3203,5.3203,5.3203,5.3203,5.3203,5.3203,5.3203,5.3203,5.3203,5.3203,5.3203,5.3203,5.3203,5.3203,5.3004,5.216,5.172,5.1059,4.9831,4.9224,4.8967,4.9003,4.86,4.8453,4.893,4.86,4.8306,4.8306,4.8306,4.8306,4.8306,4.8306,4.8306,4.8306,4.8306,4.8306,4.8306,4.8306,4.8306,4.8306,4.8306,4.8306,4.8306,4.8306,4.8306,4.8306,4.8306,4.8306,4.8306,4.8306,4.8306,4.4232,4.5553,4.713,4.7382,4.8494,4.9607,4.9886,4.8758,4.7722,4.8074,4.8648,4.895,4.8384,5.0117,5.2637,5.5647,5.7886,5.9551,6.0529,6.119,6.1887,6.267,6.2108,6.1263,0.0,0.0,0.0,0.0,0.0,0.0,5.7997,5.7813,5.7446,5.6822,5.6638,5.6124,5.5317,5.4693,5.4399,5.4399,5.4216,5.3812,5.3203,5.3203,5.3203,5.3203,5.3203,5.3203,5.3203,5.3203,5.3203,5.3203,5.3203,5.3203,5.3203,5.3203,5.3203,5.3203,5.3203,5.3203,5.3203,5.3203,5.3203,5.3203,5.3203,5.3203,5.3203,5.3203,5.3203,5.3203,5.3203,5.3203,5.3203,5.3203,5.3203,5.3041,5.2417,5.2123,5.1593,5.0161,4.9848,4.9738,4.961,4.9187,4.9114,4.9774,4.9297,4.8893,4.8893,4.871,4.86,4.86,4.8416,4.8306,4.8306,4.8306,4.8306,4.8306,4.8306,4.8306,4.8306,4.8306,4.8306,4.8306,4.8306,4.8306,4.8306,4.8306,4.8306,4.8306,4.8306,4.8306,4.6105,4.734,4.8623,4.9216,4.8556,4.8708,5.227,5.1834,5.1067,5.2425,5.336,5.3219,5.0982,5.2506,5.495,5.7409,5.8621,5.9758,6.13,0.0,6.1887,6.267,6.2108,6.1263,0.0,0.0,0.0,0.0,0.0,0.0,5.7997,5.7299,5.6859,5.6822,5.6088,5.528,5.4473,5.4436,5.4399,5.4399,5.3665,5.324,5.3203,5.3203,5.3203,5.3203,5.3203,5.3203,5.3203,5.3203,5.3203,5.3203,5.3203,5.3203,5.3203,5.3203,5.3203,5.3203,5.3203,5.3203,5.3203,5.3203,5.3203,5.3203,5.3203,5.3203,5.3203,5.3203,5.3203,5.3203,5.3203,5.3203,5.3203,5.3203,5.3203,5.3167,5.3151,5.2527,5.172,5.0875,5.0729,5.0472,4.9721,5.0178,5.0655,5.0692,5.0655,5.0618,5.0618,4.9958,4.95,4.95,4.8783,4.8306,4.8306,4.8306,4.8306,4.8306,4.8306,4.8306,4.8306,4.8306,4.8306,4.8306,4.8306,4.8306,4.8306,4.8306,4.8306,4.8306,4.8306,4.8306,4.4517,4.6495,4.8648,4.8995,4.9683,5.0961,5.3462,5.393,5.429,5.586,5.6418,5.6198,5.4803,5.5684,5.7116,5.851,5.9832,6.108,6.2181,6.2365,6.2291,6.2071,6.1337,0.0,0.0,0.0,0.0,0.0,0.0,0.0,5.7997,5.7262,5.6565,5.6051,5.528,5.4473,5.3665,5.3665,5.3665,5.3665,5.3371,5.3203,5.3203,5.3203,5.3203,5.3203,5.3203,5.3203,5.3203,5.3203,5.3203,5.3203,5.3203,5.3203,5.3203,5.3203,5.3203,5.3203,5.3203,5.3203,5.3203,5.3203,5.3203,5.3203,5.3203,5.3203,5.3203,5.3203,5.3203,5.3203,5.3203,5.3203,5.3203,5.3203,5.3203,5.3203,5.3203,5.3162,5.2821,5.1765,5.1743,5.1767,5.1213,5.0912,5.0986,5.1463,5.1132,5.0802,5.0802,5.0545,5.0362,5.0362,4.9591,4.8893,4.8343,4.8306,4.8306,4.8306,4.8306,4.8306,4.8306,4.8306,4.8306,4.8306,4.8306,4.8306,4.8306,4.8306,4.8306,4.8306,4.8306,4.8306,4.3991,4.59,4.8203,4.8499,5.03,5.2527,5.4693,5.5574,5.6565,5.8694,5.8327,5.7519,5.7226,5.7226,5.7666,5.8964,6.0346,6.1484,6.2328,6.2438,6.2144,6.13,6.0529,0.0,0.0,0.0,0.0,0.0,0.0,0.0,0.0,5.6859,5.6051,5.5244,5.4436,5.3775,5.3203,5.3203,5.3203,5.3203,5.3203,5.3203,5.3203,5.3203,5.3203,5.3203,5.3203,5.3203,5.3203,5.3203,5.3203,5.3203,5.3203,5.3203,5.3203,5.3203,5.3203,5.3203,5.3203,5.3203,5.3203,5.3203,5.3203,5.3203,5.3203,5.3293,5.34,5.34,5.3484,5.3622,5.3622,5.34,5.323,5.3359,5.3314,5.323,5.3359,5.3604,5.3516,5.2567,5.2717,5.281,5.2262,5.1842,5.1756,5.2307,5.1903,5.1573,5.1573,5.1353,5.0986,5.0472,4.9941,4.9243,4.8379,4.8306,4.8306,4.8306,4.8306,4.8306,4.8306,4.8306,4.8306,4.8306,4.8306,4.8306,4.8306,4.8306,4.8306,4.8306,4.86,4.871,4.5249,4.6035,4.7296,4.8122,5.0178,5.2858,5.6088,5.6822,5.774,6.0933,5.9061,5.7079,5.7886,5.6712,5.6418,5.8781,5.9869,6.0676,6.1484,6.1594,6.13,6.0493,5.9685,0.0,0.0,0.0,0.0,0.0,0.0,0.0,0.0,5.6014,5.5207,5.4436,5.3628,5.3203,5.3203,5.3203,5.3203,5.3203,5.3203,5.3203,5.3203,5.3203,5.3203,5.3203,5.3203,5.3203,5.3203,5.3203,5.3203,5.3203,5.3203,5.3203,5.3203,5.3203,5.3203,5.3203,5.3203,5.3203,5.3203,5.3203,5.3203,5.3203,5.3203,5.3484,5.3777,5.3777,5.4135,5.4484,5.4484,5.387,5.3314,5.3702,5.3504,5.3297,5.372,5.3795,5.368,5.3273,5.3518,5.3535,5.2733,5.2929,5.3203,5.3203,5.3203,5.3203,5.3203,5.2491,5.141,4.9794,4.961,4.926,4.8379,4.8306,4.8306,4.8306,4.8306,4.8306,4.8306,4.8306,4.8306,4.8306,4.8306,4.8306,4.8306,4.8306,4.8306,4.8343,4.9187,4.961,4.4417,4.5998,4.8159,4.9003,5.1867,5.5207,5.7886,5.8487,5.9221,6.1924,6.1227,5.9905,5.9024,5.8474,5.818,5.8327,5.9024,5.9832,6.0639,6.075,6.0456,5.9625,0.0,0.0,0.0,0.0,0.0,0.0,0.0,0.0,0.0,5.55,5.4656,5.4399,5.3628,5.3203,5.3203,5.3203,5.3203,5.3203,5.3203,5.3203,5.3203,5.3203,5.3203,5.3203,5.3203,5.3203,5.3203,5.3203,5.3203,5.3203,5.3203,5.3203,5.3203,5.3203,5.3203,5.3203,5.3203,5.3203,5.3203,5.3203,5.3203,5.3203,5.3203,5.3484,5.3777,5.3777,5.4135,5.4547,5.4833,5.4288,5.3644,5.3796,5.3504,5.3297,5.372,5.4048,5.4246,5.4129,5.4199,5.4112,5.3552,5.3316,5.3203,5.3203,5.3203,5.3203,5.3203,5.3004,5.2454,5.1389,5.0765,5.0105,4.9224,4.8636,4.8306,4.8306,4.8306,4.8306,4.8306,4.8306,4.8306,4.8306,4.8306,4.8306,4.8306,4.8306,4.8636,4.9243,4.95,4.9904,4.557,4.7158,4.915,5.0655,5.3335,5.6381,5.9465,6.0419,6.1019,6.2487,6.1924,6.0933,6.0272,5.9391,5.8767,5.8914,5.9098,5.9368,5.9869,5.9942,5.9612,5.8841,0.0,0.0,0.0,0.0,0.0,0.0,0.0,0.0,0.0,5.5097,5.4252,5.3922,5.3445,5.3203,5.3203,5.3203,5.3203,5.3203,5.3203,5.3203,5.3203,5.3203,5.3203,5.3203,5.3203,5.3203,5.3203,5.3203,5.3203,5.3203,5.3203,5.3203,5.3203,5.3203,5.3203,5.3203,5.3203,5.3203,5.3203,5.3203,5.3203,5.3209,5.34,5.372,5.4118,5.4267,5.4655,5.5015,5.5262,5.4848,5.4317,5.4317,5.3888,5.3604,5.4167,5.4547,5.4775,5.4933,5.4833,5.4594,5.4153,5.3702,5.34,5.3209,5.3203,5.3203,5.3203,5.3203,5.2894,5.2087,5.1573,5.0912,5.0105,4.9591,4.915,4.882,4.882,4.8673,4.8306,4.8306,4.8306,4.8306,4.8306,4.8306,4.8306,4.8306,4.8746,4.961,4.9941,5.0508,4.7731,4.882,5.0178,5.2601,5.462,5.7005,6.0823,6.2291,6.278,6.278,6.163,6.0786,6.1374,5.9685,5.8657,5.9979,5.9575,5.9074,5.9074,5.9074,5.8841,5.8107,0.0,0.0,0.0,0.0,0.0,0.0,0.0,0.0,0.0,5.473,5.3959,5.3203,5.3203,5.3203,5.3203,5.3203,5.3203,0.0,5.3203,5.3203,5.3203,5.3203,5.3203,5.3203,5.3203,5.3203,5.3203,5.3203,5.3203,5.3203,5.3203,5.3203,5.3203,5.3203,5.3203,5.3203,5.3203,5.3203,5.3225,5.323,5.3251,5.3318,5.3739,5.4187,5.4625,5.5012,5.5399,5.5703,5.5703,5.5399,5.5121,5.5147,5.4494,5.4101,5.4919,5.5107,5.5212,5.561,5.5387,5.496,5.4563,5.4118,5.3644,5.3251,5.3203,5.3203,5.3203,5.3203,5.2931,5.2197,5.205,5.1683,5.0986,5.0839,5.0472,4.9757,4.9721,4.9334,4.8563,4.8379,4.8306,4.8306,4.8306,4.8306,4.8306,4.8306,4.8783,4.9721,5.0472,5.1279,4.6324,4.7939,5.0105,5.2601,5.6308,5.9942,6.2071,6.2695,6.278,6.278,6.2523,6.1961,6.086,6.0236,5.9575,5.8657,5.8364,5.8253,5.8253,5.8253,5.818,0.0,0.0,0.0,0.0,0.0,0.0,0.0,0.0,0.0,5.4693,5.3922,5.3408,5.3203,5.3203,5.3203,5.3203,5.3203,5.3203,0.0,5.3203,5.3203,5.3203,5.3203,5.3203,5.3203,5.3203,5.3203,5.3203,5.3203,5.3203,5.3203,5.3203,5.3203,5.3203,5.3203,5.3203,5.3203,5.3203,5.3203,5.3251,5.3565,5.3663,5.3758,5.4204,5.464,5.4974,5.5094,5.5399,5.5703,5.5703,5.5399,5.5186,5.552,5.4947,5.4484,5.4974,5.5107,5.5212,5.561,5.5387,5.496,5.4563,5.4118,5.3644,5.3251,5.3203,5.3203,5.3203,5.3203,5.3151,5.2968,5.238,5.194,5.1756,5.1169,5.0729,5.0545,5.0545,5.0472,5.0288,4.9003,4.8306,4.8306,4.8306,4.8306,4.8306,4.8306,4.9077,5.0545,5.0729,5.1573,4.7241,4.8857,5.0986,5.462,5.796,6.0713,6.1961,6.2218,6.2218,6.2218,6.2218,6.1961,6.1117,6.0346,5.9575,5.8731,5.8253,5.7997,5.7997,5.7997,5.7997,0.0,0.0,0.0,0.0,0.0,0.0,0.0,0.0,5.484,5.4436,5.3665,5.3203,5.3203,5.3203,5.3203,5.3203,5.3203,5.3203,5.3203,5.3203,5.3203,5.3203,5.3203,5.3203,5.3203,5.3203,5.3203,5.3203,5.3203,5.3297,5.3504,5.3504,5.3604,5.3833,5.3833,5.3833,5.3833,5.3833,5.3833,5.387,5.4048,5.4135,5.4221,5.4655,5.4919,5.5147,5.535,5.5554,5.5703,5.5703,5.5554,5.5435,5.5632,5.5224,5.489,5.5287,5.5387,5.5446,5.5682,5.5387,5.496,5.4563,5.3961,5.3444,5.323,5.3203,5.3203,5.3203,5.3203,5.3203,5.3203,5.2821,5.2564,5.2564,5.2197,5.1793,5.1389,5.1353,5.1206,5.0839,4.9958,4.9334,4.893,4.893,4.871,4.8306,4.871,4.9554,5.0802,5.1206,5.205,4.8196,5.0068,5.2307,5.6859,5.9098,6.0419,6.119,6.1374,6.1374,6.1374,6.1374,6.1337,6.119,6.0126,5.9148,5.9001,5.8437,5.7997,5.7997,5.7997,5.7997,0.0,0.0,0.0,0.0,0.0,0.0,0.0,0.0,5.4326,5.4216,5.3555,5.3203,5.3203,5.3203,5.3203,5.3203,5.3203,5.3203,5.3203,5.3272,5.3277,5.3314,5.338,5.338,5.3277,5.3277,5.3339,5.342,5.342,5.3604,5.3905,5.3905,5.4153,5.4484,5.4484,5.4484,5.4484,5.4484,5.4484,5.45,5.4563,5.4594,5.4671,5.5094,5.5199,5.5262,5.5599,5.5703,5.5703,5.5703,5.5703,5.5703,5.5703,5.5435,5.5275,5.5621,5.5703,5.5703,5.5703,5.5338,5.4876,5.4547,5.3777,5.3203,5.3203,5.3203,5.3203,5.3203,5.3203,5.3203,5.3203,5.3203,5.3203,5.3203,5.3203,5.2931,5.2234,5.2197,5.1903,5.1242,5.1206,5.0839,5.0051,4.9757,4.9243,4.8526,4.9243,5.0068,5.1022,5.1683,5.2417,4.6104,4.9591,5.3702,5.7152,5.8694,5.9551,6.0382,6.0566,6.0566,6.0566,6.0566,6.0346,5.9625,5.9331,5.8964,5.8253,5.807,5.7997,5.7997,5.7997,5.7997,0.0,0.0,0.0,0.0,0.0,0.0,0.0,5.4509,5.4106,5.3387,5.324,5.3203,5.3203,5.3203,5.3203,5.3203,5.3203,5.3203,5.3188,5.3546,5.372,5.3739,5.4118,5.4083,5.372,5.372,5.3923,5.4343,5.4343,5.4338,5.4404,5.4404,5.4436,5.4484,5.4484,5.4484,5.4484,5.4484,5.4484,5.4547,5.489,5.504,5.5107,5.552,5.561,5.5621,5.5692,5.5703,5.5703,5.5703,5.5703,5.5703,5.5703,5.5682,5.5621,5.5703,5.5703,5.5703,5.5703,5.5107,5.4547,5.45,5.3777,5.3203,5.3203,5.3203,5.3203,5.3203,5.3203,5.3203,5.3203,5.3203,5.3203,5.3203,5.3203,5.313,5.3078,5.3041,5.2983,5.2873,5.2873,5.2491,5.1683,5.0308,4.9537,4.9427,4.9537,5.0381,5.183,5.194,5.2417,4.7185,5.0178,5.3298,5.6528,5.7923,5.8731,5.9515,5.9735,5.9735,5.9735,5.9391,5.9098,5.9184,5.8817,5.84,5.807,5.7997,5.7997,5.7997,5.7997,5.7997,0.0,0.0,0.0,0.0,0.0,0.0,0.0,5.3995,5.3592,5.3203,5.3203,5.3203,5.3203,5.3203,5.3203,5.3203,5.3203,5.3297,5.3526,5.372,5.3923,5.4204,5.4404,5.4371,5.4187,5.4187,5.4305,5.4484,5.4484,5.4625,5.4833,5.4833,5.496,5.5173,5.5173,5.5173,5.5173,5.5173,5.5173,5.5199,5.5387,5.5435,5.5458,5.5671,5.5703,5.5703,5.5703,5.5703,5.5703,5.5703,5.5703,5.5703,5.5703,5.5703,5.5703,5.5703,5.5703,5.5621,5.5411,5.5094,5.4686,5.4204,5.3796,5.3464,5.323,5.3203,5.3203,5.3203,5.3203,5.3203,5.3203,5.3203,5.3203,5.3203,5.3203,5.3203,5.3203,5.3203,5.3203,5.3203,5.3203,5.2821,5.2013,5.1336,5.0692,5.0251,5.0692,5.1336,5.2013,5.2454,5.2858,4.7066,4.9311,5.1279,5.473,5.6198,5.7116,5.8304,5.8597,5.8634,5.8854,5.8437,5.818,5.8804,5.84,5.7997,5.7997,5.7997,5.7997,5.7997,5.7997,5.7923,0.0,0.0,0.0,0.0,0.0,0.0,0.0,5.3555,5.3203,5.3203,5.3203,5.3203,5.3203,5.3203,5.3093,5.2894,5.2711,5.2904,5.3497,5.3625,5.3996,5.464,5.4745,5.479,5.479,5.4686,5.4701,5.479,5.479,5.496,5.5237,5.5237,5.5435,5.5703,5.5703,5.5703,5.5703,5.5703,5.5703,5.5703,5.5703,5.5703,5.5703,5.5703,5.5703,5.5703,5.5703,5.5703,5.5703,5.5703,5.5703,5.5703,5.5703,5.5703,5.5703,5.5703,5.5703,5.5599,5.5287,5.5173,5.4862,5.4118,5.3869,5.3644,5.3251,5.3203,5.3203,5.3203,5.3203,5.3203,5.3203,5.3203,5.3203,5.3203,5.3203,5.3203,5.3203,5.3203,5.3203,5.3203,5.3203,5.2931,5.2307,5.2307,5.1903,5.1096,5.172,5.2087,5.2307,5.2931,5.3203,4.3587,4.522,4.7205,5.1242,5.2858,5.4047,5.6381,5.6932,5.7152,5.7923,5.8033,5.7997,5.8033,5.8033,5.7997,5.7997,5.7997,5.7997,5.7997,5.7997,5.7703,0.0,0.0,0.0,0.0,0.0,0.0,0.0,5.3203,5.3203,5.3203,5.3203,5.3203,5.3203,5.3203,5.2821,5.205,5.1316,5.1521,5.2677,5.3069,5.389,5.5094,5.5446,5.5621,5.561,5.5224,5.5313,5.5621,5.5621,5.5632,5.5682,5.5682,5.5692,5.5703,5.5703,5.5703,5.5703,5.5703,5.5703,5.5703,5.5703,5.5703,5.5703,5.5703,5.5703,5.5703,5.5703,5.5703,5.5703,5.5703,5.5703,5.5703,5.5703,5.5703,5.5703,5.5703,5.5703,5.5703,5.5692,5.5375,5.4947,5.4532,5.4101,5.3644,5.3251,5.3203,5.3203,5.3203,5.3203,5.3203,5.3203,5.3203,5.3203,5.3203,5.3203,5.3203,5.3203,5.3203,5.3203,5.3203,5.3203,5.3167,5.3151,5.3151,5.2747,5.194,5.1977,5.238,5.3151,5.3167,5.3203,4.2729,4.428,4.6054,4.8925,5.1059,5.2867,5.4505,5.5677,5.6742,5.7825,5.8052,5.8239,5.8781,5.8397,5.7997,5.7997,5.7997,5.7997,5.7997,5.7556,5.7116,0.0,0.0,0.0,0.0,0.0,0.0,0.0,0.0,5.3203,5.3203,5.3203,5.3203,5.3203,5.2711,5.205,5.1242,5.0949,5.1268,5.2226,5.2875,5.3746,5.4741,5.5391,5.5703,5.5703,5.5554,5.5577,5.5703,5.5703,5.5703,5.5703,5.5703,5.5703,5.5703,5.5703,5.5703,5.5703,5.5703,5.5703,5.5703,5.5703,5.5703,5.5703,5.5703,5.5703,5.5703,5.5703,5.5703,5.5703,5.5703,5.5703,5.5703,5.5703,5.5703,5.5703,5.5703,5.5703,5.5703,5.5703,5.5577,5.5262,5.4609,5.4355,5.4015,5.3314,5.3203,5.3203,5.3203,5.3203,5.3203,5.3203,5.3203,5.3203,5.3203,5.3203,5.3203,5.3203,5.3203,5.3203,5.3203,5.3203,5.3203,5.3203,5.3203,5.3078,5.2784,5.2784,5.2931,5.3203,5.3203,5.3203,4.08,4.2246,4.4147,4.6954,4.8612,5.0279,5.3144,5.4428,5.5436,5.6952,5.749,5.7832,5.8274,5.7935,5.7809,5.837,5.8201,5.8016,5.8016,5.7217,5.6498,0.0,0.0,0.0,0.0,0.0,0.0,0.0,0.0,0.0,5.3203,5.3203,5.3078,5.2821,5.2013,5.1206,5.0398,5.0105,5.0675,5.2024,5.2553,5.3525,5.4934,5.5472,5.5703,5.5703,5.5703,5.5703,5.5703,5.5703,5.5703,5.5703,5.5703,5.5703,5.5703,5.5703,5.5703,5.5703,5.5703,5.5703,5.5703,5.5703,5.5703,5.5703,5.5703,5.5703,5.5703,5.5703,5.5703,5.5703,5.5703,5.5703,5.5703,5.5703,5.5703,5.5703,5.5703,5.5703,5.5703,5.5703,5.5703,5.547,5.4804,5.4579,5.4238,5.3524,5.3293,5.3203,5.3203,5.3203,5.3203,5.3203,5.3203,5.3203,5.3203,5.3203,5.3203,5.3203,5.3203,5.3203,5.3203,5.3203,5.3203,5.3203,5.3203,5.3203,5.3203,5.3203,5.3203,5.3203,5.3203,5.3203,0.0,0.0,0.0,4.5212,4.5401,4.6212,5.2178,5.2976,5.3025,5.5091,5.6208,5.6654,5.6294,5.659,5.7414,5.9067,5.8617,5.8055,5.8055,5.6968,0.0,0.0,0.0,0.0,0.0,0.0,0.0,0.0,5.3203,5.3203,5.3203,5.3167,5.2784,5.194,5.1169,5.0362,4.9574,4.871,4.9543,5.1979,5.1979,5.3286,5.5665,5.5703,5.5703,5.5703,5.5703,5.5703,5.5703,5.5703,5.5703,5.5703,5.5703,5.5703,5.5703,5.5703,5.5703,5.5703,5.5703,5.5703,5.5703,5.5703,5.5703,5.5703,5.5703,5.5703,5.5703,5.5703,5.5703,5.5703,5.5692,5.5692,5.5692,5.5692,5.5692,5.5692,5.5703,5.5703,5.5692,5.5703,5.5703,5.5577,5.516,5.4745,5.4338,5.3832,5.3444,5.3203,5.3203,5.3203,5.3203,5.3203,5.3203,5.3203,5.3203,5.3203,5.3203,5.3203,5.3203,5.3203,5.3203,5.3203,5.3203,5.3203,5.3203,5.3203,5.3203,5.3203,5.3203,5.3203,5.3203,5.3203,3.6842,0.0,0.0,0.0,0.0,0.0,4.7029,4.8144,4.9559,5.3179,5.3844,5.4506,5.6785,5.7084,5.7219,5.7969,5.7305,5.6725,5.6725,5.5663,0.0,0.0,0.0,0.0,0.0,0.0,0.0,0.0,5.3203,5.3203,5.3203,5.2637,5.1683,5.0308,5.0051,4.9517,4.8673,4.8416,4.9266,5.1118,5.1699,5.2968,5.4857,5.5434,5.5703,5.5703,5.5703,5.5703,5.5703,5.5703,5.5703,5.5703,5.5703,5.5703,5.5703,5.5703,5.5703,5.5703,5.5703,5.5703,5.5703,5.5703,5.5703,5.5703,5.5703,5.5703,5.5703,5.5703,5.5703,5.5621,5.535,5.525,5.525,5.525,5.525,5.5363,5.5621,5.5458,5.5363,5.5632,5.5703,5.547,5.4775,5.4563,5.4221,5.3464,5.3272,5.3203,5.3203,5.3203,5.3203,5.3203,5.3203,5.3203,5.3203,5.3203,5.3203,5.3203,5.3203,5.3203,5.3203,5.3203,5.3203,5.3203,5.3203,5.3203,5.3203,5.3203,5.3203,5.3203,5.3203,5.3203,3.6239,3.7687,3.9445,3.9982,0.0,0.0,4.4922,4.6187,4.7776,5.1057,5.2063,5.2907,5.4693,5.5398,5.5715,5.5759,5.575,5.5813,5.5974,5.4928,5.4146,0.0,0.0,0.0,0.0,5.3203,5.3203,5.3203,5.3203,5.3078,5.2711,5.2234,5.1263,4.9647,4.961,4.9187,4.8306,4.8306,4.9303,5.1322,5.179,5.3044,5.5011,5.5472,5.5703,5.5703,5.5703,5.5703,5.5703,5.5703,5.5703,5.5703,5.5703,5.5703,5.5703,5.5703,5.5703,5.5703,5.5703,5.5703,5.5703,5.5703,5.5703,5.5703,5.5703,5.5703,5.5703,5.5703,5.5703,5.5599,5.5199,5.5107,5.5067,5.4876,5.4833,5.4905,5.5147,5.504,5.4947,5.5375,5.53,5.5067,5.4563,5.4338,5.405,5.3543,5.3334,5.3203,5.3203,5.3203,5.3203,5.3203,5.3203,5.3203,5.3203,5.3203,5.3203,5.3203,5.3203,5.3203,5.3203,5.3203,5.3203,5.3203,5.3203,5.3203,5.3203,5.3203,5.3203,5.3203,5.3203,5.3203,3.5776,3.6973,3.8614,3.9611,3.9844,0.0,4.4218,4.5443,4.6461,4.8536,5.0131,5.113,5.1143,5.2318,5.3162,5.2847,5.3821,5.4842,5.5492,5.4568,5.3758,0.0,0.0,0.0,5.3203,5.3203,5.3203,5.3203,5.3203,5.2821,5.1903,5.1867,5.1132,4.95,4.9463,4.9077,4.8306,4.8306,4.9543,5.2016,5.2016,5.3324,5.5703,5.5703,5.5703,5.5703,5.5703,5.5703,5.5703,5.5703,5.5703,5.5703,5.5703,5.5703,5.5703,5.5703,5.5703,5.5703,5.5703,5.5703,5.5703,5.5703,5.5703,5.5703,5.5703,5.5703,5.5703,5.5703,5.5703,5.5599,5.516,5.5015,5.4919,5.4516,5.4404,5.442,5.4468,5.4452,5.4532,5.489,5.4701,5.4468,5.442,5.4083,5.3758,5.3739,5.3424,5.3203,5.3203,5.3203,5.3203,5.3203,5.3203,5.3203,5.3203,5.3203,5.3203,5.3203,5.3203,5.3203,5.3203,5.3203,5.3203,5.3203,5.3203,5.3203,5.3203,5.3203,5.3203,5.3203,5.3203,5.3203,3.5628,3.6324,3.7362,3.8572,3.8442,0.0,4.0288,4.0923,4.1869,4.4528,4.546,4.655,4.9027,4.9445,4.9572,5.0131,5.1028,5.2381,5.4441,5.4176,5.3663,0.0,0.0,0.0,5.3203,5.3203,5.3203,5.3203,5.3203,5.2564,5.1096,5.1022,5.0288,4.86,4.8563,4.8489,4.8306,4.8306,4.9543,5.2016,5.2016,5.3324,5.5703,5.5703,5.5703,5.5703,5.5703,5.5703,5.5703,5.5703,5.5703,5.5703,5.5703,5.5703,5.5703,5.5703,5.5703,5.5703,5.5703,5.5703,5.5703,5.5703,5.5703,5.5703,5.5703,5.5703,5.5703,5.5703,5.5703,5.5543,5.4804,5.4609,5.45,5.4048,5.3923,5.4031,5.4404,5.4204,5.3959,5.4048,5.4305,5.4371,5.3995,5.3851,5.3683,5.3359,5.3251,5.3203,5.3203,5.3203,5.3203,5.3203,5.3203,5.3203,5.3203,5.3203,5.3203,5.3203,5.3203,5.3203,5.3203,5.3203,5.3203,5.3203,5.3203,5.3203,5.3203,5.3203,5.3203,5.3203,5.3203,5.3203,3.5768,3.6104,3.6719,3.7012,0.0,0.0,0.0,3.9708,4.0864,4.3038,4.3332,4.3809,4.6067,4.6783,4.7274,4.7919,4.9583,5.116,5.2203,5.3033,5.3404,0.0,0.0,0.0,5.3203,5.3203,5.3203,5.3203,5.2821,5.2087,5.0875,5.0398,4.9627,4.8343,4.8306,4.8306,4.8306,4.8938,5.0159,5.2016,5.2622,5.39,5.5703,5.5703,5.5703,5.5703,5.5703,5.5703,5.5703,5.5703,5.5703,5.5703,5.5703,5.5703,5.5703,5.5703,5.5703,5.5703,5.5703,5.5703,5.5703,5.5703,5.5703,5.5703,5.5703,5.5703,5.5703,5.5703,5.5703,5.5493,5.4701,5.464,5.464,5.3959,5.3977,5.4204,5.4436,5.4305,5.4083,5.3832,5.3977,5.3995,5.3565,5.3504,5.3424,5.3209,5.3203,5.3203,5.3203,5.3203,5.3203,5.3203,5.3203,5.3203,5.3203,5.3203,5.3203,5.3203,5.3203,5.3203,5.3203,5.3203,5.3203,5.3203,5.3203,5.3203,5.3203,5.3203,5.3203,5.3203,5.3203,5.3203,3.6489,3.6562,3.6816,3.592,0.0,3.8194,0.0,0.0,0.0,0.0,0.0,0.0,0.0,0.0,0.0,0.0,0.0,0.0,0.0,5.108,0.0,0.0,0.0,0.0,0.0,5.2858,5.2821,5.2968,5.2087,5.1242,5.0618,4.9958,4.9187,4.8343,4.8306,4.8379,4.8563,4.9584,5.0779,5.2243,5.3266,5.4447,5.5703,5.5703,5.5703,5.5703,5.5703,5.5703,5.5703,5.5703,5.5703,5.5703,5.5703,5.5703,5.5703,5.5703,5.5703,5.5703,5.5703,5.5703,5.5703,5.5703,5.5703,5.5703,5.5703,5.5703,5.5703,5.5703,5.5703,5.5493,5.4701,5.4731,5.479,5.3995,5.4083,5.4387,5.4468,5.4484,5.4387,5.3995,5.3851,5.3663,5.3272,5.3203,5.3203,5.3203,5.3203,5.3203,5.3203,5.3203,5.3203,5.3203,5.3203,5.3203,5.3203,5.3203,5.3203,5.3203,5.3203,5.3203,5.3203,5.3203,5.3203,5.3203,5.3203,5.3203,5.3203,5.3203,5.3203,5.3203,5.3203,5.3203,0.0,0.0,0.0,0.0,3.6658,0.0,0.0,0.0,3.7614,3.8936,0.0,0.0,0.0,0.0,0.0,0.0,0.0,0.0,4.6624,4.7996,4.9407,0.0,0.0,0.0,0.0,5.1499,5.1353,5.2087,5.0749,4.9831,4.9757,4.9647,4.9187,4.8343,4.8306,4.8673,4.9463,4.9559,5.073,5.3066,5.3225,5.4123,5.5703,5.5703,5.5703,5.5703,5.5703,5.5703,5.5703,5.5703,5.5703,5.5703,5.5703,5.5703,5.5703,5.5703,5.5703,5.5703,5.5703,5.5703,5.5703,5.5703,5.5703,5.5703,5.5703,5.5703,5.5703,5.5703,5.5703,5.5493,5.4701,5.4516,5.4436,5.3923,5.3832,5.3995,5.4404,5.4484,5.4468,5.442,5.4083,5.3663,5.3272,5.3203,5.3203,5.3203,5.3203,5.3203,5.3203,5.3203,5.3203,5.3203,5.3203,5.3203,5.3203,5.3203,5.3203,5.3203,5.3203,5.3203,5.3203,5.3203,5.3203,5.3203,5.3203,5.3203,5.3203,5.3203,5.3203,5.3203,5.3203,5.3203,0.0,0.0,0.0,0.0,0.0,0.0,3.6443,0.0,3.7195,0.0,0.0,0.0,0.0,0.0,0.0,0.0,4.2963,0.0,0.0,0.0,4.6985,0.0,0.0,0.0,0.0,0.0,0.0,0.0,4.9774,4.9077,4.9574,4.9114,4.8673,4.8306,4.8783,4.9224,4.961,5.073,5.1824,5.2844,5.383,5.4672,5.5375,5.5588,5.5703,5.5703,5.5703,5.5703,5.5703,5.5703,5.5703,5.5703,5.5703,5.5703,5.5703,5.5703,5.5703,5.5703,5.5703,5.5703,5.5703,5.5703,5.5703,5.5703,5.5703,5.5703,5.5703,5.5703,5.5703,5.5493,5.4701,5.4671,5.4745,5.4322,5.4366,5.4663,5.5121,5.5199,5.5134,5.4876,5.45,5.4048,5.3624,5.3359,5.3203,5.3203,5.3203,5.3203,5.3203,5.3203,5.3203,5.3203,5.3203,5.3203,5.3203,5.3203,5.3203,5.3203,5.3203,5.3203,5.3203,5.3203,5.3203,5.3203,5.3203,5.3203,5.3203,5.3203,5.3203,5.3203,5.3203,5.3203,4.0469,0.0,0.0,0.0,0.0,0.0,0.0,0.0,0.0,0.0,0.0,0.0,0.0,0.0,0.0,0.0,0.0,4.2696,0.0,0.0,0.0,0.0,0.0,0.0,0.0,0.0,0.0,0.0,0.0,4.8122,4.9206,4.8636,4.8306,4.8306,4.915,4.9721,4.9941,5.16,5.2605,5.292,5.4145,5.4876,5.5121,5.5399,5.5588,5.5703,5.5703,5.5703,5.5703,5.5703,5.5703,5.5703,5.5703,5.5703,5.5703,5.5703,5.5703,5.5703,5.5703,5.5703,5.5703,5.5703,5.5703,5.5703,5.5703,5.5703,5.5703,5.5703,5.5703,5.5554,5.4833,5.4876,5.504,5.4731,5.4876,5.5212,5.5599,5.5703,5.5599,5.5338,5.4833,5.4387,5.4048,5.3563,5.3203,5.3203,5.3203,5.3203,5.3203,5.3203,5.3203,5.3203,5.3203,5.3203,5.3203,5.3203,5.3203,5.3203,5.3203,5.3203,5.3203,5.3203,5.3203,5.3203,5.3203,5.3203,5.3203,5.3203,5.3203,5.3203,5.3203,5.3203,0.0,0.0,0.0,3.8476,0.0,0.0,0.0,0.0,3.7219,0.0,0.0,0.0,0.0,0.0,0.0,0.0,0.0,0.0,0.0,0.0,0.0,0.0,0.0,0.0,0.0,0.0,0.0,0.0,0.0,0.0,4.8269,4.8306,4.8306,4.8306,4.915,4.9958,5.0765,5.1593,5.2611,5.3758,5.3814,5.4284,5.5107,5.5121,5.535,5.5703,5.5703,5.5703,5.5703,5.5703,5.5703,5.5703,5.5703,5.5703,5.5703,5.5703,5.5703,5.5703,5.5703,5.5703,5.5703,5.5703,5.5703,5.5703,5.5703,5.5703,5.5703,5.5703,5.5703,5.5599,5.5186,5.5107,5.5107,5.5094,5.5107,5.5212,5.5599,5.5703,5.5703,5.5692,5.5053,5.4522,5.4468,5.3777,5.3203,5.3203,5.3203,5.3203,5.3203,5.3203,5.3203,5.3203,5.3203,5.3203,5.3203,5.3203,5.3203,5.3203,5.3203,5.3203,5.3203,5.3203,5.3203,5.3203,5.3203,5.3203,5.3203,5.3203,5.3203,5.3203,5.3203,5.3203,0.0,0.0,4.239,3.9934,0.0,0.0,0.0,0.0,0.0,0.0,0.0,0.0,0.0,0.0,0.0,0.0,0.0,0.0,0.0,0.0,0.0,0.0,0.0,0.0,0.0,0.0,0.0,0.0,4.57,0.0,0.0,4.7516,4.8012,4.9133,4.9958,5.0765,5.1573,5.238,5.2978,5.342,5.3663,5.4135,5.4701,5.496,5.5338,5.5703,5.5703,5.5703,5.5703,5.5703,5.5703,5.5703,5.5703,5.5703,5.5703,5.5703,5.5703,5.5703,5.5703,5.5703,5.5703,5.5703,5.5703,5.5818,5.6406,5.656,5.6676,5.7242,5.7434,5.7328,5.6893,5.6121,5.5572,5.5905,5.5309,5.4804,5.5212,5.5287,5.5224,5.4947,5.4452,5.4031,5.4031,5.3546,5.3203,5.3203,5.3203,5.3203,5.3203,5.3203,5.3203,5.3203,5.3203,5.3203,5.3203,5.3203,5.3203,5.3203,5.3203,5.3203,5.3203,5.3203,5.3203,5.3203,5.3203,5.3203,5.3203,5.3203,5.3203,5.3203,5.3203,5.3203,4.3842,4.3639,0.0,4.1305,4.0714,0.0,3.9311,0.0,0.0,0.0,0.0,0.0,0.0,0.0,0.0,0.0,0.0,0.0,0.0,3.8793,0.0,0.0,0.0,0.0,0.0,0.0,4.3994,4.5369,4.4452,4.4672,0.0,0.0,4.7755,4.9077,5.0215,5.1206,5.1977,5.2821,5.3203,5.3225,5.3464,5.3814,5.4255,5.451,5.4947,5.547,5.547,5.5577,5.5703,5.5703,5.5703,5.5703,5.5703,5.5703,5.5703,5.5703,5.5703,5.5703,5.5703,5.5703,5.5742,5.6049,5.6165,5.6319,5.7203,5.7473,5.7588,5.8127,5.8319,5.8235,5.7915,5.7135,5.6444,5.673,5.5852,5.5001,5.5274,5.5104,5.4804,5.4532,5.4118,5.3777,5.3777,5.3464,5.3203,5.3203,5.3203,5.3203,5.3203,5.3203,5.3203,5.3203,5.3203,5.3203,5.3203,5.3203,5.3203,5.3203,5.3203,5.3203,5.3203,5.3203,5.3203,5.3203,5.3203,5.3203,5.3203,5.3203,5.3203,5.3203,5.3203,5.3203]}]]